GFSMA_prec_cthk_000.txt.gz
RH
48 48 47 48 48 47 46 43 43 35 30 29 31 30 27 21 18 15 15 15 16 18 21 23 25 25 27 31 33 33 34 37 41 47 48 49 49 49 50 51 50 47 47
52 52 53 51 49 47 44 38 31 31 32 31 28 22 16 15 15 15 16 19 21 23 24 25 26 28 29 30 32 33 34 35 39 42 45 46 44 43 43 44 46 48 48
55 52 52 51 51 41 34 32 34 33 29 22 18 17 18 17 17 18 20 22 24 25 26 26 27 28 29 30 30 31 32 32 36 37 37 38 41 39 40 38 37 38 43
54 54 54 50 39 35 36 35 32 27 21 18 17 16 14 14 16 19 21 22 22 22 22 23 24 24 24 24 25 25 26 25 25 24 25 25 25 27 28 31 30 32 32
52 53 48 35 32 38 37 32 28 20 15 13 14 15 15 17 20 22 21 19 19 17 16 17 17 17 16 16 16 15 16 16 16 18 21 20 19 21 20 20 21 21 23
52 41 35 32 36 36 32 27 19 14 14 16 18 18 20 21 21 22 19 19 18 18 18 18 18 17 17 17 16 16 15 15 16 22 19 20 22 22 22 21 20 20 20
42 36 36 37 40 36 28 19 14 15 18 20 21 22 21 21 20 18 20 23 21 20 19 19 18 18 17 16 15 15 15 14 14 19 17 19 18 19 19 19 19 20 20
38 40 45 44 39 33 24 17 17 20 21 22 23 22 20 20 21 21 21 21 21 21 21 21 20 18 17 15 12 10 9 9 10 13 18 19 20 21 22 23 24 28 27
43 46 46 43 39 32 25 21 22 22 23 23 24 23 23 23 22 22 22 23 23 23 23 21 18 15 12 11 10 9 9 9 10 16 18 21 28 29 29 29 29 29 28
47 46 45 44 40 33 28 27 26 24 24 26 25 26 25 24 24 23 23 23 24 22 19 16 13 11 10 10 10 10 10 12 16 17 23 28 29 30 30 30 30 31 32
49 50 51 49 43 37 34 31 29 28 27 28 28 27 26 26 27 27 25 23 21 19 15 13 11 11 11 11 12 14 15 17 18 25 28 30 29 29 29 32 35 37 36
54 54 53 49 47 44 38 34 31 30 30 31 30 28 27 28 28 28 27 24 21 17 14 12 12 13 15 15 16 15 17 20 27 29 30 30 32 34 38 41 41 40 42
55 55 53 49 49 49 43 36 32 31 33 32 29 28 30 30 29 29 28 24 21 17 17 17 18 18 17 18 17 18 19 21 26 29 31 33 37 43 44 44 44 45 46
58 56 54 52 52 54 46 34 30 31 32 29 29 31 30 29 32 32 28 25 21 20 20 22 21 21 21 22 24 28 26 24 24 31 34 36 41 47 47 48 50 50 50
59 58 58 59 57 56 48 35 30 29 29 31 34 32 32 34 34 29 27 25 26 27 22 21 21 20 21 23 25 28 29 31 40 40 40 45 46 46 46 50 49 47 48
61 61 64 66 63 57 42 33 29 29 33 36 35 34 37 35 30 27 26 27 25 23 25 18 19 23 25 22 24 29 31 37 34 37 45 44 42 43 46 47 47 50 49
63 66 72 71 65 54 42 34 31 36 39 37 36 38 36 31 27 27 27 24 24 25 26 17 19 18 18 21 27 30 34 41 46 48 47 43 46 45 44 47 50 50 49
68 73 75 71 61 51 38 36 42 41 36 38 40 36 30 27 27 24 25 26 26 26 31 28 19 20 23 30 30 34 37 43 47 45 47 50 49 49 49 49 49 51 52
73 76 74 68 57 44 41 43 37 36 39 40 35 29 27 24 22 23 24 24 25 30 32 32 28 27 33 39 42 43 44 41 44 46 51 50 53 55 57 57 56 56 57
78 77 73 63 50 44 39 36 36 40 40 34 28 26 21 21 21 24 25 27 30 29 31 35 39 43 48 47 50 47 48 51 54 62 65 69 72 73 73 74 74 74 74
80 78 67 52 42 36 35 36 40 38 33 29 25 22 23 23 23 27 30 28 30 37 43 48 51 49 50 47 53 59 67 74 83 87 82 86 88 88 87 84 81 79 73
80 66 50 39 35 35 37 40 37 32 30 26 24 25 25 25 25 27 27 32 44 46 48 50 47 46 51 57 67 76 80 83 79 91 89 85 90 88 88 86 84 82 71
63 46 37 36 35 37 39 35 31 29 27 26 26 26 26 28 26 26 27 34 44 47 49 45 46 55 66 75 79 81 85 87 88 89 91 84 86 84 87 88 87 79 69
43 37 38 34 38 38 34 31 27 25 27 28 28 29 31 27 30 34 38 42 40 39 37 50 69 73 77 81 85 86 86 87 87 88 90 85 88 85 85 85 84 77 65
40 37 35 38 37 34 30 26 25 28 29 29 29 31 29 32 33 40 45 42 40 35 58 75 77 79 79 82 87 86 86 85 83 86 88 90 89 88 87 81 80 77 66
35 37 38 36 33 29 26 25 28 30 30 30 33 31 31 34 37 42 45 43 44 66 76 76 77 79 81 82 84 85 82 81 87 83 89 92 91 93 89 87 87 83 73

GFSMA_prec_cthk_003.txt.gz
RH
50 50 52 51 50 48 46 47 41 33 31 30 30 27 24 21 18 16 16 16 17 18 19 22 24 26 31 33 34 36 35 35 36 37 40 42 44 47 49 51 48 47 48
56 56 55 55 52 49 48 39 31 31 32 29 25 21 19 19 18 17 17 18 20 22 23 25 27 28 29 32 35 35 36 35 36 36 36 37 40 44 46 46 45 44 44
61 57 55 54 52 47 37 33 36 34 30 25 21 19 17 15 15 16 17 19 21 24 25 26 27 28 28 29 30 31 32 30 31 32 32 30 32 35 37 38 40 41 40
62 58 55 53 45 36 33 34 34 32 25 20 17 14 12 15 17 18 21 22 22 21 21 20 19 19 19 20 20 21 22 23 23 22 22 21 21 21 21 22 22 24 27
62 54 55 43 36 34 35 32 29 24 19 16 13 14 17 18 19 22 23 23 20 19 18 18 18 19 19 18 18 17 17 17 17 16 18 23 19 19 20 21 21 21 20
59 53 42 36 37 39 35 30 25 21 17 13 14 18 20 19 21 24 23 21 20 22 22 20 20 19 19 19 18 18 18 17 17 17 24 23 21 23 24 24 24 23 23
57 43 38 40 44 42 38 31 26 20 14 14 16 20 20 21 22 23 23 22 21 23 22 20 21 21 21 20 20 18 16 14 12 11 19 19 19 20 20 21 23 23 24
50 40 43 47 44 41 38 35 29 20 14 16 19 22 23 24 25 24 24 23 23 23 24 24 23 23 22 20 18 16 13 11 10 11 17 18 19 23 29 29 29 29 29
44 45 49 47 46 46 44 40 31 22 16 17 21 24 25 27 26 25 26 25 25 25 24 24 24 23 20 17 15 12 10 10 10 15 19 20 25 30 31 30 31 31 30
47 50 51 53 52 50 48 44 36 25 17 19 23 26 27 27 27 27 26 25 24 25 25 24 23 20 17 14 13 12 12 12 18 20 21 28 32 32 32 32 35 38 38
49 53 55 55 54 53 48 45 40 27 19 20 25 28 29 29 29 28 27 25 26 25 25 23 20 17 15 14 13 14 15 20 21 24 29 33 33 35 39 40 40 41 41
51 54 55 57 57 56 51 47 40 29 22 22 27 28 28 29 29 29 31 31 29 27 23 21 19 17 17 18 19 18 20 21 23 29 31 40 41 42 43 43 44 44 46
52 55 58 60 60 58 56 52 43 29 24 28 28 29 30 29 29 32 32 31 30 26 24 23 23 22 22 19 18 18 18 18 23 27 28 39 39 40 41 43 44 46 50
55 59 62 63 62 61 60 56 47 34 31 30 30 31 31 33 36 35 32 32 27 24 24 24 24 21 20 20 19 23 25 26 25 27 34 37 37 36 37 42 45 50 49
58 61 64 64 63 63 63 60 46 37 33 32 33 36 39 39 34 33 32 27 27 26 23 21 21 20 22 26 26 26 27 31 38 38 36 36 38 41 41 46 41 42 44
60 64 67 65 64 65 65 57 44 38 35 38 41 41 36 34 34 31 26 26 26 27 23 19 18 22 25 26 27 28 29 30 32 36 43 44 48 47 43 43 49 51 52
64 68 69 68 67 68 65 53 48 42 44 44 37 33 36 34 28 25 25 26 25 25 25 18 21 19 23 26 29 35 39 42 42 44 46 47 50 50 48 48 46 49 50
69 70 72 71 70 72 63 59 49 45 39 31 35 37 32 27 24 24 23 22 25 27 29 24 21 23 26 30 35 36 38 40 44 52 63 67 69 66 60 55 50 49 54
72 73 74 74 77 73 65 49 41 34 31 37 36 31 26 26 25 23 23 25 29 30 29 30 26 27 32 37 36 38 41 52 59 66 70 74 76 76 78 81 81 75 64
75 75 79 82 79 68 50 38 32 33 38 36 30 27 26 25 25 25 30 34 35 33 32 36 41 36 38 36 38 47 52 61 66 70 69 76 80 83 84 85 86 86 85
78 82 84 80 66 49 36 32 35 39 34 29 28 26 26 25 26 32 35 34 35 36 40 44 43 44 36 39 55 61 65 68 72 74 70 79 78 80 80 82 85 86 87
83 84 78 66 46 35 33 37 39 33 29 28 26 26 26 27 29 29 32 34 37 44 43 44 45 39 43 65 65 69 71 73 67 75 74 75 81 77 80 83 85 86 89
84 75 61 41 34 34 39 38 31 28 27 26 26 26 28 30 27 27 27 31 40 40 42 42 42 56 71 71 71 71 74 73 72 68 74 75 78 79 83 83 85 84 81
71 53 37 35 36 40 36 30 28 26 26 25 26 26 29 27 27 30 32 37 34 35 38 50 72 75 76 76 75 75 75 75 71 72 83 79 79 83 84 84 83 90 88
43 39 35 39 39 33 30 28 26 26 25 25 24 26 27 30 31 33 39 37 39 38 59 75 75 76 74 75 77 77 76 74 69 81 82 84 83 81 79 79 84 90 94
39 37 40 37 31 29 27 27 25 27 27 25 27 28 28 31 33 38 40 42 44 65 76 76 75 76 77 77 78 80 76 73 82 81 84 85 79 81 81 78 84 88 89

GFSMA_prec_cthk_006.txt.gz
RH
56 53 53 51 51 52 52 48 43 34 31 29 27 27 24 21 20 19 21 17 17 18 19 21 23 23 24 27 30 31 32 32 33 34 34 34 36 39 42 45 49 52 54
59 57 59 56 53 53 53 41 34 32 31 31 28 25 22 20 19 17 16 17 19 20 21 23 24 24 25 26 28 30 31 31 31 32 33 32 33 34 36 39 40 43 45
67 65 64 60 54 53 42 34 32 32 31 27 25 22 20 18 15 14 18 20 21 22 23 23 23 24 24 24 24 25 26 26 27 28 29 30 29 30 30 29 31 35 37
71 69 66 60 56 43 35 33 34 30 26 21 22 19 17 15 15 19 21 21 20 20 20 19 18 18 18 18 17 17 18 18 18 18 18 18 21 23 18 17 18 18 19
70 69 65 60 44 35 36 37 33 28 21 19 18 18 16 15 19 22 23 22 23 21 21 21 20 19 19 19 19 19 19 18 18 17 17 17 23 20 19 21 24 23 24
68 68 65 48 38 39 41 37 33 28 21 18 18 17 16 18 20 23 25 21 22 22 22 22 23 21 19 19 20 20 20 20 19 19 18 18 27 26 24 24 24 23 24
68 67 54 43 42 45 41 40 37 31 25 20 18 20 20 19 21 24 23 23 24 23 23 22 22 21 21 21 22 22 22 21 20 19 18 18 22 22 21 20 20 27 29
67 63 50 46 47 45 48 48 44 38 30 21 18 21 23 23 24 25 27 26 27 26 26 25 23 22 22 22 21 21 20 19 17 15 15 20 20 21 21 28 30 30 30
64 56 49 51 49 53 53 51 47 42 33 25 21 21 22 24 25 28 30 30 30 29 27 24 23 23 24 23 21 20 19 17 15 17 22 23 23 26 32 32 32 32 34
60 50 51 54 55 55 56 55 51 45 36 27 24 23 22 22 25 26 29 30 30 29 26 24 25 25 24 22 20 18 17 16 16 20 23 24 27 33 34 35 40 45 45
54 49 52 55 56 56 57 56 55 50 43 32 26 23 23 26 27 28 28 28 28 27 26 29 29 27 26 25 24 23 22 22 25 25 27 32 34 34 37 43 43 44 44
48 50 53 56 57 58 59 59 58 55 46 35 31 28 27 28 30 31 30 29 30 31 33 30 28 27 25 25 25 23 24 23 22 21 27 30 31 41 41 41 41 42 42
52 54 56 58 59 60 61 62 59 55 47 39 34 30 30 30 30 32 34 35 35 31 28 28 26 26 26 25 22 21 20 21 22 26 28 28 29 38 39 39 38 38 40
53 55 57 59 61 63 63 62 59 56 47 39 34 32 33 34 36 38 39 34 29 28 26 26 26 27 26 24 22 24 28 29 28 28 28 29 28 28 31 38 38 39 40
57 58 60 62 64 65 66 64 61 56 46 41 37 38 39 37 36 33 31 31 28 25 26 27 26 25 26 29 28 28 27 29 30 31 37 40 40 40 39 40 40 41 41
58 60 62 64 67 69 68 65 61 54 48 43 42 38 35 33 31 30 30 29 29 27 25 24 25 27 28 27 28 33 37 34 31 32 40 41 42 44 48 53 55 54 52
63 65 67 68 71 71 70 66 61 56 51 44 36 32 32 31 29 30 30 28 27 26 26 22 23 27 27 29 36 39 40 36 33 32 36 44 51 55 62 64 64 63 63
67 69 70 73 75 74 71 67 64 56 44 34 32 34 32 30 29 29 28 27 26 26 27 25 26 25 28 35 38 36 40 39 33 40 53 58 60 62 62 65 68 69 70
71 71 75 78 76 74 73 68 59 44 32 34 35 32 31 29 28 29 28 27 29 32 31 30 26 26 33 37 35 36 35 36 52 59 61 64 65 65 67 71 72 71 72
72 77 82 78 76 79 69 60 43 32 34 35 33 32 29 28 30 29 28 33 32 31 30 31 35 39 40 35 39 37 45 62 63 65 65 65 64 64 68 68 67 71 73
79 84 78 82 83 70 60 39 32 35 36 35 32 31 31 30 25 29 33 33 31 31 33 40 43 40 36 37 47 61 65 64 66 69 63 63 59 64 67 68 70 72 77
84 81 86 83 69 58 34 33 36 36 35 33 32 31 30 28 29 32 32 31 32 38 43 44 44 43 40 58 68 69 70 68 63 72 67 58 73 69 70 71 75 79 80
87 88 80 67 52 33 35 37 35 30 31 31 31 29 28 30 32 31 31 32 36 43 42 42 45 51 66 71 72 72 73 72 71 66 66 67 76 72 74 75 73 76 79
88 75 63 43 34 37 37 33 28 28 31 31 29 28 29 32 32 32 32 35 38 38 43 50 63 74 76 77 78 77 75 71 71 69 74 75 74 76 74 71 76 78 82
70 57 36 38 39 36 31 28 28 29 30 28 26 27 32 33 31 32 33 35 37 43 59 74 79 80 79 80 80 77 73 71 65 66 75 79 79 79 73 75 78 83 87
43 37 40 38 35 30 29 29 26 28 27 25 30 32 31 31 31 34 36 38 43 64 78 80 80 79 81 81 80 79 74 69 69 60 76 82 82 81 75 75 79 79 80

GFSMA_prec_cthk_009.txt.gz
RH
48 54 54 54 52 52 50 49 45 37 33 30 27 27 26 23 22 23 24 20 18 17 18 20 21 22 23 24 26 26 27 27 27 29 30 31 30 31 32 34 36 38 40
58 53 58 58 55 55 54 47 37 33 32 29 27 26 24 24 22 22 22 19 16 18 21 21 22 23 23 23 23 24 25 26 27 28 29 29 29 30 30 32 32 33 35
60 56 59 63 60 60 54 42 34 34 30 27 25 23 21 20 22 20 19 18 18 20 22 20 19 18 18 17 17 17 17 18 18 19 20 22 23 24 24 25 25 26 26
62 62 63 65 63 59 49 38 37 33 29 24 20 19 19 19 20 20 19 18 19 21 21 19 18 17 18 18 18 18 18 18 18 18 18 18 18 18 21 18 17 16 16
65 65 65 64 62 52 45 41 35 32 28 23 20 17 16 20 23 22 22 22 21 21 20 20 20 20 21 21 20 20 20 19 18 18 18 18 18 18 28 27 23 21 24
66 68 67 62 51 50 48 40 36 37 34 28 21 19 20 21 23 24 26 25 22 20 21 22 22 22 22 22 21 20 19 18 19 20 20 20 20 20 28 28 28 28 28
65 63 62 56 47 51 49 44 42 41 38 32 27 24 23 20 23 26 23 25 24 23 25 25 24 24 23 22 21 20 19 19 21 21 21 21 22 24 27 26 25 29 31
64 60 56 48 45 52 52 50 47 45 42 36 30 27 26 26 26 25 25 26 24 25 25 25 24 23 23 21 20 18 20 21 21 20 22 27 28 27 26 26 32 33 32
69 64 55 47 48 53 55 54 54 52 48 44 37 31 26 26 26 26 26 24 25 25 25 25 24 23 22 21 20 21 22 22 21 20 20 26 25 25 25 32 34 35 36
74 70 61 47 50 54 56 57 58 57 54 49 42 37 33 32 31 28 26 26 27 28 29 28 27 24 21 23 24 25 25 22 20 19 25 27 27 27 34 35 36 41 46
73 71 60 47 50 54 57 59 58 56 56 51 44 40 37 35 32 31 30 30 29 28 27 26 28 29 30 30 27 27 27 26 25 27 26 26 26 27 33 33 35 43 44
68 67 57 52 53 54 56 58 59 58 58 54 47 41 38 35 32 32 31 30 30 32 33 31 31 29 27 26 26 25 23 26 26 25 28 33 34 34 37 43 44 44 44
68 66 52 55 58 58 59 60 60 60 59 55 45 41 41 36 35 34 33 33 32 31 29 28 26 26 25 24 25 24 23 24 23 25 29 30 30 29 30 38 39 39 39
67 62 55 58 58 59 61 62 63 64 62 55 48 45 41 38 35 34 33 32 30 29 28 26 25 25 26 26 25 25 24 22 24 27 27 27 27 28 32 38 39 39 39
67 60 58 60 60 62 64 65 66 67 65 56 49 46 42 37 33 33 32 32 33 30 27 27 27 28 26 26 27 25 22 24 26 27 28 28 30 35 38 38 39 41 42
67 58 60 62 63 67 70 70 71 71 65 54 51 46 37 33 33 33 33 30 30 30 29 27 26 27 28 27 25 26 26 28 28 28 30 39 39 37 36 42 47 51 51
63 61 64 66 69 71 74 74 75 71 60 55 53 39 33 34 33 30 29 31 30 29 28 26 28 28 26 26 25 29 30 27 27 29 30 33 38 42 49 55 58 60 58
63 65 66 69 75 76 75 78 76 67 61 58 40 34 35 33 31 31 30 29 28 28 31 30 28 26 26 27 35 38 34 31 31 34 40 46 51 57 58 61 62 60 60
66 68 71 75 73 75 83 82 73 65 60 41 35 35 33 33 31 30 29 29 29 29 31 30 27 25 28 36 36 34 31 34 44 48 53 59 60 60 63 61 57 59 65
69 72 76 76 77 84 84 77 67 60 40 36 35 36 34 32 31 30 28 27 29 30 30 28 26 27 38 37 35 35 39 51 56 62 60 60 62 60 61 59 65 68 69
74 76 78 80 84 85 81 67 57 38 36 37 36 33 33 31 29 28 30 32 32 30 28 28 35 39 34 33 42 49 57 60 64 67 60 63 62 57 58 66 68 69 75
75 78 79 82 88 81 67 54 38 35 34 33 33 32 31 28 27 29 33 32 31 32 33 40 37 37 40 50 57 65 68 68 64 68 67 60 65 58 64 69 71 76 75
77 79 83 89 78 64 50 37 35 33 31 32 32 31 28 26 28 32 31 30 29 32 36 38 42 50 59 66 69 70 74 74 70 64 67 58 63 60 67 70 75 75 76
79 88 87 72 62 44 37 35 33 31 30 32 30 27 26 29 30 31 29 31 30 31 35 43 59 69 73 74 76 76 75 69 65 63 74 60 59 59 69 72 72 72 73
91 82 67 56 40 37 35 33 31 30 30 28 25 25 28 31 30 31 34 30 32 32 43 66 73 75 75 74 74 71 66 68 61 60 69 65 61 61 69 71 72 72 74
73 62 45 39 36 34 33 32 30 27 25 24 23 25 30 30 32 34 33 33 34 46 66 68 68 67 68 69 72 76 76 72 70 61 68 65 65 72 66 74 75 69 69

GFSMA_prec_cthk_012.txt.gz
RH
50 51 50 50 49 50 51 49 47 39 33 32 31 28 25 23 22 23 23 23 21 21 19 18 19 22 22 21 22 23 23 23 23 24 25 26 26 27 28 30 31 32 33
54 54 52 52 51 52 54 51 44 39 34 32 28 26 23 22 22 21 22 22 21 20 19 18 20 22 21 20 19 19 17 16 17 17 18 19 21 23 24 26 28 29 31
62 58 54 57 58 54 55 49 45 42 38 30 26 24 22 20 20 20 20 20 20 19 19 17 17 17 18 18 17 16 15 16 16 16 16 16 16 17 17 18 19 19 21
64 60 58 61 61 59 52 47 43 43 39 31 26 22 19 19 20 20 19 21 23 22 22 21 20 19 19 20 20 19 18 18 18 19 19 19 18 17 17 18 21 18 17
63 58 60 63 64 60 48 46 41 43 42 35 29 25 22 20 21 22 22 23 23 23 22 22 23 22 20 21 21 20 20 20 20 20 19 19 18 18 19 20 29 29 28
63 62 62 62 62 51 46 44 41 45 44 37 30 28 27 25 25 23 25 25 24 24 24 24 24 23 22 23 23 22 21 20 19 18 18 20 23 23 21 22 30 30 29
63 64 62 63 56 45 40 40 42 45 47 42 35 33 32 31 30 31 29 25 25 25 26 25 24 22 22 22 20 19 19 18 18 18 18 18 25 30 31 31 30 30 35
63 62 66 64 54 47 40 40 44 48 51 48 44 41 39 38 36 33 29 26 25 26 26 25 24 23 22 21 20 20 19 19 18 17 20 27 32 32 31 30 30 34 36
66 68 69 64 59 50 47 46 48 51 53 53 50 46 43 42 38 35 33 32 31 30 28 27 26 25 23 22 21 20 20 22 23 26 31 31 30 30 29 28 34 36 35
69 71 71 65 65 54 51 49 50 52 54 54 52 49 44 42 39 37 35 32 30 29 28 28 26 25 24 23 24 25 25 27 26 25 29 29 29 29 33 36 36 35 36
70 72 70 70 67 51 54 54 54 54 55 54 52 48 45 44 41 39 36 34 33 31 29 28 28 28 27 26 25 24 24 22 22 26 27 27 32 36 36 36 36 38 41
69 74 72 70 68 54 55 55 58 60 60 57 54 49 47 46 41 36 34 33 31 31 30 28 26 25 25 27 27 26 25 26 27 28 33 36 35 38 41 43 43 44 43
69 72 72 73 67 55 58 59 61 62 62 60 58 54 50 48 44 39 37 33 30 28 27 26 27 26 26 25 25 25 25 26 26 25 30 32 33 36 39 40 40 40 39
72 68 76 72 61 58 61 61 62 63 64 64 64 60 55 49 43 39 34 31 30 29 28 27 25 24 26 26 26 25 23 23 23 23 28 29 28 28 31 37 39 39 39
72 78 72 70 59 60 61 61 64 67 69 69 66 60 54 47 42 36 34 33 32 31 29 28 28 25 23 21 21 20 19 19 18 24 25 27 27 29 32 35 37 38 39
75 70 71 66 59 60 62 66 70 73 75 71 64 59 50 46 39 36 33 31 29 29 29 27 26 24 24 23 20 19 19 21 23 23 25 29 29 31 34 40 42 41 41
76 70 72 64 61 64 68 72 75 76 73 70 64 53 52 42 37 32 29 28 30 30 28 25 24 25 25 22 18 21 24 27 23 22 29 33 38 43 46 50 46 51 54
72 73 71 65 67 72 73 77 79 74 75 70 57 55 43 36 32 29 31 31 30 28 26 24 25 23 22 19 23 27 27 25 25 30 39 44 47 50 53 56 56 56 58
73 74 70 69 72 74 77 80 81 77 72 60 57 45 36 32 31 32 31 29 26 23 26 26 23 21 21 25 29 26 26 31 38 42 46 49 51 55 56 60 58 57 59
72 72 70 74 75 78 82 85 80 74 65 59 44 35 32 34 34 32 29 25 26 27 29 27 25 24 28 31 30 35 37 44 47 52 54 56 57 55 59 58 58 57 58
74 71 73 77 80 82 84 81 76 67 61 42 32 32 34 34 32 29 28 30 33 32 29 29 27 31 32 33 45 50 53 54 59 61 58 59 57 56 56 55 55 57 64
71 72 80 83 82 83 82 79 67 59 38 30 32 33 32 29 24 25 27 32 31 30 29 31 34 33 40 52 58 59 61 63 59 67 62 56 60 54 55 55 56 62 69
78 86 84 80 80 85 78 66 53 34 31 33 33 33 28 25 24 24 25 26 25 27 31 34 35 44 55 62 62 61 62 62 58 56 59 51 57 55 55 54 56 59 71
86 79 80 85 87 73 62 42 32 32 34 32 29 25 25 24 23 26 28 28 28 29 29 34 49 59 64 63 64 63 63 61 57 59 64 61 55 53 51 54 58 58 69
79 84 90 79 67 51 36 32 34 34 31 25 24 23 23 23 26 29 30 29 28 29 32 51 62 61 61 63 65 64 63 61 55 57 64 65 57 54 52 53 60 61 70
91 82 69 57 38 34 33 37 35 30 23 20 19 20 20 23 29 30 31 31 31 34 53 57 57 58 59 61 64 67 65 64 65 58 69 64 61 66 52 54 65 65 66

GFSMA_prec_cthk_015.txt.gz
RH
49 52 53 52 50 49 47 49 49 45 38 35 33 29 26 25 24 25 24 23 22 22 22 24 24 22 19 21 22 22 22 21 20 18 19 20 20 21 23 26 28 29 30
49 51 53 53 51 49 50 52 47 42 39 35 34 31 26 24 24 23 22 22 21 20 21 22 22 20 17 16 17 18 17 17 17 16 15 15 14 15 15 17 19 22 26
52 51 54 56 53 53 53 53 47 41 37 34 34 33 27 24 23 22 21 21 21 19 19 21 22 21 20 20 21 21 20 19 19 18 17 16 16 15 15 16 16 17 16
58 60 61 60 57 55 57 53 45 41 39 35 33 34 32 26 23 22 22 22 22 22 23 23 21 21 22 22 22 23 21 21 21 20 18 17 17 17 17 18 18 19 26
61 64 63 61 60 60 58 48 43 38 36 34 31 34 35 28 27 26 25 26 25 23 23 23 23 24 24 25 25 24 23 22 22 21 20 20 19 19 20 23 23 23 28
61 63 64 64 62 60 56 47 42 39 36 32 32 35 38 35 31 31 31 32 31 30 29 26 25 25 25 25 24 22 21 21 23 20 20 21 23 24 24 25 26 27 28
62 65 64 64 63 61 53 48 46 43 38 35 36 40 42 43 40 40 41 38 35 33 30 28 26 25 26 25 23 21 21 21 22 20 20 25 28 28 28 28 28 29 31
61 64 64 65 63 64 55 51 50 48 46 43 42 42 44 45 45 45 44 42 39 35 32 31 30 28 27 25 24 24 22 20 20 20 25 27 28 29 32 33 34 34 36
58 63 66 67 67 64 60 54 52 51 51 49 46 44 43 44 44 44 43 40 37 35 33 32 29 27 26 25 25 23 22 23 25 31 33 33 32 31 32 36 38 39 38
61 64 66 68 67 63 62 59 55 51 51 52 53 51 49 46 45 43 43 39 37 35 32 29 28 28 27 27 25 23 23 23 24 30 30 31 30 32 36 36 36 37 39
63 66 68 66 67 67 65 62 54 54 55 56 56 54 51 48 46 46 45 43 39 33 31 30 29 27 25 23 23 25 25 24 24 26 27 27 29 35 38 38 40 39 38
63 69 70 72 68 70 69 65 57 56 58 60 60 58 55 52 49 47 46 44 39 35 33 29 26 24 24 25 26 26 25 26 28 29 29 33 36 37 43 45 45 44 45
66 72 75 75 73 71 67 66 58 58 60 62 63 62 59 56 53 51 48 42 36 34 31 29 27 26 25 24 24 24 24 23 23 24 23 32 32 33 36 38 38 40 40
69 76 78 78 73 70 72 67 61 62 62 63 66 68 66 62 56 51 46 41 36 32 30 28 27 25 25 25 23 21 19 17 17 19 23 28 28 28 27 30 37 37 38
72 79 81 78 72 77 75 66 64 64 64 67 73 71 67 61 55 49 45 39 34 31 29 27 27 26 24 22 20 20 19 15 17 18 22 28 28 28 28 32 37 38 40
76 81 82 83 84 77 71 65 66 66 69 74 76 74 65 59 53 50 43 37 32 30 29 28 26 24 21 19 18 16 14 14 16 19 20 22 28 30 32 36 39 42 42
80 87 82 85 78 72 73 67 69 71 75 77 77 71 62 56 54 49 37 31 29 30 31 26 23 20 20 16 15 15 15 17 16 17 23 26 34 37 38 41 43 45 48
86 86 88 82 75 76 70 71 72 74 78 79 74 67 59 58 52 38 31 30 33 30 26 23 21 20 16 15 18 20 18 18 22 26 33 38 40 44 46 50 52 53 56
87 90 83 80 78 76 72 74 78 80 82 77 68 63 64 53 37 30 33 34 29 25 23 23 21 18 17 18 19 19 22 25 32 38 42 43 46 49 52 53 55 58 58
91 85 88 81 78 76 75 81 83 84 78 70 71 65 50 35 31 36 34 29 27 26 25 24 22 20 21 21 23 26 28 37 41 48 48 48 51 48 49 53 55 54 53
88 86 87 79 77 76 79 88 87 80 76 74 66 45 31 32 37 32 29 29 27 25 26 27 25 26 26 23 29 38 42 44 46 47 46 45 46 45 47 49 52 53 53
87 86 83 79 76 81 89 88 81 80 76 63 40 30 34 36 29 26 26 26 24 28 30 30 30 28 26 35 45 48 48 48 43 52 47 45 49 45 48 50 51 55 56
86 87 80 77 87 91 87 83 81 74 54 35 31 35 33 28 27 24 24 24 26 29 30 31 29 30 41 48 48 49 51 51 49 49 48 40 45 43 48 48 54 55 55
89 87 89 89 87 84 84 80 65 43 32 34 35 29 27 26 24 23 26 31 29 29 27 26 32 44 49 50 53 53 52 52 52 51 56 47 50 48 49 49 54 57 59
93 90 84 83 84 82 70 49 34 32 35 33 26 25 24 22 21 29 30 29 27 27 27 36 45 49 50 52 55 57 58 60 57 57 66 61 59 56 55 55 56 59 63
81 81 83 82 67 49 35 32 34 37 31 28 27 24 22 24 25 30 31 32 29 26 36 44 46 47 51 54 60 66 68 70 71 62 72 67 68 70 56 62 63 63 64

GFSMA_prec_cthk_018.txt.gz
RH
46 48 50 49 48 48 47 46 47 48 43 38 36 31 29 29 27 25 24 25 25 24 25 24 23 24 25 25 22 18 16 17 17 17 18 17 17 17 18 20 22 24 26
48 51 50 51 50 50 51 51 49 47 43 39 36 31 27 29 28 26 25 24 24 23 23 22 21 20 20 21 18 17 16 17 20 20 19 19 18 17 15 15 15 16 19
49 49 50 53 55 58 57 54 51 46 42 39 35 32 30 29 30 30 27 25 22 22 22 22 23 21 21 21 21 22 23 23 23 23 21 20 20 19 18 17 16 15 16
51 49 51 56 61 61 61 58 54 48 42 37 33 29 27 27 30 33 31 26 25 25 24 23 22 22 22 23 23 24 25 24 24 24 24 22 21 21 21 21 23 21 19
56 55 56 62 63 62 64 62 53 48 44 39 35 31 28 28 31 36 37 31 29 29 29 29 29 29 29 27 25 25 25 25 25 25 23 20 21 22 22 24 26 27 28
61 61 62 63 63 63 64 62 52 48 46 42 38 37 34 33 36 40 43 43 41 37 36 36 34 34 31 28 27 27 25 24 27 27 22 26 28 28 28 27 27 26 27
62 60 63 66 66 66 67 61 54 52 50 46 43 42 42 42 41 43 44 46 45 44 42 40 38 35 32 30 29 28 27 26 27 28 26 29 30 29 28 28 28 28 29
61 59 60 63 62 63 64 60 58 55 53 50 47 45 45 46 44 44 44 44 43 42 41 39 36 34 32 29 27 27 26 23 22 27 29 32 31 31 31 31 34 37 38
63 59 60 63 64 66 66 63 60 57 54 54 52 49 46 46 47 48 48 46 43 42 40 38 34 30 28 27 25 23 23 23 23 28 31 30 29 29 28 32 35 38 38
66 63 62 65 67 67 63 64 64 61 57 56 55 54 53 52 50 48 48 46 46 44 41 38 33 30 28 26 25 24 23 23 24 28 29 29 29 30 34 37 37 36 38
69 67 67 71 71 70 63 65 65 64 59 56 57 58 58 57 55 52 50 48 47 45 43 39 34 31 28 25 24 23 24 23 24 28 29 28 29 32 36 36 36 37 37
66 68 69 75 76 71 66 70 67 68 65 59 58 60 61 59 56 55 54 53 52 50 47 41 35 30 27 25 24 24 24 24 23 26 28 27 29 34 35 34 35 35 37
66 69 69 75 78 78 72 73 72 72 68 60 59 62 62 61 59 59 55 51 47 48 46 41 33 28 26 26 25 24 24 23 21 22 24 24 28 32 32 30 30 33 36
67 71 73 78 81 81 80 76 75 71 78 63 62 63 64 64 64 60 56 50 48 47 43 36 31 29 28 27 25 23 21 18 16 19 20 19 24 28 28 28 28 29 36
73 76 76 81 84 84 80 79 69 72 80 65 65 66 68 69 65 62 59 53 51 46 37 32 30 29 28 27 24 21 18 15 12 13 17 18 19 21 25 28 29 35 37
74 73 79 82 85 85 82 78 77 83 76 66 67 69 71 73 68 63 60 55 51 42 34 30 29 29 27 22 20 17 14 13 14 12 15 19 20 26 30 30 32 34 36
73 75 80 81 83 84 89 87 87 79 69 68 71 73 75 74 70 66 60 55 47 35 32 30 30 27 23 19 16 14 14 14 12 13 16 22 25 29 33 37 39 42 42
75 76 79 84 85 91 92 86 81 69 73 72 75 76 77 76 73 64 58 48 35 32 32 33 29 24 20 18 17 16 13 12 14 17 20 29 32 35 38 40 45 47 48
73 79 85 87 92 90 89 80 76 74 74 78 79 79 81 76 69 62 48 36 32 35 34 29 26 23 20 18 16 14 14 16 21 27 32 33 34 36 41 43 43 43 44
77 85 89 92 89 92 84 85 77 77 79 81 86 84 78 73 63 47 36 33 37 34 29 25 24 23 21 18 18 18 18 26 30 33 33 34 35 37 37 37 38 39 40
83 88 90 94 89 86 82 81 82 83 81 88 85 80 72 61 43 34 35 39 34 29 25 26 28 27 23 20 20 24 31 31 32 34 34 34 36 36 37 39 40 41 41
89 91 92 95 92 92 90 85 81 83 90 87 78 67 57 39 32 36 37 31 29 27 30 32 32 27 23 21 28 34 35 35 34 38 37 36 40 38 40 42 43 43 45
91 90 97 94 84 87 88 89 88 88 80 74 66 51 32 32 37 35 30 26 27 27 33 32 31 27 25 31 36 36 39 41 41 42 46 39 48 46 48 48 51 51 51
93 97 97 94 95 93 92 88 79 75 68 55 37 31 34 37 31 28 26 28 29 29 29 28 26 26 35 38 41 44 44 43 47 52 64 50 55 54 54 55 61 63 61
98 98 97 97 95 87 82 77 66 51 37 31 33 37 36 30 27 28 30 33 32 29 28 26 26 38 40 42 44 46 49 54 52 57 74 66 64 62 62 59 70 75 71
97 97 91 83 83 78 59 45 35 31 33 37 37 31 27 27 31 31 38 38 34 27 26 27 38 38 41 45 49 56 60 63 67 62 76 71 70 73 59 61 67 76 78

GFSMA_prec_cthk_021.txt.gz
RH
44 47 51 52 50 50 49 50 49 48 46 40 38 35 31 28 26 25 27 26 25 25 25 25 25 25 24 23 22 21 21 21 19 16 17 17 18 18 18 18 20 21 23
43 48 52 53 51 52 53 54 54 54 49 43 39 35 31 28 27 26 27 29 26 26 26 24 23 22 22 22 22 21 21 21 19 18 18 19 21 20 19 19 18 17 16
44 49 53 53 53 53 56 58 59 57 50 44 41 35 32 30 28 26 26 29 29 29 27 25 24 22 22 22 24 26 24 23 23 23 24 24 24 23 22 21 21 20 19
50 53 54 53 55 56 61 62 63 59 52 47 41 38 34 32 30 29 28 29 32 33 32 27 27 28 28 28 28 28 29 28 26 25 26 26 26 26 26 28 27 26 25
56 60 57 56 59 62 66 64 64 59 52 48 43 40 37 36 34 35 35 34 37 40 40 38 35 35 36 35 34 34 32 30 28 27 26 23 23 24 26 26 25 26 26
56 59 60 60 61 66 66 65 65 59 54 50 46 43 41 39 39 41 43 43 43 42 42 42 41 40 39 39 37 35 34 30 30 32 29 30 30 31 31 30 30 30 30
55 60 63 65 66 67 65 64 63 55 52 50 49 46 45 44 45 46 46 47 47 43 41 40 39 39 38 36 34 32 29 28 28 30 31 33 35 34 32 31 31 31 30
49 57 62 64 63 62 62 61 60 55 51 51 49 47 47 47 48 49 49 50 48 46 44 42 41 39 37 34 32 29 26 24 23 25 28 30 29 29 30 31 31 33 33
59 59 60 63 62 61 62 61 64 56 54 52 50 50 49 48 49 51 53 52 50 48 46 44 42 39 37 35 33 30 27 24 23 27 29 30 30 31 32 32 33 34 37
67 67 66 69 70 69 68 66 62 61 58 54 53 53 51 51 51 52 54 52 51 50 49 48 45 41 39 36 32 29 26 24 24 28 32 31 30 31 33 34 36 39 38
70 73 75 73 73 73 75 74 67 63 62 61 59 57 54 54 55 56 55 54 53 54 53 50 45 41 39 35 30 26 24 24 24 24 27 30 30 29 32 36 38 36 36
70 70 70 74 78 78 77 82 75 68 66 68 63 64 61 58 59 58 58 56 56 58 55 50 46 44 40 34 29 26 25 24 24 24 28 31 30 28 30 32 34 33 32
70 69 68 70 75 76 76 82 77 74 69 70 68 71 68 62 61 61 60 58 59 60 61 60 53 47 39 32 28 27 26 25 23 22 20 25 27 25 24 26 30 30 28
66 67 73 69 77 81 80 83 79 78 75 74 76 72 73 69 64 63 62 60 59 59 59 59 54 45 38 33 30 27 26 24 21 19 17 21 22 20 19 20 23 27 28
66 65 72 75 80 85 86 85 80 82 79 80 76 73 78 77 66 66 65 62 61 59 56 56 48 42 35 31 29 28 26 23 20 17 14 12 16 19 19 21 26 28 30
70 66 70 79 83 85 86 84 82 89 82 81 81 84 85 72 68 69 67 69 68 62 55 49 43 36 31 29 29 27 23 19 16 14 12 13 19 21 24 29 33 33 34
67 75 77 85 88 86 81 80 82 89 80 89 89 86 82 73 72 72 74 72 69 62 54 47 37 33 31 30 26 22 18 15 13 12 13 15 22 26 28 30 34 37 38
68 80 86 88 83 79 80 80 80 80 93 96 86 78 77 79 78 80 76 74 67 60 51 41 36 33 33 28 24 21 17 14 14 14 17 21 28 29 31 31 33 36 38
85 92 88 80 81 80 79 76 93 85 93 85 82 83 77 81 83 79 77 73 65 55 43 37 36 37 32 25 22 19 16 14 17 20 25 27 26 26 30 31 32 32 33
90 96 86 84 80 79 78 82 92 96 91 91 89 83 82 83 83 79 74 65 52 44 37 37 38 33 30 24 23 20 18 19 24 28 27 26 27 28 30 31 31 31 32
95 99 86 77 77 77 81 91 97 92 94 88 86 86 85 82 78 70 59 49 44 38 40 39 35 33 28 25 24 23 25 30 31 27 26 26 28 31 34 37 38 39 39
92 96 81 80 79 80 86 97 97 97 97 90 94 89 80 72 63 53 46 38 41 43 40 37 35 32 28 27 28 28 35 35 30 29 29 30 38 39 43 46 50 52 52
98 87 81 82 82 87 91 94 98 95 96 90 79 77 67 55 45 36 35 38 39 34 36 36 34 32 32 30 31 36 36 33 34 34 42 35 45 45 51 55 61 62 64
92 85 87 86 96 96 98 97 98 91 81 76 68 58 43 34 33 38 39 38 38 35 32 31 32 31 30 32 38 37 36 35 38 46 57 44 50 50 54 55 62 69 73
92 95 96 96 98 98 98 91 88 80 68 51 36 31 34 37 36 34 38 38 35 32 32 32 31 30 33 38 37 36 38 43 44 50 60 59 54 52 54 53 60 70 75
99 98 98 97 96 89 86 71 57 38 31 32 35 35 33 30 31 37 37 35 33 32 33 31 29 31 37 37 39 44 49 52 56 53 62 60 58 63 51 53 61 72 77

GFSMA_prec_cthk_024.txt.gz
RH
48 49 49 50 52 52 50 49 51 51 51 48 42 38 34 31 27 25 24 24 24 26 25 25 23 24 24 23 22 21 21 21 21 21 22 21 20 18 19 18 18 19 21
45 46 47 48 50 50 51 52 53 55 55 50 45 41 36 32 29 27 27 25 25 26 26 26 24 25 25 24 24 22 23 23 24 24 24 22 20 19 19 20 20 20 19
46 46 46 48 51 51 52 53 54 58 59 54 48 44 38 35 32 30 29 27 28 27 28 29 30 29 28 26 27 27 27 28 28 28 28 26 24 23 26 28 26 25 24
46 44 44 49 53 53 54 56 58 61 61 54 49 45 40 37 34 33 33 32 33 34 33 33 35 36 38 35 34 34 35 35 34 33 31 30 28 27 27 25 24 25 25
53 48 47 51 55 56 57 61 62 63 60 53 49 45 41 39 38 38 38 38 38 38 38 38 37 38 39 40 39 38 37 37 36 35 34 32 31 32 32 32 34 34 32
54 52 56 58 57 57 61 65 65 65 60 51 47 43 41 41 39 41 41 41 42 42 40 40 41 39 37 36 35 35 34 33 32 31 32 29 31 34 36 36 36 35 34
57 58 58 59 59 60 64 69 66 63 56 49 47 41 41 41 41 42 43 44 46 45 44 43 42 40 40 38 36 34 32 31 28 26 28 30 30 30 31 32 32 33 33
67 68 61 60 64 64 67 67 66 62 55 49 47 43 42 42 42 43 44 46 46 47 46 46 45 44 43 41 39 37 35 33 29 27 30 33 32 31 30 30 30 31 33
69 69 66 67 63 64 66 68 67 61 57 52 50 45 44 43 45 45 46 46 47 48 48 46 46 46 45 43 40 38 36 32 29 26 27 31 32 32 31 32 34 37 39
62 66 68 69 71 68 67 70 72 70 64 60 56 53 49 48 48 48 48 49 50 50 48 47 47 47 46 44 41 38 35 31 27 25 27 30 32 32 31 32 37 41 40
62 72 77 79 80 78 79 77 75 78 73 68 63 62 57 55 54 52 51 53 53 54 52 51 50 49 48 47 43 38 34 30 27 25 24 27 31 32 32 33 37 39 39
60 64 73 78 79 83 86 86 85 83 80 73 70 65 64 61 60 63 60 56 57 56 56 54 52 52 51 48 44 39 34 31 29 26 25 27 33 33 31 30 30 34 35
67 71 71 76 78 80 83 87 86 82 87 76 73 74 71 69 67 71 68 64 64 63 60 58 56 56 55 51 46 40 35 31 28 26 24 26 31 30 28 26 25 26 29
60 72 79 84 84 81 81 83 86 84 82 91 80 80 76 73 71 75 73 73 68 68 64 66 65 63 60 54 48 41 35 31 28 26 24 22 21 20 22 24 22 22 24
59 70 77 86 85 84 83 80 83 88 88 82 90 87 83 78 85 76 74 76 77 65 66 71 70 68 60 55 48 41 36 31 28 26 24 21 19 18 21 22 22 22 25
58 63 75 80 87 87 85 84 85 90 88 87 85 92 91 89 80 83 87 81 76 69 68 71 72 66 58 52 45 39 33 29 28 26 23 20 18 23 24 24 27 30 33
49 65 70 85 89 90 85 86 87 87 88 89 81 86 85 96 93 93 85 82 78 73 73 73 67 61 55 47 40 35 31 28 27 23 20 18 19 24 28 29 31 32 32
39 49 68 75 80 86 86 85 84 86 90 87 83 97 84 90 95 85 81 82 78 78 73 67 61 56 48 41 37 33 31 30 25 21 20 20 23 25 26 31 31 29 30
46 47 54 66 75 78 84 84 85 89 89 86 86 89 95 90 87 87 89 87 85 75 68 61 54 48 43 39 35 35 33 26 23 21 23 25 27 28 26 26 28 27 27
48 54 57 62 77 79 81 84 84 89 86 87 84 86 97 93 91 92 92 83 76 69 61 52 47 41 39 39 39 35 30 26 23 25 27 29 28 26 26 27 26 28 30
56 60 64 67 82 91 94 86 90 91 87 88 87 95 95 92 98 94 80 72 67 60 51 47 40 41 43 40 37 34 32 28 28 30 30 27 26 26 30 33 36 39 40
56 62 69 74 88 90 97 96 96 88 89 87 90 97 98 95 86 76 69 63 56 49 42 42 43 41 39 37 37 34 32 33 36 33 30 27 30 32 38 41 45 47 48
75 77 80 83 86 95 93 96 93 90 89 93 98 97 88 78 70 63 52 42 35 36 37 41 38 38 38 39 37 35 38 41 41 35 32 29 39 39 44 46 50 50 49
87 93 88 91 93 90 95 96 97 92 97 97 88 78 69 58 48 39 34 33 35 36 34 33 34 35 37 38 39 41 43 39 36 36 42 37 45 44 44 44 45 48 52
98 95 93 92 92 98 94 97 96 96 88 74 60 50 42 37 32 29 32 31 30 30 29 31 31 31 31 32 35 36 37 38 36 43 53 50 48 45 41 39 43 47 51
98 97 98 98 96 98 98 93 78 59 46 42 39 32 27 23 21 24 27 26 25 25 25 22 22 22 24 30 36 39 41 46 52 50 57 56 53 48 44 42 48 55 61

GFSMA_prec_cthk_027.txt.gz
RH
50 49 48 48 47 46 46 47 48 49 50 51 49 44 39 35 31 28 26 25 25 25 24 23 24 23 22 21 20 21 22 23 23 22 22 22 21 22 22 20 19 19 19
47 50 47 47 48 47 45 45 47 49 50 52 50 47 43 38 33 30 28 28 28 27 26 26 27 27 27 26 24 25 25 24 24 24 25 25 26 25 24 22 20 19 20
50 48 47 46 49 49 45 46 48 51 52 54 52 49 45 41 36 33 31 30 32 32 31 31 32 31 30 32 33 33 33 33 32 32 32 31 29 27 26 27 26 26 27
54 50 47 46 47 48 47 49 51 52 54 55 53 50 46 41 37 34 32 32 34 36 34 34 33 34 35 35 35 37 39 39 37 36 35 34 34 33 32 31 30 28 27
61 53 47 48 49 50 51 52 53 56 58 59 54 49 44 40 36 35 34 34 35 35 35 37 37 36 36 37 37 36 35 34 35 35 35 33 32 31 32 33 34 34 34
63 61 57 54 52 52 55 56 56 59 62 61 55 48 41 38 35 35 35 36 36 37 38 39 39 39 39 38 37 36 34 32 31 30 29 28 26 26 29 31 30 31 32
62 62 63 63 58 56 62 58 57 63 64 62 54 46 41 39 36 36 36 38 39 40 40 40 40 40 39 38 38 37 35 34 33 31 30 30 29 31 32 31 31 30 30
59 64 67 69 67 67 62 62 66 67 67 63 53 45 42 40 40 38 37 39 41 42 43 44 43 43 42 41 40 39 36 35 33 31 30 29 31 32 32 31 31 31 32
56 68 70 73 78 76 71 71 67 67 68 65 58 48 45 44 43 42 41 41 43 45 46 47 46 46 45 44 43 42 41 40 38 33 30 29 30 32 30 30 30 31 33
51 59 65 72 79 81 75 73 72 68 71 68 65 59 55 51 50 49 48 47 48 48 50 50 50 50 48 46 44 44 44 41 39 35 30 28 29 33 32 32 33 33 36
51 57 60 61 67 76 80 79 79 78 77 75 72 69 66 63 60 57 55 53 53 54 53 53 53 53 52 49 46 47 47 44 41 37 32 29 28 33 33 32 32 32 32
44 55 61 62 63 76 83 86 89 89 86 86 88 81 77 72 69 64 63 63 60 62 62 60 57 58 57 53 49 50 49 47 42 37 32 30 31 35 34 33 31 30 30
46 48 60 68 67 71 80 88 90 90 92 94 95 90 83 79 73 73 71 70 67 68 68 65 64 61 60 58 54 52 51 47 41 37 33 29 30 30 30 31 30 30 29
48 57 58 64 74 77 78 83 91 93 94 96 94 86 85 81 87 82 81 78 75 72 77 71 67 67 67 62 59 56 53 46 42 36 33 30 26 23 22 23 29 28 27
41 48 61 62 69 78 85 89 94 96 95 95 92 89 85 88 82 85 88 90 84 82 76 72 76 78 74 68 63 60 52 46 42 38 33 30 27 24 22 24 29 29 27
44 49 60 68 69 76 83 91 95 93 96 94 91 87 88 86 86 91 91 89 88 88 86 87 85 83 80 72 69 59 51 44 41 37 33 29 26 25 29 32 31 30 29
39 44 53 60 72 76 81 88 88 98 96 94 91 86 87 88 92 93 89 95 94 92 88 86 86 83 80 76 68 57 49 44 38 35 30 26 27 28 33 33 32 32 32
45 44 45 53 61 67 77 88 95 96 96 93 85 86 90 90 98 98 93 93 94 88 91 95 90 82 77 68 60 54 48 42 37 31 30 29 28 28 28 30 33 35 34
49 43 51 51 53 64 71 82 92 93 95 91 87 88 98 92 93 94 89 81 96 98 97 90 82 73 68 59 53 49 44 38 34 31 28 28 30 31 31 31 33 34 30
59 52 47 50 51 57 64 70 79 83 85 85 88 89 88 94 95 98 96 97 97 96 89 81 77 70 59 51 47 40 37 38 33 29 30 32 33 34 35 35 35 32 29
66 61 58 55 55 58 65 67 69 73 80 92 98 98 93 98 98 99 94 90 89 83 79 73 66 57 50 46 42 39 36 32 31 29 32 35 36 37 38 37 32 31 32
73 71 68 67 67 66 68 79 82 85 96 99 98 97 94 94 98 93 89 87 81 70 58 53 50 42 37 36 33 33 32 33 33 35 36 38 38 34 33 34 37 38 38
72 66 62 67 71 71 78 93 91 85 93 97 97 96 95 93 89 84 76 59 50 42 39 37 31 30 31 32 32 30 29 30 32 34 34 29 35 32 37 42 44 43 42
72 69 73 80 84 86 96 82 84 85 92 96 95 97 90 82 66 51 46 35 27 23 23 24 27 27 27 26 26 27 27 29 28 31 38 34 39 41 44 46 46 44 42
78 78 95 96 98 95 98 96 95 97 97 90 84 64 44 36 29 21 17 18 18 21 22 21 19 19 20 21 20 23 28 34 35 40 48 49 51 47 44 50 49 44 46
93 97 98 98 97 98 98 98 91 78 59 45 36 27 18 15 14 15 20 19 20 18 15 14 14 15 16 20 28 34 39 42 48 54 57 56 51 52 52 60 62 62 62

GFSMA_prec_cthk_030.txt.gz
RH
54 53 55 52 51 51 47 43 41 43 46 48 49 45 44 41 38 37 38 28 27 26 26 25 25 25 25 24 23 22 22 21 22 23 24 24 24 23 23 23 22 22 21
56 56 55 51 55 53 49 46 44 42 45 49 50 47 45 44 41 37 39 31 29 28 28 29 29 28 27 27 28 28 29 29 28 30 29 27 26 25 25 26 26 26 25
59 60 58 49 54 55 52 51 47 43 45 48 51 50 47 45 42 37 36 37 30 29 29 30 30 30 30 31 33 33 34 34 35 34 33 33 33 33 32 32 31 29 26
62 63 63 55 53 50 49 50 47 45 46 49 52 53 49 47 43 39 35 31 32 31 31 32 31 31 32 33 34 34 34 34 34 34 34 34 33 32 32 31 30 30 30
58 62 62 61 62 53 48 48 47 48 49 51 55 55 51 48 43 38 34 32 31 32 33 33 32 32 33 33 34 34 34 33 32 31 31 30 28 27 27 27 28 28 29
56 61 65 62 63 57 52 50 52 52 52 54 57 57 52 48 42 36 35 32 31 33 35 36 35 34 35 35 35 34 34 33 32 31 31 30 29 27 28 30 32 31 31
54 60 62 68 69 65 61 59 60 54 54 58 60 58 54 47 42 37 35 35 34 34 36 37 37 37 38 37 37 37 35 35 34 34 32 30 29 29 31 32 30 30 30
47 53 57 60 65 69 67 67 67 64 58 60 64 61 56 49 42 38 37 37 37 36 37 39 40 40 41 41 41 40 38 36 36 37 35 34 32 32 35 33 31 30 29
43 46 50 56 59 67 71 73 74 72 67 67 69 63 57 52 49 45 42 42 42 41 42 43 44 45 45 45 44 44 42 40 39 39 38 36 34 35 35 34 33 32 32
44 50 54 54 57 63 72 77 79 80 75 74 75 70 64 56 52 54 52 50 50 49 48 49 48 48 49 49 48 48 46 44 43 42 41 39 37 36 37 37 35 33 32
37 43 52 64 63 67 68 73 81 84 82 79 76 77 75 70 64 61 62 64 61 58 56 55 55 55 54 53 52 52 50 50 50 46 44 42 39 38 38 36 34 34 32
38 40 44 55 61 64 69 71 75 78 79 81 85 86 85 84 79 77 76 76 70 68 65 65 65 64 63 62 60 56 55 55 55 51 46 45 42 41 42 38 36 34 32
32 39 46 49 53 60 68 74 75 79 82 87 91 91 91 91 89 84 84 80 76 79 72 73 73 73 72 67 64 63 62 59 59 55 50 47 41 37 34 32 34 34 33
31 32 37 45 53 58 65 72 77 82 88 91 95 95 95 95 95 93 85 82 81 81 81 75 79 81 75 72 67 67 67 65 63 59 55 48 43 40 34 32 30 30 34
37 41 38 42 50 58 68 72 76 84 89 92 92 92 94 95 94 92 85 87 84 81 82 82 86 82 77 74 74 76 74 68 68 62 57 49 44 38 36 33 28 31 33
42 46 50 48 51 59 63 71 79 85 91 96 97 95 98 96 94 91 89 86 89 87 88 88 84 81 88 88 90 88 80 75 70 65 56 50 44 41 37 35 35 34 33
48 49 49 51 60 60 69 70 73 82 87 94 95 95 98 96 94 93 88 87 91 93 93 93 95 95 96 93 96 93 87 77 68 64 59 51 46 40 36 35 33 35 36
58 55 55 54 56 61 67 75 76 80 86 89 90 93 91 96 91 89 92 92 97 98 97 98 97 98 95 95 88 83 81 78 76 64 52 47 40 34 29 28 29 33 33
70 67 65 61 61 60 60 64 73 79 81 87 87 94 94 94 97 98 96 93 93 97 95 98 98 98 92 82 84 81 75 71 62 48 43 37 32 28 27 27 28 29 29
75 71 71 66 63 61 66 65 67 70 77 80 87 87 94 98 94 90 92 92 93 97 98 97 92 88 85 80 74 66 59 50 45 43 35 33 29 26 26 27 28 29 30
71 69 74 76 70 68 69 71 69 73 75 76 77 76 82 80 83 86 97 98 97 95 94 90 87 77 68 60 54 49 43 40 33 30 28 28 29 28 28 28 27 27 28
79 83 84 78 75 72 70 70 69 69 75 73 72 77 87 87 96 98 98 94 93 86 78 67 62 51 46 41 37 33 31 28 25 22 23 25 28 26 27 26 26 28 29
80 82 83 83 80 77 78 78 76 73 72 90 98 84 86 86 90 88 89 78 65 54 44 35 31 28 27 28 25 22 21 21 21 21 26 27 30 30 32 32 36 39 40
70 76 74 75 75 75 76 80 78 81 89 94 94 91 88 79 76 65 52 40 25 22 22 21 22 20 19 18 19 20 20 21 24 28 34 35 39 42 47 49 48 44 43
78 76 77 78 87 85 93 92 92 90 96 97 92 82 69 56 40 26 25 19 18 20 15 12 12 11 12 13 15 21 22 30 35 39 46 51 53 50 50 46 46 51 53
86 86 84 95 96 97 98 98 97 88 78 65 50 35 24 18 15 15 17 15 12 10 10 11 16 13 13 15 21 31 37 42 49 53 55 53 54 53 45 48 54 58 59

GFSMA_prec_cthk_033.txt.gz
RH
59 60 61 60 56 53 50 47 43 40 39 40 43 45 44 44 43 43 44 34 30 29 28 26 25 24 24 23 22 21 22 23 23 23 23 22 23 23 24 24 24 24 23
62 62 61 63 64 60 56 52 50 45 40 41 42 44 45 46 46 44 45 37 33 31 29 27 26 25 26 26 26 28 28 29 30 30 30 30 29 31 31 29 28 27 26
60 62 62 61 61 62 61 57 54 48 43 42 43 44 46 47 47 45 46 42 34 31 28 27 28 29 29 28 29 29 30 30 30 31 31 31 31 32 32 32 32 32 32
54 61 65 61 64 63 63 63 58 52 47 44 43 43 46 48 49 47 47 43 38 32 28 29 30 30 30 30 30 31 32 31 31 30 29 29 28 28 27 27 26 26 26
50 55 60 62 62 67 68 66 62 61 51 45 45 46 48 49 50 49 47 42 39 36 31 30 31 31 32 32 32 33 33 33 32 31 30 29 28 27 27 26 25 25 25
45 49 54 61 60 60 63 64 62 62 58 50 50 50 51 52 53 50 47 43 38 33 33 31 31 32 33 34 34 34 35 35 34 32 31 31 30 30 28 28 30 30 31
46 47 48 54 59 58 63 66 66 65 63 61 57 56 52 54 53 51 49 45 38 33 32 34 34 34 35 36 36 36 37 37 37 34 34 33 32 32 33 36 36 35 33
40 46 46 47 54 56 61 65 66 67 68 68 65 65 58 56 56 55 51 47 41 36 35 35 37 38 39 39 40 40 41 41 40 39 37 36 35 35 36 40 39 37 35
40 45 46 46 49 54 56 62 65 69 69 70 75 72 66 61 60 58 52 49 46 43 41 41 43 44 45 45 45 45 45 45 44 43 42 40 38 38 40 45 43 41 39
35 43 49 48 53 58 59 63 66 72 78 76 83 80 74 70 67 64 60 53 53 51 49 49 50 51 52 52 51 51 51 50 48 47 47 47 44 43 45 47 48 45 41
33 34 46 52 51 54 59 66 73 71 75 77 85 87 87 84 79 74 69 64 64 64 61 60 65 61 61 59 57 58 58 56 52 50 51 49 47 47 51 53 51 48 45
37 39 41 45 50 54 54 57 67 77 83 82 82 88 89 88 85 80 78 75 78 76 73 72 76 70 69 70 63 64 67 68 65 62 60 59 58 53 51 51 50 50 45
40 40 41 43 45 51 56 60 62 63 71 82 85 83 85 89 88 92 92 84 83 82 82 82 80 76 78 75 70 72 72 74 72 69 68 66 63 59 56 52 47 43 44
36 38 39 41 43 48 52 58 62 63 66 70 82 88 89 93 93 95 96 92 87 85 85 84 82 83 81 78 75 78 77 76 75 76 71 72 72 68 63 58 52 47 44
37 40 41 41 42 44 51 60 62 62 65 72 80 86 92 94 96 94 91 91 88 96 92 86 84 85 79 86 80 84 80 78 78 85 82 80 75 71 67 60 54 49 46
39 35 43 49 53 50 54 59 62 68 71 71 76 85 91 97 98 97 92 96 96 93 90 91 90 91 85 87 90 91 92 89 86 88 85 77 73 74 73 66 60 54 48
44 44 50 54 61 64 63 65 66 71 78 78 83 87 95 99 100 97 97 94 97 97 95 97 95 91 90 94 97 97 95 90 86 78 77 74 72 71 71 66 58 51 50
48 54 62 67 71 73 70 63 63 73 78 84 89 91 93 95 94 93 92 99 95 96 97 98 97 92 90 93 95 92 89 85 83 80 74 69 62 59 55 48 41 40 39
53 62 73 76 80 78 78 74 69 70 75 86 93 97 97 96 94 94 90 90 98 97 98 98 96 90 94 97 94 91 88 80 71 63 59 59 52 45 39 36 36 32 32
58 68 77 81 82 80 80 75 73 71 73 76 84 95 97 97 97 90 98 96 97 93 87 95 91 90 96 89 83 76 67 61 50 42 37 31 28 20 20 22 20 20 20
54 58 66 73 78 79 82 80 78 72 73 80 82 86 90 93 87 82 81 81 81 85 89 96 96 89 79 70 61 48 38 29 23 19 16 14 13 17 17 17 17 18 19
51 60 69 78 83 85 87 85 81 79 78 86 88 86 90 86 84 77 77 84 86 85 77 73 63 57 50 33 31 30 23 19 15 10 14 12 16 17 18 20 22 24 26
56 61 69 75 80 82 84 85 83 83 82 85 90 88 81 80 79 81 84 84 72 61 53 44 37 30 27 21 17 16 14 16 16 14 21 18 22 23 26 29 33 36 37
64 64 66 67 73 80 82 79 77 78 80 83 78 80 85 98 94 85 71 62 44 31 25 20 18 16 15 16 16 17 18 19 19 25 32 31 34 36 38 39 39 38 37
76 79 77 79 82 86 90 88 82 85 96 81 86 94 89 73 59 45 25 18 16 16 16 12 11 10 10 10 12 14 17 27 30 35 38 39 40 40 40 38 37 38 42
77 80 83 84 85 93 92 92 96 97 91 84 67 61 47 28 18 15 14 19 17 14 13 11 15 15 14 15 20 28 33 36 41 44 44 44 45 46 41 40 42 43 44

GFSMA_prec_cthk_036.txt.gz
RH
48 48 50 53 51 50 52 51 46 44 41 40 39 38 39 39 41 40 41 40 36 33 30 28 26 25 23 22 22 20 21 22 23 24 25 25 24 25 23 23 24 25 24
47 49 50 53 56 56 57 56 56 52 49 44 43 43 42 41 41 42 43 41 38 34 31 29 27 25 24 25 24 24 25 26 26 27 28 29 29 30 30 30 29 30 31
45 45 47 49 53 56 61 62 58 57 57 52 50 44 43 43 42 42 42 42 40 37 32 31 29 26 26 27 27 27 27 28 27 27 27 27 27 27 27 27 27 27 28
42 44 45 47 52 57 62 65 61 60 58 57 56 53 46 43 43 44 44 44 43 41 35 32 29 28 28 29 29 29 30 30 30 29 28 27 26 26 25 24 24 24 24
38 41 45 47 47 52 55 61 61 64 64 64 62 57 56 50 45 46 46 46 45 43 37 33 31 29 30 30 31 32 32 32 32 32 31 30 29 28 26 26 26 26 27
36 39 44 48 49 50 52 55 57 59 60 60 62 61 58 57 55 51 48 48 47 45 42 36 32 30 31 31 32 33 34 35 35 35 34 34 32 31 31 30 30 33 35
42 37 42 45 50 49 50 53 56 59 61 63 64 64 62 62 63 59 55 52 50 47 45 41 35 32 33 35 35 36 37 37 38 38 38 37 36 35 34 34 35 37 37
45 50 45 43 47 50 49 55 54 58 61 64 66 68 65 65 66 67 63 60 56 54 48 44 40 37 35 37 39 40 41 42 42 42 42 41 41 40 39 38 37 39 43
40 44 48 55 52 54 55 52 58 62 66 71 72 73 70 69 71 73 71 69 66 60 56 48 45 43 44 44 46 46 48 48 48 48 47 46 45 45 44 45 45 47 49
27 29 38 46 55 57 58 56 56 61 68 68 72 74 77 76 78 77 77 76 75 70 66 62 55 53 54 56 54 56 58 57 56 55 55 53 52 50 49 49 50 52 55
29 29 32 34 45 54 59 63 63 58 62 67 70 73 76 81 83 85 82 84 85 80 75 72 65 61 64 64 65 68 70 70 68 64 64 64 65 64 60 57 59 61 58
34 35 39 39 42 48 53 56 60 66 65 64 67 76 79 83 88 88 87 87 88 89 85 76 74 74 73 73 73 73 76 80 76 72 72 68 68 70 67 65 63 61 59
45 47 47 44 46 51 56 58 63 69 70 68 65 66 74 84 87 94 95 90 90 90 88 84 81 80 81 80 80 85 82 82 80 80 76 74 73 74 71 68 66 63 62
40 42 46 41 38 41 46 53 57 61 74 72 75 73 72 79 82 88 95 96 93 91 86 84 91 89 87 87 89 87 88 88 82 82 83 78 76 78 80 72 71 67 61
34 35 36 38 39 41 46 49 53 60 63 67 70 81 80 77 85 87 92 95 92 87 96 88 86 88 91 95 95 93 94 87 91 92 91 92 91 87 78 72 71 70 62
38 38 35 35 39 45 50 57 64 71 78 79 81 81 84 88 87 91 94 97 87 92 96 94 90 97 97 97 96 97 97 94 97 96 96 95 89 81 76 70 67 65 63
40 39 38 37 38 40 47 59 68 70 78 88 94 93 86 88 95 96 93 94 97 91 98 97 98 98 98 98 98 98 96 96 94 92 91 88 82 77 74 66 59 57 52
40 38 37 38 39 45 55 69 77 77 81 80 84 87 92 91 95 98 97 93 94 97 99 93 98 98 98 96 96 94 92 91 88 92 90 81 70 64 54 46 40 37 38
39 39 39 41 42 48 57 69 79 84 82 85 83 82 85 89 94 97 92 89 90 89 94 97 97 98 94 95 96 91 90 93 87 79 67 57 45 34 27 23 20 18 18
42 44 41 43 46 51 60 68 71 84 84 84 87 84 83 86 86 91 98 97 97 95 91 95 95 92 92 90 87 76 73 64 54 38 32 25 16 14 11 13 14 15 16
48 46 44 47 51 56 61 66 73 78 80 86 85 84 83 85 88 83 88 96 96 88 89 88 85 87 81 69 61 50 35 25 19 14 12 6 8 8 9 12 13 15 16
49 48 47 48 50 55 60 66 74 78 83 82 84 82 87 90 88 86 87 92 87 86 80 79 78 62 46 36 27 20 18 15 11 7 8 7 12 14 16 19 20 22 27
56 54 56 55 55 59 62 68 72 78 83 84 82 84 94 95 90 86 85 85 80 74 73 67 41 26 20 19 14 12 11 11 10 10 15 17 21 23 26 28 30 32 32
62 62 64 64 68 70 73 77 83 82 82 81 85 95 89 88 91 92 91 80 67 49 32 23 16 12 11 11 12 12 12 12 14 20 24 25 28 30 32 34 34 34 33
63 66 68 69 71 74 78 79 81 85 84 86 96 86 79 77 60 52 39 28 23 18 17 15 12 9 9 10 10 12 14 20 25 29 31 33 34 33 35 38 38 38 38
58 63 65 65 60 59 60 60 56 57 49 46 48 46 41 27 20 16 14 15 15 14 13 11 11 11 12 13 16 22 27 31 34 36 37 37 38 38 36 41 42 41 40

GFSMA_prec_cthk_039.txt.gz
RH
40 42 42 43 42 45 47 48 47 48 47 49 49 45 42 39 38 36 38 38 38 37 34 31 27 27 25 24 22 21 21 20 21 22 22 23 24 25 26 26 25 24 24
41 40 42 44 47 48 50 51 54 56 55 51 50 50 50 47 42 39 39 40 39 41 37 34 29 28 27 26 23 24 24 24 25 25 24 25 25 25 26 27 28 28 29
37 38 39 39 39 42 46 48 54 56 58 57 56 56 55 54 52 49 42 41 42 42 40 37 33 30 29 28 26 26 26 26 27 27 27 26 25 24 24 24 24 24 24
34 36 37 36 39 41 44 48 51 52 54 57 58 58 58 58 56 55 54 47 44 45 43 41 37 33 31 30 28 28 28 29 30 30 29 29 28 27 26 25 24 24 23
37 39 39 36 37 40 43 48 52 51 51 52 55 55 58 59 58 57 57 55 51 49 46 44 41 36 34 33 30 30 31 32 32 33 33 32 32 32 30 28 28 26 26
44 44 43 46 46 45 46 50 52 55 55 54 58 57 54 56 55 57 57 59 60 57 55 49 45 40 38 36 33 33 33 33 34 36 37 36 36 36 35 33 32 32 32
46 44 50 53 55 55 50 50 54 61 59 62 64 62 57 57 55 59 60 61 62 64 62 59 52 47 43 40 38 35 37 38 38 39 40 40 41 41 40 39 38 38 38
37 42 46 50 50 56 58 59 63 68 70 69 71 73 63 62 65 69 66 65 66 67 68 69 62 54 49 45 44 42 39 40 41 43 45 46 45 45 45 44 43 43 44
28 33 37 46 48 55 54 59 67 64 67 68 66 75 72 69 70 71 71 73 74 74 72 74 74 67 60 53 48 48 49 52 50 52 51 52 52 51 50 50 49 49 49
27 30 32 36 41 48 47 49 52 59 69 68 72 72 76 76 77 74 75 77 81 81 79 80 82 78 71 64 58 59 58 61 63 60 60 61 60 59 60 61 62 64 60
27 30 31 30 34 37 40 44 50 55 58 72 74 71 74 76 78 78 80 82 83 85 87 87 84 82 79 75 72 67 65 67 69 69 68 69 71 72 68 72 73 66 65
22 27 31 38 39 45 49 51 57 58 61 74 77 81 81 82 81 81 78 82 89 90 89 90 93 92 82 79 76 73 72 74 77 80 76 79 86 78 79 74 71 71 73
30 35 36 44 44 50 48 45 46 48 54 59 66 75 86 84 98 89 84 80 83 89 91 89 95 90 86 85 82 80 78 78 81 80 87 92 91 85 81 78 77 79 77
27 33 35 37 39 38 38 39 47 46 47 50 58 65 71 90 95 95 97 94 90 87 86 84 94 88 91 88 82 82 94 92 83 92 96 96 91 92 91 88 88 84 80
31 31 30 32 37 38 35 37 38 44 47 49 54 62 70 77 79 90 94 98 98 93 90 83 87 93 94 93 96 96 93 94 98 98 98 98 97 96 97 93 84 85 82
34 38 39 38 36 33 33 36 37 39 44 50 57 67 80 85 93 98 96 95 97 97 88 95 91 96 96 97 98 98 98 98 98 98 98 98 97 93 91 90 84 79 75
37 38 38 36 33 34 34 34 37 39 43 47 58 72 75 76 84 88 97 98 96 97 95 92 95 93 92 98 99 96 97 97 97 98 97 96 92 89 83 81 75 73 66
41 40 39 37 37 34 33 37 41 46 49 55 62 72 75 77 85 88 96 95 99 97 99 99 96 98 99 99 97 95 95 97 98 97 95 92 90 79 77 68 59 54 47
39 39 39 39 38 36 38 40 44 49 52 60 65 75 77 75 81 87 89 94 97 99 97 95 97 97 99 97 95 96 98 98 93 89 76 67 56 47 36 26 23 23 24
43 43 43 41 38 40 43 44 46 51 56 60 65 69 75 81 81 83 87 89 91 95 96 98 96 98 98 96 97 96 90 80 67 47 32 22 18 13 10 9 9 10 11
47 46 44 43 41 43 44 46 48 52 58 62 69 74 77 79 78 83 87 90 91 92 90 95 98 97 94 93 95 77 52 32 18 18 13 9 8 7 8 10 11 13 14
46 46 45 45 48 48 49 51 55 59 61 63 69 72 75 80 85 89 91 90 88 86 85 90 91 87 84 66 42 25 16 12 8 10 8 7 10 12 15 17 19 21 22
47 48 48 52 55 59 60 62 64 66 67 67 69 72 82 90 89 91 93 92 92 89 94 89 67 48 38 23 15 12 12 12 11 11 13 14 18 20 22 24 26 28 29
53 53 54 55 55 58 60 62 64 68 72 74 77 80 83 83 88 85 84 81 64 54 38 27 20 15 13 14 16 14 13 13 13 16 20 21 23 26 28 30 30 31 33
52 52 50 50 43 38 40 37 35 35 35 40 49 51 53 48 41 30 23 20 17 17 16 16 16 15 14 14 14 13 14 17 21 24 26 27 29 30 31 34 35 36 37
43 36 31 25 19 15 13 12 11 11 11 11 11 11 11 10 10 10 9 10 12 13 14 14 14 12 11 12 14 17 23 26 29 31 31 32 33 34 33 37 39 39 39

GFSMA_prec_cthk_042.txt.gz
RH
39 42 43 44 43 41 42 40 38 42 45 46 49 50 49 49 48 48 45 40 38 39 39 38 34 31 27 27 27 25 23 22 22 22 22 23 23 24 24 25 26 26 26
39 40 41 42 44 45 45 46 44 44 45 46 48 51 53 53 53 53 53 52 49 43 40 41 39 35 31 29 29 28 26 25 26 25 26 26 25 25 25 25 25 25 26
33 32 33 34 36 38 40 40 43 45 48 50 52 52 52 52 54 56 57 58 56 54 52 44 44 40 36 32 31 30 30 28 28 28 28 28 28 27 25 24 24 23 23
33 32 33 33 34 37 38 38 38 40 43 46 50 52 52 51 50 51 54 56 56 58 57 54 49 46 42 37 33 33 33 31 31 31 31 31 30 30 29 28 26 25 24
35 40 40 39 41 43 42 44 45 46 46 47 49 54 55 55 53 52 50 50 52 55 61 62 60 55 48 44 39 37 35 35 33 33 34 34 34 34 33 33 31 30 28
47 50 51 52 51 50 50 55 55 56 57 57 57 60 62 60 60 57 55 55 56 57 60 65 65 66 59 50 45 42 40 38 36 35 36 35 35 36 36 36 35 35 34
48 50 51 45 43 46 47 51 64 61 67 70 74 76 73 71 70 68 68 63 60 64 65 67 68 68 68 63 53 47 45 45 41 39 39 39 39 39 39 39 39 39 39
33 33 38 42 43 45 50 51 58 57 64 71 77 82 79 71 68 67 68 70 71 73 73 75 73 73 72 71 67 60 51 49 48 47 43 43 44 43 44 43 43 44 44
26 31 33 31 33 36 36 40 49 59 59 64 67 72 70 66 68 67 69 71 72 74 75 77 82 84 82 81 77 73 65 59 55 58 58 56 55 55 51 51 50 51 52
23 24 27 30 31 33 35 37 40 48 50 52 60 64 71 71 74 71 67 72 73 76 77 81 84 89 88 87 85 80 74 66 66 67 66 70 67 68 64 63 64 63 65
20 22 25 27 32 36 34 37 39 40 46 55 59 68 70 66 67 85 72 76 80 83 83 85 88 89 92 88 92 87 78 82 78 73 73 76 78 80 81 79 76 78 72
16 18 19 21 26 37 42 49 52 52 47 50 60 63 67 72 69 80 78 82 94 96 91 92 87 89 92 92 97 96 93 85 77 79 76 75 78 82 88 92 91 92 83
17 19 22 27 35 37 46 47 41 44 40 42 45 46 49 52 55 63 72 80 92 93 85 95 93 87 86 96 96 97 95 91 86 87 88 81 77 87 91 94 96 95 92
26 26 27 31 36 34 34 34 37 39 36 41 43 44 45 48 52 55 62 68 74 85 93 95 97 92 88 87 91 98 95 97 95 94 92 95 98 98 97 97 98 98 98
29 30 29 29 32 37 40 39 35 34 36 37 37 42 44 46 51 55 63 72 80 84 87 90 94 97 96 89 91 92 97 97 96 97 98 98 98 97 98 98 98 98 98
26 29 32 35 38 36 34 32 32 31 31 32 35 38 41 44 46 57 68 76 79 82 84 89 96 95 96 91 91 97 96 96 95 98 98 98 98 97 98 98 98 98 97
31 33 36 39 38 36 35 34 33 32 34 35 37 39 43 48 54 64 70 74 80 86 88 97 99 97 95 95 90 95 97 98 98 97 96 95 96 97 98 98 96 93 93
37 39 41 40 38 36 36 36 35 37 38 40 41 44 48 53 57 64 72 75 80 83 91 96 99 98 95 95 92 98 96 98 97 97 95 97 92 91 92 94 91 81 72
41 44 42 39 38 38 38 36 37 39 41 42 44 47 50 54 58 64 68 73 76 84 90 92 94 98 95 98 99 98 97 97 97 95 95 93 84 79 69 52 38 30 22
44 41 42 42 40 39 38 38 40 42 44 46 46 49 52 57 62 66 71 71 78 82 90 90 89 92 97 97 96 94 94 96 95 93 83 65 44 24 16 12 9 8 7
43 44 43 42 41 39 38 40 42 44 47 48 48 48 53 60 65 67 73 81 85 94 90 89 86 87 92 92 90 89 89 88 76 46 24 19 16 8 6 7 8 10 11
43 43 43 41 41 42 44 46 50 51 53 54 56 55 58 63 66 70 76 87 89 91 93 88 87 90 91 92 87 75 50 32 22 14 9 8 8 8 10 14 15 16 18
43 43 45 47 48 50 52 54 53 52 51 57 61 65 66 66 70 71 71 73 79 79 82 80 75 63 44 28 23 17 13 11 11 11 12 9 14 16 19 21 22 21 22
47 47 48 44 39 39 39 38 35 32 31 31 35 39 42 45 48 50 50 46 38 31 22 17 15 15 15 14 14 13 13 13 13 11 14 19 21 22 24 26 26 26 28
46 47 41 32 25 20 16 14 13 11 12 12 13 13 13 12 12 12 13 13 13 13 14 14 15 15 16 16 17 17 16 15 15 20 23 24 26 28 29 29 29 30 32
32 26 24 18 14 13 12 12 11 12 12 12 13 14 14 14 15 15 15 16 16 18 19 20 20 20 18 17 18 19 20 26 29 30 31 32 32 33 33 34 35 36 37

GFSMA_prec_cthk_045.txt.gz
RH
37 36 38 40 41 42 42 43 42 40 39 39 39 40 42 43 47 50 52 53 53 54 54 53 45 39 36 33 31 28 27 26 27 26 25 24 24 24 24 25 25 26 26
37 38 38 38 39 40 41 41 41 42 41 43 44 44 45 45 45 46 48 49 52 54 57 58 57 53 44 38 36 32 29 30 30 30 28 28 27 27 26 25 25 25 25
33 33 33 33 33 35 36 36 38 39 40 42 43 47 49 49 49 47 48 48 49 51 54 58 58 60 57 47 43 39 34 32 34 33 31 31 30 29 28 27 26 25 24
36 35 32 31 33 38 39 38 41 43 44 47 48 49 51 53 54 53 52 52 54 54 54 53 54 56 63 63 54 50 41 37 37 36 34 33 33 32 31 30 29 27 26
35 35 34 36 43 49 48 49 50 51 49 53 54 55 58 58 59 61 62 64 61 61 60 59 58 57 59 65 69 65 55 44 39 38 38 36 34 35 35 35 34 32 31
35 41 52 56 54 54 51 45 43 46 50 55 64 66 68 71 70 70 72 75 74 70 69 68 68 65 64 65 67 72 67 61 48 42 42 41 38 37 38 38 37 37 37
46 49 51 46 42 40 43 47 46 50 56 63 66 64 65 70 72 76 78 74 72 71 73 75 76 78 78 78 75 72 74 71 65 54 48 46 46 42 41 41 41 41 42
31 35 38 48 45 42 40 38 37 38 43 51 64 64 65 65 65 65 66 65 68 71 72 76 78 80 84 86 86 81 75 76 75 69 61 55 51 51 47 47 47 47 47
28 30 29 29 29 31 31 32 36 39 41 42 45 55 60 55 56 57 60 66 69 71 72 79 79 80 83 87 91 90 86 81 78 76 72 69 68 66 62 56 55 61 64
23 25 25 26 27 28 30 32 34 34 37 40 42 45 50 53 54 55 63 64 66 70 74 93 83 80 84 89 89 91 93 85 79 75 75 80 80 75 73 70 68 72 74
21 22 22 23 23 26 28 30 34 36 40 45 49 54 56 57 66 76 59 59 66 68 79 85 86 85 91 94 94 91 91 95 92 86 84 84 82 82 78 77 77 78 82
18 18 17 18 18 22 27 35 40 45 48 53 53 44 48 53 55 52 50 51 51 51 54 67 69 85 90 95 96 95 95 95 97 96 97 97 95 89 86 83 81 82 83
18 18 18 19 23 29 34 41 39 46 45 38 40 38 37 41 43 45 51 50 53 50 53 55 58 62 75 87 96 96 95 97 98 98 97 98 97 97 95 90 84 83 89
24 24 26 27 29 33 41 39 38 37 38 40 36 38 38 41 43 44 46 50 51 53 51 57 61 63 67 72 96 96 97 97 100 98 97 99 96 96 96 97 96 97 98
26 27 30 33 31 30 31 35 40 42 38 34 35 36 37 39 40 39 45 45 50 56 55 59 64 66 73 75 80 96 98 99 99 96 98 97 96 95 94 96 97 97 97
28 28 28 31 30 32 35 35 34 33 33 33 33 32 34 36 39 40 42 45 52 59 63 64 69 70 79 93 90 95 98 99 98 98 97 96 95 94 92 93 96 97 97
32 33 33 33 35 36 37 36 35 34 34 34 33 34 35 38 42 43 45 49 57 62 65 68 73 85 90 95 97 97 97 94 96 98 97 97 96 97 98 96 94 95 94
37 37 37 38 38 39 39 36 35 36 36 34 34 36 38 42 43 45 48 51 56 60 63 68 70 82 89 90 97 96 98 96 98 98 97 98 97 97 98 97 96 94 93
40 41 43 43 43 40 37 37 37 36 35 35 35 39 42 43 45 47 51 54 57 60 66 70 76 78 81 83 95 97 98 97 98 98 96 96 96 97 96 95 91 82 63
44 45 44 41 39 39 39 38 37 35 36 36 38 41 44 44 46 49 49 51 57 64 70 78 76 76 76 77 86 94 93 92 92 92 93 94 91 85 78 57 37 23 15
42 42 42 42 40 39 38 37 37 39 40 42 43 46 48 47 49 49 53 54 60 65 70 78 83 79 79 82 85 89 90 88 86 85 82 73 50 28 18 12 7 6 7
42 42 40 40 40 42 42 44 45 46 47 47 50 53 54 54 54 54 52 52 53 53 55 58 59 63 65 64 65 59 52 41 31 20 15 11 9 7 7 8 10 12 14
43 43 43 44 43 41 41 42 42 36 31 30 30 33 37 38 38 39 40 41 44 46 47 47 46 42 37 30 25 20 18 16 14 14 13 10 10 11 13 15 16 17 19
44 46 45 42 34 28 23 20 17 15 15 16 19 22 23 24 25 25 25 24 23 20 19 18 18 18 18 19 19 19 18 18 17 15 15 15 19 20 20 21 21 22 23
46 46 39 27 18 15 14 12 11 11 11 12 13 13 14 15 15 15 16 17 17 17 18 19 20 21 21 21 22 19 18 18 16 17 22 25 25 25 26 26 25 25 26
31 27 26 23 19 15 14 14 14 14 15 16 16 17 18 19 20 20 20 20 19 19 19 20 21 22 22 21 19 18 16 15 20 23 25 26 26 27 28 29 30 32 33

GFSMA_prec_cthk_048.txt.gz
RH
33 34 33 36 39 40 40 40 41 41 41 40 39 39 39 39 39 40 43 44 45 46 46 48 51 53 54 51 43 38 36 31 29 29 30 30 29 26 26 26 25 26 27
36 37 37 38 38 37 37 36 36 36 37 38 41 44 46 46 47 47 47 47 49 49 50 50 50 51 51 54 53 48 42 36 32 32 33 33 33 29 29 28 27 26 26
35 34 34 33 34 34 34 36 40 42 42 45 46 49 50 52 53 54 55 53 54 54 55 55 56 56 54 56 56 56 50 46 40 35 34 35 35 34 31 31 30 29 28
34 34 34 34 35 35 37 44 49 50 50 49 48 48 50 54 56 60 62 64 68 69 70 69 67 65 64 62 62 63 62 57 52 46 40 38 38 38 36 34 33 32 31
34 34 34 34 37 42 51 55 54 53 48 45 47 49 53 57 63 64 65 67 70 74 77 79 76 73 71 68 68 69 69 69 62 55 51 46 42 42 41 38 38 38 37
34 35 35 38 48 55 54 49 48 45 44 44 44 51 57 62 64 67 69 74 77 79 78 75 76 73 71 72 73 76 77 79 75 67 60 55 51 45 45 45 42 42 43
32 34 36 38 41 43 43 44 42 43 41 41 38 38 43 49 54 56 61 65 67 67 69 70 70 73 71 71 74 80 83 87 86 82 71 65 59 57 53 51 54 49 51
29 29 31 34 33 36 39 40 36 35 34 34 38 40 41 40 40 45 52 56 55 56 58 63 69 69 68 69 74 84 83 88 92 90 91 78 71 70 67 65 61 60 57
31 31 31 30 30 31 31 31 33 34 34 34 36 41 43 41 42 43 44 48 48 52 61 62 64 69 72 72 75 88 89 83 87 92 92 92 83 75 73 73 71 71 68
28 27 26 25 26 27 27 29 31 31 33 34 36 36 40 44 50 51 51 50 54 57 63 56 61 66 69 74 84 94 96 89 88 90 97 96 97 91 83 83 80 77 77
23 23 22 22 22 22 22 24 29 30 32 36 40 45 47 52 51 49 45 43 45 47 45 46 44 48 55 58 65 85 91 95 84 96 98 93 94 98 98 93 88 85 86
19 18 19 19 19 19 19 21 27 29 35 46 49 48 44 44 38 39 39 39 41 38 39 39 42 45 49 53 59 65 71 80 92 90 98 97 93 95 98 98 95 91 82
20 20 21 21 20 20 21 25 29 37 48 49 40 38 37 37 38 39 39 39 39 40 39 36 41 43 49 53 58 62 65 66 77 91 95 98 98 97 98 98 97 98 96
24 25 25 26 27 29 30 34 40 51 49 41 42 45 40 38 41 40 40 41 41 41 39 40 40 45 50 54 59 62 64 67 69 80 91 98 98 97 98 97 97 96 97
27 27 27 27 30 31 32 34 35 36 38 41 43 38 37 39 38 36 39 39 43 43 42 41 44 45 50 55 62 67 73 83 82 76 85 96 96 98 98 98 98 95 93
30 30 29 29 32 33 32 32 33 35 35 36 37 36 35 34 32 36 42 42 42 44 44 43 46 46 50 55 68 78 89 93 91 87 92 97 97 97 96 97 98 96 94
33 33 33 34 36 36 37 37 38 38 38 38 37 36 35 33 34 39 43 43 44 45 45 46 47 48 53 58 64 74 91 97 97 95 94 97 95 95 96 97 98 97 98
34 34 38 40 39 41 41 42 42 39 38 38 37 35 35 35 37 41 42 44 44 47 46 49 52 57 60 61 62 67 84 97 95 97 97 96 96 96 97 98 98 98 98
37 39 41 43 43 44 43 40 39 39 39 39 37 36 36 38 40 42 44 45 46 47 45 47 54 63 62 61 62 65 72 86 88 92 92 92 97 98 98 98 97 97 96
43 44 44 43 42 39 39 40 39 39 38 37 38 38 39 41 43 45 46 46 47 44 43 47 49 51 57 62 66 72 77 81 82 81 85 90 93 95 96 94 89 81 66
43 42 41 42 41 38 38 38 38 38 39 41 44 45 46 48 48 48 47 46 43 44 44 46 47 47 48 49 51 49 49 52 51 53 58 61 60 55 44 32 22 15 10
45 42 40 39 38 41 43 43 43 44 44 38 31 30 34 36 36 35 34 34 35 38 40 42 43 44 44 43 42 40 36 32 28 22 19 17 15 13 12 10 9 9 10
44 41 40 41 40 40 36 33 31 27 24 22 21 23 23 24 26 28 29 30 32 32 32 29 26 24 22 20 19 19 19 19 18 17 17 14 14 14 14 14 15 18 19
44 44 42 39 31 23 16 14 13 12 11 11 11 12 14 15 15 16 17 17 18 18 18 18 18 19 20 20 21 19 19 18 16 15 14 12 12 13 15 17 18 20 22
47 45 38 24 19 17 17 15 14 13 13 14 15 16 17 17 19 19 21 22 23 22 22 22 22 23 23 23 23 19 17 16 14 14 15 17 17 18 19 19 20 21 22
40 28 23 21 21 21 20 19 19 19 19 19 20 21 21 22 24 26 26 27 26 25 24 23 23 21 20 18 17 16 15 14 16 19 21 22 23 24 24 24 25 27 28

GFSMA_prec_cthk_051.txt.gz
RH
29 30 30 31 33 35 38 39 38 36 36 38 38 40 43 44 45 44 45 45 46 47 48 48 48 49 49 48 48 46 42 40 37 33 32 32 30 29 29 29 26 26 27
32 35 36 35 35 36 35 35 34 34 38 41 44 44 45 44 44 45 47 49 50 52 53 53 56 58 59 60 58 57 53 46 44 42 36 35 37 34 33 32 31 29 29
33 35 34 34 35 34 35 34 34 37 43 46 46 46 44 44 44 46 49 52 58 61 63 63 62 62 64 66 67 66 64 61 52 47 44 41 39 42 38 36 36 33 32
32 34 34 35 37 37 35 35 39 47 50 47 45 44 45 45 47 52 54 58 59 62 63 66 70 72 71 71 70 69 64 66 64 55 54 51 48 45 46 40 39 39 35
33 33 33 35 37 38 38 40 47 50 48 46 45 43 42 43 44 52 57 63 66 67 67 68 70 69 68 67 66 70 69 67 68 70 64 59 55 52 50 50 46 44 43
35 34 34 35 37 38 40 44 44 45 45 43 41 40 41 38 37 43 46 49 54 56 60 65 66 66 65 66 65 66 70 70 70 73 76 71 64 59 59 57 55 51 51
36 34 33 32 35 36 36 36 37 38 37 40 38 30 28 30 33 35 37 40 44 49 53 57 57 58 61 62 62 65 67 71 71 71 84 90 81 69 68 68 69 66 61
33 32 30 29 29 32 32 33 35 34 32 31 34 35 35 32 33 36 37 39 40 44 49 51 51 53 57 60 63 65 67 71 74 78 81 87 91 88 75 72 73 74 72
35 35 36 36 37 36 33 35 33 33 32 32 32 35 36 35 34 35 38 40 43 47 50 52 52 53 65 60 56 59 64 69 74 78 86 89 92 90 89 83 75 82 79
27 28 28 28 28 27 26 26 27 28 30 31 33 32 34 39 44 46 47 46 43 44 40 41 43 42 42 43 49 55 55 59 67 71 90 94 97 97 86 87 91 86 85
23 24 24 23 23 22 20 21 22 23 25 31 30 34 39 44 44 44 40 39 40 36 39 39 38 38 39 41 42 45 49 52 54 61 66 85 96 97 96 93 92 98 93
21 20 20 19 19 18 19 20 21 21 26 32 36 40 45 46 39 41 40 40 42 38 33 35 38 37 36 39 40 45 47 49 54 62 67 74 77 75 86 96 97 96 97
21 22 21 21 20 21 22 22 23 27 30 36 42 44 48 40 42 42 39 41 42 37 34 33 35 37 38 38 40 42 45 49 53 59 66 72 78 75 83 93 98 98 98
22 22 23 24 25 27 29 31 31 35 35 40 45 48 42 41 43 38 39 40 38 37 37 37 37 40 40 40 40 41 45 52 62 74 81 90 91 81 89 87 96 98 98
25 26 27 27 27 30 32 32 31 33 35 38 41 41 42 40 37 40 38 37 38 40 40 40 41 42 43 41 41 42 44 55 69 81 81 88 98 91 81 92 97 98 98
29 30 31 30 32 33 33 33 33 35 35 37 38 37 37 38 38 39 37 37 39 41 44 43 43 43 42 43 44 47 50 58 68 82 88 88 87 85 92 95 97 98 97
34 34 34 35 37 35 36 38 38 38 38 39 40 38 37 37 37 35 35 37 41 42 43 45 45 43 44 47 50 50 50 54 66 80 87 91 95 97 97 98 96 97 96
38 38 38 38 36 38 41 42 43 43 42 39 38 38 38 36 36 36 37 39 42 44 44 45 40 38 42 48 51 53 54 57 64 71 78 85 88 94 95 94 95 96 96
42 40 37 37 40 44 44 44 41 40 40 38 38 37 37 37 38 38 38 42 44 44 45 40 35 39 41 42 44 47 52 56 62 65 71 74 81 85 91 93 95 95 92
42 41 41 44 45 45 42 40 39 39 39 38 38 40 40 42 42 42 43 44 45 45 41 38 37 39 39 39 39 40 41 42 42 45 47 51 59 66 73 79 81 83 85
43 44 44 42 42 41 39 38 37 38 39 41 43 38 33 36 39 38 38 37 36 34 33 34 35 36 37 37 37 37 37 37 35 33 33 32 32 31 30 30 29 24 20
46 46 45 42 38 39 39 39 41 42 40 35 30 26 25 24 25 26 26 27 28 28 30 33 34 34 32 29 25 21 19 18 19 18 17 16 16 14 14 14 14 13 12
48 45 43 41 41 39 32 28 26 23 21 19 17 17 17 18 19 19 19 17 17 18 19 20 20 20 19 20 19 19 19 19 18 17 15 12 12 12 12 11 10 11 12
49 46 42 42 34 22 15 14 14 14 14 13 13 14 15 16 16 17 17 19 21 23 25 24 24 23 22 22 20 19 19 17 15 14 13 12 13 14 15 15 15 17 18
49 47 43 31 20 16 16 16 15 16 17 19 19 20 20 21 21 21 22 24 26 27 28 26 25 24 22 21 20 19 18 17 16 15 17 18 19 20 20 20 21 22 23
48 41 30 23 19 20 21 20 21 23 24 26 26 26 26 25 26 27 28 29 29 30 29 27 24 22 21 20 20 19 19 19 20 22 23 24 25 27 26 26 26 28 27

GFSMA_prec_cthk_054.txt.gz
RH
31 30 27 26 28 31 33 37 37 37 35 32 36 40 41 41 40 39 40 40 41 43 44 46 49 49 51 53 54 54 54 52 46 44 43 41 38 36 31 33 34 31 30
32 33 34 33 33 34 35 35 35 34 32 33 41 44 43 40 38 39 39 41 45 49 52 51 53 54 56 59 62 63 59 56 53 47 43 42 41 41 40 36 37 38 35
34 34 34 35 34 33 33 33 33 32 33 39 45 45 42 41 40 39 38 42 49 51 53 56 60 59 59 63 64 63 62 61 58 55 49 46 45 46 47 47 43 42 43
37 35 34 35 35 34 34 33 34 34 38 43 44 45 46 43 41 41 41 42 43 49 54 57 58 59 59 61 62 62 62 62 63 63 60 52 46 46 50 52 52 48 50
40 37 35 35 36 35 34 35 37 40 45 46 47 47 46 44 42 40 39 39 40 45 50 53 55 56 59 59 58 58 60 61 61 64 64 61 57 50 51 56 59 58 54
44 41 37 36 38 37 37 38 40 41 42 44 44 40 38 37 35 30 32 32 34 37 42 46 49 51 54 56 55 55 59 61 61 62 65 66 69 68 57 62 63 64 65
40 37 35 35 35 33 34 37 38 37 37 37 38 34 33 31 32 33 31 32 35 36 39 42 46 49 52 52 49 50 54 62 63 67 69 66 69 74 75 70 74 70 74
39 38 36 35 35 35 35 37 38 38 36 36 37 36 36 36 35 31 31 30 32 36 39 41 44 48 50 50 51 52 56 60 62 64 69 74 72 75 77 81 82 82 71
36 35 34 33 35 37 37 38 39 39 37 35 32 36 38 37 38 35 31 36 41 43 43 44 44 42 41 46 45 48 50 48 45 54 63 71 77 90 88 92 89 97 90
30 29 27 29 30 29 29 28 27 27 28 28 28 30 34 37 37 38 40 41 37 36 36 37 38 36 36 38 37 40 41 42 46 48 52 56 64 72 76 84 95 96 97
28 25 26 26 23 23 23 22 21 20 20 23 26 32 33 34 40 45 48 44 38 37 38 35 35 35 37 38 33 36 38 38 41 44 48 51 62 74 79 77 87 97 96
27 27 27 22 22 21 20 20 19 20 21 23 25 35 36 41 43 48 48 44 44 38 38 34 32 35 37 37 36 36 37 37 36 42 46 53 66 75 82 86 84 88 88
30 27 25 24 23 22 21 21 23 24 24 28 30 40 46 47 46 47 50 47 41 40 38 36 34 34 35 37 37 36 35 33 34 38 45 56 66 77 93 90 89 81 96
27 26 26 25 24 23 24 27 29 29 29 35 41 41 43 47 52 53 47 46 42 42 36 40 37 37 38 38 38 36 33 34 35 37 49 60 70 76 96 96 90 84 94
29 28 27 25 25 26 29 33 33 33 35 38 39 44 48 50 48 45 44 42 41 41 40 40 41 40 42 42 40 39 38 38 39 44 49 59 72 79 78 95 87 85 89
31 30 28 28 30 32 33 34 35 35 34 35 38 42 41 41 40 38 38 42 41 40 41 41 42 42 44 44 42 41 42 42 41 44 49 62 73 79 87 82 80 92 98
37 33 33 35 36 36 37 38 37 35 35 37 37 39 39 38 37 37 38 36 37 39 40 43 43 44 42 38 38 41 41 41 46 51 55 61 67 77 85 92 96 97 97
42 41 40 39 38 39 39 38 36 39 40 40 40 37 37 37 36 36 37 37 38 40 42 41 43 43 37 35 37 37 39 40 43 45 47 50 56 65 77 82 89 91 93
46 46 45 44 42 42 41 39 41 43 42 37 37 35 35 35 37 38 38 37 39 43 43 44 44 38 36 37 36 35 34 35 36 38 38 41 44 48 54 62 75 84 87
47 48 50 49 47 45 44 43 41 40 38 36 34 33 35 35 37 40 40 38 40 42 41 36 34 34 35 35 34 34 33 33 33 34 34 35 37 38 40 46 52 56 61
49 50 51 51 48 47 43 41 38 37 36 35 35 37 30 25 24 27 27 28 29 28 29 31 32 34 34 34 32 30 27 23 22 21 21 22 23 24 24 24 25 27 28
53 51 50 49 47 44 40 41 40 38 40 39 31 24 22 20 20 21 21 23 25 24 24 25 27 29 28 26 23 22 21 20 21 18 16 15 14 13 12 11 11 11 11
55 53 52 49 46 46 44 37 33 29 24 20 18 18 17 17 18 18 17 16 16 17 18 20 24 25 27 25 24 23 22 20 22 20 16 15 13 12 11 11 10 10 10
60 54 54 50 47 41 25 17 15 13 13 13 14 15 17 18 19 20 20 21 21 22 23 25 26 27 28 27 24 22 21 20 19 20 17 17 18 17 17 17 16 17 18
65 62 56 49 36 24 19 16 15 16 16 18 20 22 23 24 25 25 25 25 26 27 27 28 29 29 28 25 22 22 22 22 24 24 22 23 24 22 23 23 23 24 24
65 64 57 38 26 20 19 20 22 22 23 25 27 28 30 31 31 31 32 33 34 35 35 33 31 30 28 27 26 25 25 26 29 32 30 30 30 30 30 30 30 31 31

GFSMA_prec_cthk_057.txt.gz
RH
38 35 33 31 30 30 32 35 38 38 38 35 33 33 38 41 40 36 36 34 36 38 39 43 42 45 47 50 51 52 53 53 52 48 45 43 42 41 40 41 40 39 36
41 35 36 34 33 34 37 37 37 37 36 35 33 36 40 40 38 38 37 36 36 39 41 44 47 48 50 54 54 56 56 55 54 52 48 44 42 42 43 44 45 46 46
41 38 38 39 38 37 36 36 36 35 35 35 36 39 40 41 43 44 42 40 39 37 40 41 44 48 51 52 54 55 57 58 58 57 54 52 46 46 44 44 45 49 49
41 43 42 41 39 37 36 36 36 35 35 38 41 45 48 47 48 45 42 44 41 37 38 39 44 46 47 47 49 52 56 55 55 56 59 58 57 51 46 46 45 47 53
44 43 44 43 41 39 37 37 36 37 39 42 43 42 46 45 44 39 37 35 34 34 33 35 36 41 45 47 47 49 54 57 53 51 55 58 61 62 61 54 51 48 49
52 51 50 47 43 42 39 41 43 47 49 45 41 39 39 37 35 32 34 34 36 35 33 33 36 39 42 45 47 49 52 52 56 59 59 61 65 64 66 65 59 56 53
54 49 44 42 42 41 42 39 41 41 41 42 42 38 37 36 35 36 38 37 35 32 30 32 35 39 41 43 46 51 51 50 54 58 68 72 66 66 66 69 69 70 66
49 47 45 44 43 43 42 43 43 47 47 51 51 50 44 34 35 37 35 33 32 34 38 40 42 42 43 44 46 45 46 47 49 51 63 63 64 73 76 71 78 83 81
45 44 42 40 38 38 35 34 40 43 42 40 38 39 42 34 38 40 37 33 34 41 42 37 36 36 37 38 37 39 41 42 41 41 43 45 49 59 73 67 80 63 71
41 38 36 33 30 29 26 27 29 28 29 32 33 31 32 37 36 37 35 40 42 45 41 39 36 36 35 36 36 36 38 34 36 38 40 41 44 57 64 70 73 71 70
38 35 32 30 29 26 24 25 27 23 23 23 27 30 31 32 39 42 43 47 46 44 43 41 37 35 30 32 35 35 33 33 33 34 34 36 40 47 62 77 85 88 87
39 37 32 29 28 25 25 28 22 22 23 23 23 31 35 33 45 43 47 48 46 46 41 40 37 32 30 31 32 33 33 32 33 32 30 32 38 45 54 69 80 87 92
42 40 37 34 32 30 29 24 25 24 23 25 31 35 38 41 44 56 54 53 48 49 43 42 36 33 34 35 33 33 33 34 32 29 29 29 31 43 53 61 75 98 96
39 37 34 31 28 27 27 26 28 28 29 32 34 36 39 50 49 50 52 58 56 48 42 45 36 36 37 35 35 35 34 34 33 32 32 32 36 41 52 62 70 81 87
40 38 35 33 30 29 29 29 31 34 36 38 39 41 44 42 50 51 51 52 47 43 41 40 37 37 38 38 37 37 36 36 36 36 35 37 41 48 54 65 74 79 83
42 40 39 38 36 32 32 32 35 39 39 40 42 42 42 43 45 45 44 42 40 41 39 37 36 39 39 39 37 35 35 33 34 35 38 43 46 49 53 64 75 83 81
42 42 42 42 41 39 36 38 41 41 41 39 39 39 38 41 40 39 37 37 36 36 37 37 37 38 39 40 36 33 31 31 33 36 38 39 41 45 48 54 64 77 86
42 41 44 46 46 45 43 44 42 43 43 42 41 41 42 40 37 36 35 34 35 36 38 37 38 39 40 39 33 31 32 32 32 32 35 35 35 38 42 46 52 58 71
44 44 45 46 49 50 49 48 47 46 45 46 44 43 39 37 34 34 36 36 36 37 39 39 40 39 33 31 31 31 31 31 31 32 33 33 35 37 38 39 42 46 50
46 47 46 47 48 50 50 51 50 49 48 44 40 39 36 34 36 34 34 35 36 36 35 31 31 29 29 28 31 32 33 31 30 30 31 32 33 34 35 36 37 39 41
49 48 48 48 49 51 52 52 50 48 44 41 39 36 36 37 26 24 26 26 28 27 28 28 29 29 30 31 32 30 27 24 23 21 20 19 19 19 19 21 22 24 26
55 55 52 53 54 54 53 51 46 42 44 43 40 40 32 22 20 19 22 22 25 24 24 25 26 28 30 28 27 26 24 24 25 25 20 18 17 16 15 14 13 12 11
61 60 59 57 57 54 49 47 48 48 42 37 28 21 17 16 15 15 16 17 17 18 18 19 21 25 26 26 26 26 26 26 25 21 19 17 18 17 17 15 14 13 12
64 65 62 62 57 52 50 48 36 24 18 17 16 15 15 15 17 19 22 23 24 24 24 26 27 28 29 29 29 28 26 25 24 26 23 22 24 24 23 22 21 21 20
66 67 66 62 60 55 34 24 18 19 18 17 18 19 21 23 24 27 27 28 31 32 33 34 34 34 32 31 30 29 28 28 28 32 31 32 33 32 32 31 30 30 29
68 69 71 67 56 41 32 28 25 20 22 23 25 26 27 29 30 31 33 34 34 36 35 34 32 32 32 32 32 31 32 32 35 40 42 42 42 42 42 42 40 39 38

GFSMA_prec_cthk_060.txt.gz
RH
43 37 35 32 29 29 29 31 33 35 35 35 33 30 30 33 34 34 35 36 36 35 35 37 36 36 38 42 46 48 51 51 52 52 50 45 42 39 39 39 39 40 41
47 40 37 32 30 30 31 33 33 35 34 33 32 32 33 36 38 38 39 38 37 35 38 39 39 39 39 39 41 45 46 48 51 55 52 50 45 42 40 38 39 40 40
47 42 41 39 37 35 34 34 33 32 32 32 32 33 36 40 43 42 43 39 35 32 33 33 36 40 42 41 41 43 46 46 50 53 53 52 51 49 45 41 39 40 41
44 46 45 43 44 43 39 37 36 35 35 36 40 43 45 42 44 42 41 37 36 36 33 32 33 36 40 42 43 45 47 50 53 54 53 49 50 52 53 50 46 44 44
48 49 48 49 49 49 47 43 42 41 44 47 47 44 46 43 40 35 32 31 31 35 39 40 35 35 37 40 44 46 46 45 52 59 56 56 58 57 58 60 58 50 48
53 54 53 53 51 49 44 45 46 48 45 43 44 47 44 44 42 40 35 33 34 35 35 33 32 33 35 39 42 43 43 46 52 58 61 65 66 67 68 65 64 62 58
58 58 56 54 50 47 46 47 49 51 46 49 46 51 49 46 44 38 32 36 38 35 32 34 39 41 42 41 42 42 45 48 47 52 51 59 67 72 69 66 71 63 67
62 57 54 51 48 48 46 45 45 44 44 42 47 51 44 33 29 30 33 37 35 34 36 39 40 39 37 38 35 38 38 40 41 43 45 45 52 63 64 63 71 62 71
59 55 53 50 47 46 44 41 39 37 37 39 44 47 44 39 35 37 41 36 34 36 41 43 40 33 33 34 34 35 35 33 34 35 35 37 41 44 43 58 57 61 67
60 56 52 49 43 39 35 32 30 29 30 29 34 38 34 41 38 38 38 40 41 42 48 47 42 39 34 33 30 30 32 34 33 31 33 36 37 40 42 59 71 68 71
58 51 49 47 42 37 35 33 31 31 29 27 31 30 31 32 36 40 39 45 50 51 50 45 44 39 37 33 29 30 31 33 32 32 31 33 33 33 37 44 60 71 76
52 50 49 49 45 40 38 37 34 33 33 32 33 32 32 31 35 39 41 52 52 55 55 47 43 39 36 32 31 31 30 31 31 31 32 31 27 27 30 35 45 55 76
52 52 53 48 44 40 38 36 33 30 29 29 27 28 32 40 44 47 47 47 59 58 52 51 44 39 36 34 33 32 31 32 31 31 31 29 28 28 28 33 42 50 60
56 52 48 45 42 40 38 36 32 29 31 34 32 33 36 40 44 44 57 61 55 51 56 49 40 37 35 33 33 32 33 33 32 32 33 32 32 32 35 39 43 48 60
55 51 48 47 45 43 41 38 37 34 35 35 35 38 43 44 49 54 53 51 53 53 50 42 39 36 34 34 34 33 33 31 31 30 30 31 35 38 40 42 46 52 60
55 53 50 46 45 44 43 42 42 41 41 38 40 44 46 44 47 49 52 50 47 44 41 38 36 36 35 35 35 34 33 31 28 27 30 33 36 36 38 43 44 49 55
56 49 44 43 43 45 46 47 47 47 47 45 45 45 46 45 46 46 45 42 39 37 36 35 36 36 35 36 35 36 32 28 28 29 30 33 34 34 37 40 43 49 52
52 47 45 44 45 44 46 48 49 51 51 50 49 49 46 46 47 44 41 39 35 35 36 35 36 36 36 36 37 32 30 27 26 28 30 33 34 35 35 39 41 43 49
54 50 47 47 46 46 47 48 50 52 53 52 51 50 51 50 43 40 38 36 37 36 36 35 36 37 36 31 28 28 28 29 30 31 32 33 33 34 36 37 38 40 41
53 51 50 48 48 48 47 49 51 52 53 53 51 51 50 44 41 38 36 34 33 34 34 33 30 28 27 27 28 28 30 30 31 28 27 26 29 31 32 33 33 34 36
51 51 50 49 51 52 51 52 53 54 54 55 53 48 45 42 39 38 28 23 24 25 27 27 27 27 26 26 23 22 22 23 24 22 22 23 21 20 19 18 18 18 19
50 50 49 53 55 57 58 57 55 57 56 53 46 44 46 45 39 26 22 20 20 22 24 24 24 24 24 25 24 22 23 24 25 24 24 22 20 19 18 18 17 17 16
54 55 56 58 60 61 62 58 59 53 52 53 54 51 41 28 20 16 15 15 17 19 21 22 23 25 27 28 27 28 29 28 27 25 24 23 23 23 23 24 24 24 23
58 61 61 63 65 66 63 60 57 57 53 45 33 22 17 17 18 18 19 22 24 25 26 26 29 30 31 32 30 28 29 29 29 29 29 29 30 31 33 34 34 34 34
62 64 66 67 67 67 63 59 46 37 31 22 20 19 24 21 23 25 27 29 30 30 30 30 31 30 30 29 28 28 28 29 30 33 34 36 38 40 42 42 42 41 40
68 68 70 70 70 66 55 43 37 32 27 24 28 29 27 29 30 32 33 33 35 34 32 32 32 33 32 31 30 31 32 33 35 39 42 44 46 49 48 46 41 34 30

GFSMA_prec_cthk_063.txt.gz
RH
36 38 38 34 30 27 25 26 28 29 30 31 30 29 29 29 30 33 37 38 39 39 38 36 36 35 34 37 38 40 41 44 46 47 48 48 46 40 37 35 35 34 35
37 40 41 36 33 30 28 29 31 32 32 31 32 32 31 32 33 37 37 38 37 35 34 36 35 35 36 37 38 43 43 44 46 47 50 51 50 46 41 38 37 37 35
38 42 40 40 40 36 36 36 36 35 34 33 34 37 42 45 46 45 42 43 42 41 39 40 36 36 38 39 38 39 48 52 53 51 52 52 52 49 47 42 40 40 40
40 41 43 45 46 44 43 44 43 40 39 39 39 43 42 44 47 47 47 48 47 44 39 37 39 39 36 37 38 38 43 55 60 56 54 57 56 54 54 55 52 46 46
39 43 46 49 52 51 50 47 43 43 45 46 46 45 45 46 50 46 48 48 47 38 38 38 35 33 33 35 37 39 40 43 46 50 62 65 62 59 58 62 63 61 56
44 45 49 53 56 57 56 52 50 49 48 46 46 45 45 43 44 46 42 39 39 39 37 36 33 33 37 39 39 39 41 46 47 50 55 61 65 64 67 66 66 66 62
53 52 53 57 61 57 56 54 50 50 48 46 44 41 39 38 42 39 34 36 39 37 39 37 33 37 40 37 34 35 36 41 43 43 44 45 52 59 68 70 70 68 61
72 67 62 60 57 55 53 51 50 49 47 45 45 39 40 38 40 39 35 36 39 42 41 35 34 39 40 37 34 35 35 36 36 36 37 40 43 46 49 65 69 63 58
73 72 69 64 62 59 55 53 51 46 43 40 39 40 44 44 41 41 39 41 42 40 39 37 38 41 41 36 32 32 31 30 32 34 34 34 34 35 37 47 54 57 61
69 70 68 67 65 58 52 48 45 42 37 36 36 35 41 45 47 43 36 38 38 36 41 44 43 45 41 36 35 31 28 29 31 32 31 30 32 36 39 42 39 63 73
68 65 64 59 55 52 50 46 47 44 40 38 37 36 36 37 39 41 39 36 43 47 51 45 49 49 45 38 35 31 28 29 29 30 31 30 30 33 35 30 34 45 71
68 62 59 58 55 53 51 48 46 43 41 38 35 35 36 36 35 35 38 43 46 54 54 55 51 49 48 40 36 32 30 30 29 29 30 30 30 28 26 24 27 33 45
64 63 64 60 56 54 53 49 46 42 40 38 37 34 35 37 36 36 43 48 49 54 58 60 51 49 47 39 36 33 31 30 31 34 33 32 29 28 27 26 28 32 37
74 67 66 64 61 56 51 47 44 43 41 40 40 41 38 38 40 42 44 47 53 61 61 51 52 50 42 39 35 32 32 32 31 30 28 28 27 29 30 32 34 37 38
70 69 68 67 61 56 52 49 48 46 44 45 46 44 42 38 42 46 48 56 60 61 52 54 51 44 40 37 36 33 33 33 31 28 26 25 28 33 35 37 38 39 42
69 68 70 66 61 56 53 49 45 44 43 45 47 47 47 47 49 49 49 55 53 56 56 50 43 39 37 38 35 34 34 34 31 27 25 27 30 32 33 38 38 38 43
76 74 70 64 62 56 49 46 45 45 45 47 49 50 50 50 50 52 53 54 54 50 45 42 39 39 39 38 34 34 34 33 28 25 24 26 30 32 32 35 38 41 43
72 71 73 73 60 54 50 49 48 47 49 50 50 50 51 52 51 52 52 53 48 40 40 38 38 40 37 36 36 35 33 28 26 25 25 27 29 31 32 34 38 41 44
68 68 65 63 62 57 56 56 55 54 52 51 51 51 50 51 52 53 54 49 43 40 37 37 37 38 35 35 33 29 27 27 27 27 27 28 30 31 32 34 36 38 39
59 55 56 53 56 58 54 53 53 56 54 54 52 52 52 51 53 53 47 44 43 37 36 33 35 34 30 27 27 27 28 27 26 24 22 23 23 24 25 28 31 32 34
45 45 47 48 52 53 55 56 55 57 59 58 57 57 56 54 51 45 45 44 33 28 29 29 29 29 27 25 24 24 23 22 21 21 22 23 23 23 22 20 19 19 19
49 49 49 49 51 53 55 56 57 59 63 64 62 61 59 51 46 48 47 30 24 24 25 24 28 28 27 26 26 25 24 25 26 27 26 25 24 23 22 22 22 22 22
53 54 56 56 55 56 57 60 63 65 67 66 64 59 54 54 54 43 25 18 17 17 19 22 25 27 29 30 31 30 29 29 27 27 25 25 26 28 28 27 27 29 30
62 62 62 61 62 63 64 64 66 69 68 65 63 65 60 43 27 20 17 19 25 25 27 28 31 33 33 33 31 29 28 27 28 28 28 29 30 33 34 34 36 37 38
65 65 66 68 68 68 67 67 68 68 62 50 41 35 28 26 21 21 27 28 29 32 35 36 36 34 33 32 30 30 30 30 31 32 34 36 38 40 41 43 45 45 43
70 69 70 71 72 73 69 62 56 45 40 39 36 33 30 26 26 33 33 34 38 39 39 38 37 37 37 36 35 34 34 34 36 38 41 42 45 47 48 49 49 44 31

GFSMA_prec_cthk_066.txt.gz
RH
34 34 35 38 34 31 28 27 27 28 29 29 29 28 29 29 30 33 37 37 38 41 39 37 36 34 35 36 39 41 41 46 46 46 45 44 45 44 40 38 36 34 34
37 35 35 41 37 34 33 33 33 33 32 32 31 31 33 37 43 44 45 42 45 48 48 43 41 38 35 36 38 43 51 51 52 53 52 50 48 48 47 42 37 36 36
41 37 36 40 41 41 39 38 39 41 39 37 38 39 40 41 42 46 50 48 49 51 50 47 39 41 42 35 33 34 41 56 65 62 58 56 53 51 51 50 46 43 40
45 41 39 40 46 48 48 47 46 44 41 41 41 43 46 45 45 44 47 48 50 49 46 38 37 39 35 33 32 36 36 42 52 58 60 59 57 60 59 56 56 58 54
50 44 42 44 48 50 53 51 52 49 48 48 47 46 46 44 40 40 40 47 51 46 39 34 35 36 34 33 38 40 40 39 41 47 53 64 65 66 65 63 62 64 63
56 51 44 46 49 52 55 57 55 54 52 51 49 43 45 42 42 35 36 40 46 46 39 37 39 36 33 36 39 38 35 37 41 45 47 59 66 69 68 67 65 68 67
62 57 53 52 52 54 57 57 58 55 53 52 50 48 43 43 39 38 34 35 40 44 44 45 46 37 36 38 39 37 33 33 34 38 39 41 44 50 58 67 70 73 75
63 66 71 71 74 67 57 59 60 59 57 56 53 50 44 38 39 37 35 34 42 46 51 47 42 38 40 42 41 33 29 32 32 32 31 33 36 38 43 54 62 76 69
66 71 74 76 74 72 70 63 61 58 56 53 52 50 49 44 43 45 43 46 49 51 49 45 38 42 44 48 42 31 30 29 27 28 31 32 33 32 34 37 43 58 63
72 73 72 74 72 70 70 65 63 57 53 47 45 44 44 47 48 50 44 44 45 46 42 41 43 46 46 48 43 35 31 28 26 26 28 29 29 30 35 37 42 48 57
86 87 86 78 73 68 61 56 54 53 51 48 46 43 42 41 42 45 42 38 44 42 42 44 47 50 51 49 45 36 33 28 27 26 27 28 29 28 30 30 33 35 38
85 85 82 77 65 61 58 57 57 55 51 48 47 45 43 43 40 40 41 40 43 47 49 50 54 52 60 52 47 38 32 29 27 29 29 29 29 28 27 26 25 24 29
84 78 74 68 65 63 67 67 65 60 53 49 46 44 43 43 46 45 43 44 47 55 57 55 56 63 59 55 47 37 32 28 27 30 32 33 28 29 28 26 26 26 27
77 74 72 74 75 74 72 66 64 59 53 49 48 47 47 50 48 48 46 46 52 51 55 57 63 63 56 54 45 38 33 28 29 30 29 27 28 30 30 32 32 34 34
76 74 75 73 72 70 69 68 66 61 55 53 50 49 49 49 49 48 49 52 50 54 57 62 66 62 58 51 41 36 34 29 29 31 29 30 26 30 31 32 34 34 34
82 78 76 74 74 74 74 70 64 60 55 54 51 51 51 51 52 54 54 53 61 60 63 61 62 61 54 44 39 36 34 32 32 32 28 24 26 28 31 31 33 32 35
70 71 74 75 73 73 73 70 67 62 57 54 54 52 52 54 55 56 55 57 57 56 58 60 64 56 46 42 41 37 35 33 34 30 25 22 23 28 30 33 35 36 35
72 75 73 73 69 67 65 64 67 61 57 59 57 56 56 56 56 55 56 55 58 59 59 57 52 45 42 41 39 37 37 36 30 27 26 23 24 27 31 33 35 37 40
70 67 65 65 67 61 58 58 62 62 61 63 63 62 61 59 58 58 56 55 56 56 53 49 46 42 42 38 36 35 30 27 27 26 26 25 25 27 29 31 34 36 38
56 53 50 49 48 52 52 54 54 55 60 60 61 63 62 62 63 60 56 56 59 52 49 47 43 41 37 34 31 30 29 28 28 25 22 20 20 22 23 26 29 34 35
47 47 45 44 44 43 42 43 51 51 54 58 62 66 64 64 65 63 61 59 53 50 45 36 35 33 31 27 25 26 26 24 23 21 22 22 23 23 23 22 22 21 22
48 48 47 46 46 47 47 47 46 48 53 57 60 61 64 67 66 66 62 54 52 49 34 31 29 29 28 28 27 26 25 25 26 26 28 28 26 24 23 23 22 22 23
52 50 49 50 51 52 51 53 54 55 57 60 62 66 70 71 67 61 59 56 45 30 24 21 25 27 31 30 30 30 31 31 32 30 27 26 25 25 26 27 28 29 30
60 59 58 59 58 57 58 61 61 63 64 66 68 68 68 68 68 64 52 34 24 21 20 23 33 33 34 37 36 36 34 32 31 29 28 28 29 31 32 34 35 37 39
63 63 64 64 63 64 66 66 66 66 66 67 69 68 63 55 46 38 32 25 23 23 32 37 35 39 41 38 37 37 37 36 33 32 32 33 34 36 38 40 42 43 45
67 68 67 65 64 68 71 69 67 68 64 53 43 40 38 35 32 30 32 33 31 36 39 41 45 44 41 40 42 44 45 43 40 38 38 39 39 40 42 43 45 45 47

GFSMA_prec_cthk_069.txt.gz
RH
36 34 33 35 39 35 33 31 30 32 33 33 32 31 30 30 34 39 42 43 43 45 47 51 48 40 36 39 43 43 43 45 46 50 50 50 48 47 45 40 38 38 34
43 40 35 34 38 39 37 36 36 37 38 37 36 36 36 38 39 42 43 46 49 47 49 48 51 41 34 37 35 39 53 54 54 56 57 55 53 52 49 45 44 41 38
48 45 41 37 38 40 41 42 42 43 42 42 40 41 41 42 44 44 43 43 45 45 46 46 48 40 36 32 31 32 34 39 45 57 62 58 56 58 53 54 53 50 46
53 47 46 39 40 41 46 47 48 48 48 47 46 45 44 47 46 43 43 42 50 43 46 48 47 39 38 34 31 34 37 40 39 37 47 61 62 62 62 61 60 58 54
60 51 48 46 43 43 47 50 53 52 50 50 50 50 49 47 46 41 41 40 42 41 43 46 41 40 40 35 34 37 38 38 36 36 40 48 58 65 66 65 63 64 61
66 59 54 54 50 47 49 50 53 56 57 56 53 52 48 45 45 42 40 40 40 40 40 42 41 44 42 36 36 37 38 37 33 31 35 41 46 56 63 67 68 67 66
62 59 59 59 58 54 53 57 56 59 62 60 58 54 53 49 48 42 39 37 37 39 44 44 46 50 48 38 39 40 40 35 32 32 32 34 36 39 44 53 64 65 66
65 60 63 62 64 71 72 70 68 64 63 64 62 60 55 51 48 47 44 43 41 44 46 50 53 49 44 44 44 43 41 32 30 29 28 28 28 30 33 36 43 58 69
70 69 72 72 70 75 76 75 76 73 72 63 60 61 61 53 49 48 49 47 46 48 49 54 52 48 45 49 48 48 44 34 31 28 26 26 27 28 30 33 34 37 54
75 85 85 82 83 83 77 74 70 69 66 62 59 56 51 51 53 51 49 51 52 49 48 48 46 47 51 54 52 51 47 37 33 28 26 25 26 28 31 32 32 36 38
88 91 90 91 86 82 80 82 73 63 60 59 59 58 52 49 49 49 51 49 52 48 48 46 45 49 53 54 57 55 50 40 34 28 26 25 26 25 25 26 26 30 34
87 92 91 90 88 87 86 73 63 64 64 63 63 60 57 54 51 50 50 50 51 50 50 48 48 52 53 60 61 57 52 40 34 30 31 30 28 26 25 24 23 23 23
94 90 93 91 87 84 71 65 68 69 68 67 65 64 60 54 53 53 54 54 55 53 54 52 54 55 55 57 62 59 52 40 34 29 27 28 27 26 30 30 26 24 24
94 91 88 87 83 71 71 72 71 70 67 68 68 65 62 56 56 56 55 58 59 56 56 60 60 56 60 66 66 62 52 39 32 29 27 29 27 28 31 30 31 32 31
89 88 84 76 77 79 77 74 73 73 71 70 68 64 59 59 56 56 58 59 62 62 59 68 59 63 61 68 66 62 51 38 32 29 29 30 27 28 27 28 29 31 34
81 78 78 78 77 74 71 70 70 72 70 69 69 66 60 62 61 58 59 58 59 62 62 63 69 70 67 66 65 57 49 38 33 32 32 32 25 26 27 28 29 29 33
83 82 80 72 72 71 71 70 68 65 60 58 61 64 66 65 59 61 61 63 61 66 65 67 66 65 68 65 61 52 44 39 34 34 34 29 24 22 24 29 31 32 34
82 77 73 72 72 70 68 66 62 57 55 58 59 64 64 64 66 65 68 68 70 65 68 65 67 67 67 59 54 48 43 39 37 37 30 25 22 23 25 27 32 36 39
77 76 77 77 69 65 58 53 49 49 53 53 58 63 63 66 69 70 72 71 66 65 64 68 69 67 58 53 49 44 40 39 33 28 28 25 23 23 23 26 30 33 36
67 66 64 62 58 52 47 44 44 43 43 49 53 54 61 60 63 63 64 68 68 68 65 64 60 54 54 49 44 37 32 30 30 29 28 24 20 19 21 23 27 29 33
48 48 49 46 45 44 44 43 44 43 44 44 45 49 56 61 61 62 66 69 70 70 71 66 58 52 48 40 35 30 29 30 32 25 22 22 22 22 23 23 24 23 23
46 47 47 47 47 47 47 47 47 47 46 49 53 54 57 59 62 64 67 68 69 70 66 60 49 42 36 33 27 28 31 34 26 28 26 27 29 29 28 26 23 22 22
48 49 50 50 49 50 50 51 52 51 53 56 57 58 62 65 68 69 72 73 68 64 62 49 39 35 30 26 29 36 37 31 33 32 34 34 32 30 27 27 26 26 27
54 54 55 55 56 58 58 58 56 59 61 63 65 67 69 71 70 69 68 66 59 49 41 34 30 27 26 31 40 36 37 38 36 35 34 33 33 32 32 32 32 33 34
59 61 63 62 62 62 63 62 62 65 67 69 69 68 69 70 70 65 56 47 43 41 39 34 29 25 36 40 39 44 40 38 40 38 37 37 38 37 36 37 37 38 40
72 70 69 66 65 65 64 63 63 67 67 70 70 56 47 44 40 41 39 39 38 37 35 32 30 40 42 44 46 43 42 45 45 47 47 45 44 42 40 41 41 42 44

GFSMA_prec_cthk_072.txt.gz
RH
38 37 36 35 35 38 36 33 32 32 33 36 36 35 34 35 36 40 41 43 44 43 44 41 44 46 46 39 44 38 48 49 48 47 50 53 51 49 45 43 41 37 35
44 44 40 36 36 35 40 38 37 37 38 38 39 38 39 41 42 42 44 44 43 43 43 43 46 46 43 42 42 37 34 38 45 53 55 57 56 53 51 48 46 45 41
54 52 49 44 41 38 38 42 43 44 44 43 43 43 43 44 42 44 42 43 43 41 48 43 47 46 41 39 37 34 33 33 36 37 47 57 55 54 54 55 56 54 50
60 57 52 50 47 45 43 42 48 49 50 48 46 45 44 45 44 43 44 40 39 39 44 44 46 49 39 40 38 35 34 36 38 40 40 45 50 54 56 57 59 59 57
66 62 58 53 49 51 52 50 51 54 53 51 51 54 52 48 45 43 45 42 43 41 42 42 41 45 44 45 42 37 38 36 37 37 34 37 43 55 59 61 60 62 61
69 69 65 60 56 56 56 56 52 56 56 55 56 56 54 50 50 48 49 46 45 45 44 46 48 48 48 52 47 39 40 40 38 36 33 33 36 41 50 62 66 63 60
85 85 77 65 59 60 63 61 59 59 57 57 58 57 57 55 52 49 47 45 44 45 44 49 48 49 54 52 42 40 44 42 39 34 31 30 32 33 37 40 50 66 63
85 80 72 68 61 62 65 65 69 63 63 69 70 68 57 57 54 54 53 51 48 47 49 50 46 52 52 51 43 44 48 47 41 34 31 28 27 26 27 30 34 39 50
70 70 68 76 71 66 69 70 71 74 75 76 74 72 71 64 60 59 56 53 51 49 49 51 49 48 47 46 46 51 52 47 43 36 32 28 26 27 29 31 32 33 38
77 72 77 82 88 88 89 88 85 80 75 75 69 65 63 61 59 57 56 55 53 52 53 53 52 51 46 47 49 53 58 57 49 38 32 29 28 29 29 27 28 30 34
90 85 86 89 92 94 92 89 87 83 81 82 65 63 60 59 61 59 57 54 55 55 56 56 53 53 50 53 53 56 58 58 52 45 39 33 30 28 26 25 24 25 30
90 90 95 93 92 92 89 91 90 89 83 68 66 62 64 63 62 62 63 59 57 56 59 60 59 57 55 56 59 57 59 58 54 45 37 30 26 26 32 27 23 23 23
90 90 96 97 95 95 91 90 89 76 74 73 67 67 66 64 63 62 65 63 60 61 59 59 59 58 58 61 60 58 63 61 56 46 38 31 26 27 31 31 31 30 26
92 95 98 97 95 92 92 83 77 74 73 71 70 69 69 69 68 67 64 65 64 63 59 59 62 59 65 65 64 67 68 62 59 46 38 31 28 30 31 29 29 29 29
92 92 93 90 91 89 79 77 74 73 71 70 69 69 68 67 68 69 67 61 64 66 66 66 66 63 71 66 70 72 72 69 60 47 39 33 30 33 31 26 26 27 27
92 91 90 87 82 77 75 71 71 70 70 69 66 63 60 59 58 64 69 65 68 68 68 65 68 72 68 71 73 75 74 71 58 49 43 34 33 33 29 26 26 26 30
79 75 72 74 78 76 75 67 70 69 67 67 63 57 56 54 56 61 68 71 70 70 72 72 70 73 78 78 76 70 70 66 56 50 40 36 34 31 27 26 24 25 28
71 73 77 79 79 75 72 75 73 69 63 57 52 50 50 54 54 59 66 68 69 73 77 81 82 80 80 69 75 79 73 60 54 48 43 39 32 26 25 24 26 27 29
66 71 73 73 73 72 73 67 66 59 53 45 43 43 45 45 46 59 64 66 71 71 73 75 75 72 71 70 70 60 56 59 49 44 40 32 29 25 23 23 25 28 33
50 52 54 58 63 65 59 55 51 43 40 39 39 40 41 42 46 49 53 56 63 68 69 70 73 73 72 73 65 61 57 51 45 35 33 30 28 24 21 21 24 27 29
49 51 51 50 48 48 47 44 42 42 42 42 43 43 44 48 50 51 55 58 62 64 67 68 70 72 73 64 63 61 49 41 35 35 31 30 28 23 26 23 23 24 25
43 45 47 48 49 48 47 45 46 45 45 46 46 47 51 53 54 56 58 61 65 69 69 71 73 71 64 54 49 40 32 32 31 27 31 34 31 32 28 29 31 30 27
49 49 50 51 50 50 50 49 51 51 51 51 52 56 58 58 60 63 66 68 73 74 74 74 70 65 53 48 39 34 28 28 32 37 36 36 37 36 35 34 31 29 28
53 53 54 53 53 55 55 56 56 57 57 57 60 61 62 62 65 69 71 72 73 69 64 60 53 48 44 42 36 30 31 37 40 41 42 42 40 38 36 36 35 34 34
58 57 57 57 58 60 60 63 62 61 61 61 59 61 62 65 67 69 70 70 63 55 47 42 41 40 41 39 34 34 39 42 45 45 45 46 44 43 42 42 41 41 42
64 64 66 66 67 67 68 68 64 63 63 62 61 61 66 60 54 47 47 48 46 42 41 42 40 40 40 37 35 42 47 46 47 48 52 54 54 52 50 48 46 44 43

GFSMA_prec_cthk_075.txt.gz
RH
39 38 37 37 36 37 38 35 33 32 33 35 37 36 34 34 37 40 42 41 40 42 41 41 39 40 42 43 43 45 39 41 46 51 50 50 52 51 49 47 43 37 36
41 42 40 39 37 36 35 39 37 37 38 40 40 39 39 40 42 42 41 40 38 41 40 45 50 44 42 41 41 41 34 34 35 39 42 46 54 53 50 50 49 46 43
46 46 47 47 43 42 39 39 40 41 44 44 44 43 43 43 42 41 38 39 39 37 38 40 51 50 52 47 40 37 34 35 37 40 47 48 47 52 52 51 52 51 50
56 58 57 55 52 49 47 44 42 44 47 49 49 47 45 45 45 44 42 42 40 40 40 42 46 47 46 45 42 39 35 37 37 39 41 40 45 48 52 52 54 56 54
70 67 65 62 58 52 50 51 50 50 51 52 51 48 50 47 47 47 45 44 44 45 46 46 45 45 49 47 48 45 40 37 38 40 41 38 35 41 56 59 59 59 59
81 77 75 69 60 55 52 56 60 58 52 54 53 52 50 50 49 48 48 46 44 42 43 44 46 48 49 48 45 44 41 40 40 40 39 36 36 35 39 47 60 63 61
88 85 78 72 67 62 58 61 64 64 61 56 54 53 52 51 46 45 44 45 44 44 44 45 49 47 47 49 47 46 41 42 43 43 41 32 31 32 33 36 40 57 62
96 91 87 86 86 76 67 65 62 63 66 59 56 60 58 61 57 56 55 57 55 53 49 50 51 50 49 51 47 45 44 46 48 46 40 33 33 29 28 28 31 35 40
98 98 92 88 87 78 69 70 76 72 75 72 66 64 68 69 66 63 63 62 60 56 52 53 54 53 51 52 52 49 47 49 50 51 47 38 34 32 33 28 28 31 32
98 95 91 90 88 86 87 87 89 88 88 83 74 73 70 71 68 65 61 60 59 58 57 56 58 58 54 56 54 53 50 53 54 52 53 44 41 35 33 27 26 29 31
91 92 95 96 95 96 96 96 95 90 90 90 87 79 77 71 65 62 61 58 57 58 60 61 58 65 60 59 59 57 58 57 58 55 50 46 39 34 36 32 30 26 27
91 89 88 93 97 96 98 98 96 90 92 92 88 80 75 68 66 64 61 59 59 59 61 62 61 64 63 61 61 60 63 63 60 65 57 46 38 34 36 39 31 25 24
90 88 96 97 97 99 98 97 95 94 92 88 78 74 74 72 70 68 66 67 65 64 60 62 64 63 68 62 63 63 66 66 69 69 64 49 40 36 37 36 34 31 28
82 87 90 95 98 95 97 97 94 92 85 78 75 78 76 73 70 66 65 68 66 65 62 62 62 62 64 63 63 70 70 70 69 73 67 54 48 38 39 39 33 31 30
74 78 84 93 92 89 91 92 90 82 79 77 76 74 71 69 65 64 61 63 59 62 63 61 64 69 74 70 73 73 72 73 72 75 71 61 47 42 42 39 34 28 29
65 68 77 84 86 83 85 85 77 73 71 72 72 71 68 66 60 55 56 56 57 60 64 65 67 67 67 70 75 74 72 79 79 78 77 57 50 44 42 40 31 28 28
64 69 73 74 73 74 77 75 76 75 73 73 73 69 64 56 50 50 49 51 51 57 61 63 64 70 74 78 82 84 86 84 79 78 66 60 54 45 47 39 29 27 27
65 68 72 73 73 71 72 79 77 70 68 70 68 60 53 46 44 43 44 44 49 50 55 61 66 70 77 77 80 77 75 74 75 71 62 61 51 52 46 32 28 27 27
55 60 58 59 64 70 70 69 68 64 64 59 55 48 42 40 39 40 41 42 47 48 49 53 58 61 67 72 76 77 75 76 72 62 61 55 47 40 32 25 25 26 26
43 48 48 50 53 54 51 50 51 52 47 44 39 38 38 39 40 42 44 48 47 49 53 55 59 62 65 68 70 74 78 74 67 67 59 52 43 31 31 24 23 26 28
38 41 43 45 45 48 50 51 47 44 43 39 38 38 40 42 43 44 49 49 51 54 57 60 62 64 67 69 72 75 71 68 67 61 49 43 33 32 25 26 24 24 26
37 38 40 42 44 46 46 47 46 43 41 41 42 43 45 46 46 50 54 56 58 61 63 66 69 72 73 74 76 70 65 60 48 38 38 36 29 30 35 34 34 32 27
43 44 45 47 48 48 47 46 46 44 46 47 47 48 49 50 54 57 57 60 62 65 70 73 75 77 77 75 68 56 51 40 36 33 25 27 35 41 40 40 39 37 36
50 52 52 51 51 51 51 50 49 49 50 51 52 53 54 57 56 58 61 64 67 70 73 76 76 74 70 60 49 45 41 46 37 31 35 42 45 45 45 45 42 39 37
52 54 55 56 58 56 53 51 53 55 56 56 59 59 57 58 59 60 65 66 67 65 64 61 54 49 45 43 42 46 45 38 30 38 45 47 49 49 49 47 46 44 43
58 59 60 60 60 58 58 58 60 61 63 63 65 63 60 59 59 55 57 57 53 50 47 43 42 42 44 51 48 44 45 45 48 49 48 53 53 53 55 54 54 53 51

GFSMA_prec_cthk_078.txt.gz
RH
35 36 36 36 37 36 36 34 32 31 31 34 36 40 38 37 36 37 39 38 37 36 38 39 39 40 40 41 42 40 40 34 32 34 41 46 50 53 52 48 45 42 38
41 40 40 39 38 37 36 39 41 39 38 38 41 41 41 40 41 42 43 42 38 37 36 37 40 45 46 45 49 43 36 33 34 34 40 45 46 51 53 51 48 47 44
44 45 47 44 42 40 38 37 40 41 43 45 47 47 44 46 45 44 43 41 41 40 39 39 40 47 51 52 52 44 42 38 35 35 37 40 46 51 48 51 52 49 51
57 50 46 46 47 45 44 42 43 45 45 49 53 53 50 48 49 47 48 47 45 45 45 44 43 44 49 49 49 47 45 42 36 35 35 36 38 40 46 50 55 51 55
58 54 58 58 57 56 52 49 48 51 49 50 53 55 53 49 51 50 51 51 49 45 45 44 44 44 45 48 48 47 43 42 38 38 37 37 40 40 39 55 58 58 57
72 70 70 70 65 63 60 55 54 55 57 59 55 52 52 52 51 49 47 43 42 41 42 43 44 45 48 48 49 45 44 42 40 38 38 38 39 39 36 40 47 57 58
79 74 77 86 80 75 69 61 61 59 61 61 61 62 56 53 51 47 43 44 45 47 51 52 54 54 52 51 50 48 44 43 42 42 40 40 38 37 36 38 38 42 60
84 83 86 94 88 83 76 67 66 68 64 63 66 67 64 58 53 47 50 56 58 61 61 59 59 57 54 55 54 52 51 49 47 45 45 43 39 37 35 35 34 36 39
85 86 86 94 97 96 92 86 80 76 75 76 80 75 70 64 58 58 60 64 63 64 62 61 62 62 59 58 58 56 54 51 52 50 48 48 44 38 39 38 34 33 33
90 87 88 92 97 98 98 98 96 86 85 87 89 87 82 79 72 71 72 72 69 65 64 64 61 61 63 61 59 57 60 56 58 58 56 53 47 39 39 39 35 31 32
93 91 91 93 97 99 98 98 97 94 94 95 92 89 88 83 75 76 75 72 71 67 61 60 63 61 59 60 67 60 64 61 65 63 58 57 52 42 36 43 44 37 33
91 92 93 95 94 96 94 94 97 99 97 96 94 94 90 89 85 79 76 74 71 69 68 64 64 64 63 62 67 69 68 61 68 66 62 62 58 50 40 46 51 42 39
87 87 88 95 97 92 91 93 96 97 98 97 96 93 88 84 80 77 74 74 72 69 66 66 61 59 63 61 61 70 69 67 69 71 68 69 66 58 45 45 47 45 38
81 82 84 85 88 91 92 95 97 95 97 95 93 92 84 76 77 76 74 72 67 65 62 63 55 58 59 58 60 66 67 69 74 76 76 76 70 62 49 46 51 44 42
61 69 78 80 78 83 92 92 90 87 88 88 86 80 77 77 74 70 67 66 66 61 59 58 56 61 64 64 67 69 65 69 71 72 75 74 76 67 52 54 50 47 37
63 63 63 67 64 71 83 85 88 85 80 78 74 75 75 73 70 68 63 57 52 53 53 51 51 52 59 64 65 69 75 80 81 79 86 83 82 75 61 57 51 50 39
60 60 64 67 68 68 67 69 71 70 65 68 67 73 76 72 68 62 54 46 47 46 44 44 46 49 51 56 64 67 77 77 83 82 80 81 77 71 58 59 56 43 38
44 52 58 67 68 70 70 72 72 68 69 70 70 70 68 61 55 48 44 41 41 41 40 45 46 46 52 56 58 61 65 70 79 80 79 74 69 63 62 55 52 48 37
38 45 54 59 65 65 62 60 60 61 60 60 58 51 51 44 39 36 37 39 39 40 44 47 47 50 53 59 61 65 67 71 72 75 80 78 68 63 63 61 56 43 31
36 40 48 55 57 53 51 51 51 49 50 47 46 45 41 37 36 35 36 36 39 42 47 49 52 52 58 61 63 65 69 70 72 74 75 69 67 66 60 47 36 25 25
34 37 41 46 48 47 46 46 47 48 47 49 45 41 38 38 36 37 38 41 43 46 50 52 53 59 64 65 66 72 75 75 74 72 70 68 66 61 45 33 23 25 28
37 38 40 44 47 48 48 48 48 49 50 45 43 42 39 38 38 42 43 44 47 51 52 56 61 65 66 70 75 77 78 76 71 71 70 59 47 41 31 28 29 31 32
41 44 45 43 46 49 50 49 48 48 48 46 42 40 39 42 45 45 47 50 53 54 56 62 64 67 73 77 80 80 77 70 63 49 40 41 34 31 32 32 39 39 40
47 48 49 48 49 54 55 54 54 52 48 46 45 45 46 46 48 49 51 54 56 59 63 67 69 72 75 77 76 70 60 53 45 42 36 36 36 30 33 42 45 46 45
50 52 53 53 56 58 63 61 59 57 55 54 53 51 48 51 54 52 55 54 56 59 64 64 61 62 65 65 58 52 48 45 47 46 45 41 35 40 45 47 49 51 48
59 61 61 61 62 62 65 69 67 65 61 59 58 57 56 59 62 60 59 57 56 60 58 52 47 43 40 41 43 46 47 49 47 41 41 43 45 51 52 56 56 52 50

GFSMA_prec_cthk_081.txt.gz
RH
31 35 37 38 36 35 36 35 34 32 31 31 32 35 41 41 39 39 40 39 37 36 36 36 37 44 43 45 48 48 44 41 33 31 34 36 41 45 47 52 50 45 40
35 38 40 40 38 38 37 40 40 37 37 37 37 41 43 42 42 45 42 42 40 38 37 37 39 45 52 54 50 54 50 41 36 34 35 36 42 47 50 52 52 47 45
40 40 41 40 41 43 44 45 42 45 46 46 45 47 46 46 46 46 44 43 43 43 44 42 41 41 47 53 54 52 50 45 41 36 35 35 36 43 49 53 52 52 50
46 45 46 47 49 48 54 44 42 43 46 50 50 52 52 51 49 49 52 49 49 49 48 47 44 43 44 49 51 47 52 49 44 39 36 35 36 38 43 50 51 58 56
56 54 51 55 51 59 56 49 48 47 47 50 53 57 61 59 50 52 51 52 53 47 46 46 43 42 45 46 48 54 53 50 47 41 39 39 37 36 39 44 60 62 61
63 58 57 61 59 66 56 58 56 54 52 57 60 61 60 53 53 49 51 48 45 42 42 41 45 44 47 51 52 53 51 50 48 45 42 41 38 35 37 41 44 53 65
73 74 77 73 75 75 71 70 69 64 59 65 66 71 60 57 56 53 47 44 46 43 45 49 57 61 61 62 57 54 51 51 49 48 47 48 46 40 34 35 38 40 46
78 83 88 81 82 84 81 80 78 71 68 70 70 68 68 65 62 52 51 48 46 47 48 55 59 64 62 59 58 57 53 52 53 50 49 49 48 44 39 35 34 35 38
81 83 88 87 82 86 90 94 95 89 75 75 81 82 82 76 72 67 62 60 57 55 57 61 62 64 65 64 61 60 60 55 55 54 55 56 55 51 44 39 36 34 34
89 87 87 90 85 86 86 90 92 99 97 93 89 92 90 87 82 77 76 72 70 69 70 71 69 66 64 63 63 63 60 61 59 57 59 63 62 61 52 43 43 39 36
90 88 88 91 90 89 85 87 89 94 98 97 99 97 96 90 90 86 87 86 83 78 77 76 70 66 65 66 65 63 62 62 64 63 62 66 64 65 58 55 54 51 43
83 86 88 86 97 93 86 86 87 97 96 98 99 99 97 93 93 92 89 88 83 82 78 74 69 67 65 65 60 58 60 61 63 66 64 66 67 66 67 64 62 57 50
84 83 83 87 92 93 90 85 91 94 95 95 95 97 97 97 95 91 86 82 81 79 75 70 65 63 60 59 57 61 60 59 65 65 64 70 69 68 70 64 61 57 53
82 82 81 83 88 87 82 87 90 94 94 93 94 94 92 93 92 89 80 78 75 73 68 65 60 60 56 54 53 60 62 64 68 66 68 73 71 68 72 69 59 54 51
73 76 80 76 83 85 81 78 84 90 92 92 95 94 92 89 86 80 80 75 71 70 66 60 57 52 49 46 47 54 57 60 62 63 71 77 75 73 75 71 63 59 57
63 62 66 67 72 76 78 76 76 83 78 84 82 80 78 75 74 75 75 75 74 68 58 51 50 50 48 45 45 46 54 57 61 66 70 73 75 79 81 78 72 64 59
57 59 56 59 63 66 71 71 76 72 72 72 70 65 62 64 69 70 65 61 59 51 47 45 42 42 41 42 44 47 49 54 58 64 66 71 72 72 72 71 67 63 62
35 38 42 48 52 62 66 72 68 65 69 67 64 67 69 66 65 63 56 49 44 37 37 37 38 39 41 46 48 51 54 56 60 63 64 68 72 75 71 71 62 63 68
34 34 36 41 48 54 70 70 66 68 69 63 60 62 60 56 52 49 43 38 36 35 35 36 38 40 44 47 48 53 55 57 61 63 66 68 69 74 72 69 64 62 62
33 33 34 39 46 52 61 71 76 70 61 60 58 53 52 48 47 41 38 35 35 36 37 38 41 44 46 48 53 55 59 63 63 65 67 67 69 71 67 66 64 63 59
34 36 37 38 43 50 55 60 60 57 56 54 53 52 52 50 45 40 36 35 35 38 39 42 46 47 49 52 55 60 63 64 66 70 69 73 69 68 67 64 57 50 35
38 39 40 41 42 44 49 55 55 53 53 52 50 52 51 49 43 40 39 39 39 41 42 45 48 50 53 58 62 64 63 68 74 75 72 68 69 69 62 52 41 30 23
42 43 45 46 45 45 48 48 50 53 53 53 53 50 53 50 45 43 41 42 44 45 46 49 52 54 56 59 64 65 69 70 78 72 65 58 54 49 40 33 31 33 34
48 48 49 51 52 53 53 54 54 51 51 53 51 49 48 50 49 47 47 48 48 51 55 53 55 56 57 62 68 69 71 74 69 57 49 42 38 36 34 33 34 36 39
47 51 52 55 58 59 56 56 57 58 56 57 56 56 55 53 53 53 53 54 54 54 54 57 55 55 55 60 61 65 60 54 49 48 46 45 42 38 39 42 41 43 44
44 47 51 54 60 64 65 68 67 67 68 68 64 63 63 61 59 58 60 61 56 57 58 55 54 50 47 47 48 47 45 44 47 47 44 45 43 45 43 45 45 49 54

GFSMA_prec_cthk_084.txt.gz
RH
32 32 28 25 25 28 29 31 31 31 30 29 29 30 33 36 36 36 36 38 38 35 33 32 34 40 48 51 52 48 51 46 37 33 33 35 39 42 44 45 47 49 48
32 32 31 29 31 32 32 34 34 34 33 37 37 35 36 40 41 42 44 40 39 38 37 37 36 37 40 51 52 50 48 44 39 36 35 34 36 40 43 44 48 52 50
32 31 32 34 35 35 35 36 38 39 40 49 40 39 44 44 44 47 43 42 42 40 40 40 41 41 41 41 48 49 46 48 43 41 42 37 33 34 38 44 46 49 52
33 33 35 37 38 40 41 42 42 42 48 53 47 46 47 52 49 53 51 57 51 48 47 44 43 44 43 44 46 46 47 50 47 45 41 38 36 35 35 38 46 51 51
39 41 43 46 48 50 50 47 46 46 60 50 46 48 51 56 53 56 54 54 51 50 47 42 41 41 40 44 48 50 56 52 49 45 43 42 40 37 36 36 39 52 63
52 54 51 53 53 53 52 53 59 59 64 56 52 51 57 59 57 56 61 54 48 43 40 38 40 40 42 48 57 59 57 53 48 47 45 44 43 43 40 36 38 42 47
69 70 65 58 61 63 65 62 72 68 73 59 67 61 66 63 67 64 64 55 50 44 43 45 44 47 50 57 61 60 60 59 54 50 49 49 48 48 46 43 38 38 39
74 77 77 76 76 73 70 74 80 77 81 75 73 73 68 71 70 66 65 55 49 48 48 50 50 50 52 59 64 65 66 62 59 55 52 50 53 54 52 48 47 41 38
85 84 82 81 80 81 85 88 86 87 84 86 86 85 83 81 77 80 77 61 60 61 62 65 64 61 62 68 71 68 65 63 62 59 58 56 54 56 58 54 46 49 45
93 90 87 85 83 86 85 86 90 90 89 95 94 98 96 94 90 88 88 81 75 73 73 75 72 69 66 71 69 68 68 66 64 61 62 59 58 59 58 58 57 56 52
95 90 87 82 83 85 80 79 85 90 93 93 92 90 95 99 98 91 90 87 89 89 87 85 85 78 73 72 69 68 70 65 63 65 62 63 61 62 61 59 60 65 61
92 91 88 84 80 81 81 81 83 88 90 91 91 91 98 98 99 97 94 95 94 87 85 83 81 78 72 64 63 63 62 58 60 62 59 60 60 64 64 64 62 63 62
85 87 87 84 77 85 83 82 80 89 97 93 94 92 92 99 98 97 95 93 91 86 81 79 78 74 65 59 58 56 56 56 59 61 62 61 61 61 61 64 62 59 57
86 83 80 78 78 83 83 83 93 97 98 90 94 92 92 94 94 92 89 91 88 81 80 75 72 71 65 60 57 52 52 52 54 56 55 55 58 61 63 62 58 58 57
84 82 82 83 83 83 87 89 91 93 93 93 90 92 89 89 86 86 85 84 80 79 75 71 68 63 55 54 50 47 46 46 48 49 54 54 56 58 60 61 61 64 67
77 77 77 75 73 71 78 84 85 83 83 89 98 86 84 84 83 81 74 70 71 71 70 69 63 54 50 50 47 43 40 40 44 47 48 51 54 58 64 62 62 61 61
64 63 64 59 64 64 67 71 75 78 76 86 85 77 79 77 71 65 64 65 64 62 59 55 49 44 41 38 42 40 41 43 45 46 51 52 55 57 61 60 64 59 58
41 40 39 41 41 49 54 55 63 78 81 81 71 71 71 66 62 62 63 65 62 59 51 44 39 39 39 40 39 39 45 46 47 50 52 55 58 58 61 62 62 62 61
35 35 34 35 38 40 41 47 59 66 82 73 68 66 63 60 65 65 63 58 50 44 41 39 38 38 40 41 42 43 46 46 50 51 56 57 60 62 64 63 62 63 60
29 31 31 33 36 40 45 48 54 68 74 73 74 75 66 60 61 56 54 51 48 43 43 41 40 40 40 43 43 45 45 49 52 56 59 62 64 65 65 67 63 60 59
33 34 34 34 35 38 45 52 57 63 72 77 82 72 64 63 57 54 53 51 44 41 43 42 43 41 43 44 44 47 50 53 56 59 62 65 69 71 68 64 64 61 58
40 39 40 43 43 41 44 51 55 57 68 72 67 65 64 61 59 55 52 48 41 40 40 44 43 45 46 47 50 50 55 59 61 60 64 69 71 69 66 64 64 55 42
36 39 41 43 46 48 49 49 52 56 55 60 64 61 61 62 62 56 52 47 46 42 39 43 45 47 48 48 52 54 58 61 64 69 74 73 66 58 59 54 44 34 29
35 38 38 42 46 49 54 58 58 55 54 58 61 63 62 60 62 58 54 50 47 46 43 46 48 52 50 50 51 56 60 62 64 67 70 62 49 39 38 36 34 32 36
24 29 35 38 41 44 49 56 61 65 64 59 60 62 61 59 61 58 58 53 51 50 49 48 49 52 57 58 54 60 60 58 58 57 51 47 41 40 38 38 36 38 38
21 23 30 38 44 46 48 52 60 66 67 71 70 65 66 67 68 63 61 59 58 55 54 56 54 50 55 60 56 56 55 56 47 43 43 43 42 41 41 39 40 44 44

GFSMA_prec_cthk_087.txt.gz
RH
69 46 38 38 35 26 26 27 27 28 28 27 27 28 28 30 34 34 35 36 35 35 33 32 32 32 36 42 50 50 47 43 40 37 33 31 34 36 37 41 41 46 47
70 47 41 36 29 26 27 29 31 31 31 31 30 31 33 37 37 39 38 39 38 36 36 36 37 37 37 39 46 48 48 44 41 38 35 35 35 36 38 41 44 46 47
72 49 39 30 28 29 30 32 33 33 35 36 36 37 44 46 44 41 43 41 41 42 42 42 42 41 43 43 43 46 47 44 42 41 40 39 39 38 36 41 42 45 47
61 42 34 33 33 34 34 35 36 38 39 40 42 42 50 54 49 49 54 51 47 49 50 49 45 44 44 44 45 45 46 47 47 47 44 44 41 40 38 38 40 48 50
55 40 37 38 37 37 38 39 41 41 43 45 46 48 55 64 56 58 53 52 49 50 51 49 45 41 40 40 46 51 50 57 54 49 49 47 42 43 44 40 41 44 51
41 40 41 42 44 46 46 46 46 46 45 49 50 52 64 63 56 61 58 57 59 52 51 47 40 39 41 42 47 55 56 60 57 54 54 50 47 44 45 45 43 43 47
47 47 49 50 49 50 50 51 53 54 57 58 59 60 73 72 65 67 63 65 61 62 56 48 45 46 46 48 51 55 59 63 62 62 56 52 51 50 48 47 46 45 42
63 59 57 57 60 57 56 60 68 68 69 73 71 72 78 82 71 73 72 68 64 66 56 53 48 51 56 60 62 64 64 69 67 63 60 56 53 54 54 54 49 47 46
85 81 79 74 70 71 69 74 76 78 78 82 81 84 88 87 81 80 80 78 80 74 62 61 62 64 68 69 68 69 68 73 69 66 61 59 56 56 58 56 54 55 53
94 91 92 90 88 85 83 84 87 87 87 87 90 90 91 89 91 95 94 96 92 78 73 73 77 76 75 73 74 76 72 74 71 68 62 61 60 57 57 56 54 58 60
96 95 93 93 91 92 87 87 85 81 82 81 84 88 90 94 95 97 98 96 95 90 84 87 86 85 82 80 75 72 70 66 67 64 61 58 56 55 55 55 56 55 57
93 92 91 90 90 88 86 84 86 86 84 82 82 85 86 90 92 96 95 96 95 94 93 93 90 86 81 78 73 66 64 64 60 58 55 58 54 57 59 56 55 54 55
85 88 89 90 92 93 91 91 90 89 87 86 85 85 86 87 91 96 92 97 97 96 94 91 87 83 80 77 70 62 62 60 57 54 55 53 53 52 49 53 53 51 49
88 86 84 84 85 86 90 90 93 92 87 94 94 92 92 92 93 97 97 92 98 96 93 93 86 82 79 75 69 60 56 54 52 53 52 48 44 48 49 53 52 53 53
92 92 89 91 92 91 90 90 91 90 92 94 95 95 97 96 94 89 86 84 83 88 83 79 78 81 78 77 66 58 53 49 46 43 43 45 47 49 50 50 53 53 49
88 90 91 93 94 93 91 92 87 85 94 92 91 94 97 96 96 92 91 89 85 84 75 72 71 71 71 68 59 55 51 46 42 43 43 46 49 50 50 50 52 51 53
73 75 71 72 74 75 76 75 79 82 87 86 85 86 95 96 88 85 84 81 74 72 69 69 67 64 61 54 50 46 38 43 41 43 44 47 48 52 52 55 54 53 52
50 51 52 52 52 53 58 63 65 67 73 78 81 85 93 92 84 79 71 65 66 67 66 65 61 57 50 42 39 43 42 41 43 45 45 51 52 56 54 55 56 57 57
38 39 39 40 41 41 41 43 47 54 61 62 78 82 90 84 77 71 66 65 65 65 63 60 54 46 41 38 40 40 42 43 43 45 50 53 54 56 57 60 59 58 60
30 30 31 32 32 33 38 41 47 48 53 61 69 78 79 80 74 69 66 68 65 63 61 54 45 41 40 40 39 40 42 42 44 47 52 54 55 56 58 61 62 65 63
38 38 38 38 37 37 37 40 44 51 56 57 68 74 83 81 77 76 72 67 59 56 54 50 43 41 40 40 40 43 43 45 47 48 53 56 58 60 63 66 66 65 61
33 35 36 37 40 40 42 45 47 51 52 65 63 79 75 85 80 81 74 67 62 58 54 50 45 43 42 42 42 42 45 46 50 53 54 58 60 65 66 66 67 66 59
24 28 32 33 35 38 41 45 46 49 54 56 59 60 74 77 79 79 67 62 64 59 54 48 45 43 45 46 49 48 47 49 52 56 61 62 66 69 65 62 63 57 49
17 18 21 26 30 34 36 40 45 46 49 53 58 64 64 64 70 66 75 67 66 64 58 49 46 48 49 50 51 52 51 51 56 60 62 64 65 63 52 47 44 36 32
18 18 17 19 24 30 37 38 41 45 49 51 55 58 61 65 71 72 69 71 65 61 56 53 50 52 54 54 54 54 53 55 56 58 59 58 51 46 39 33 32 33 31
25 24 22 20 21 25 30 36 42 44 46 50 54 57 62 66 69 71 73 71 66 64 58 57 57 54 54 56 56 54 56 58 57 58 52 45 41 40 38 34 36 38 38

GFSMA_prec_cthk_090.txt.gz
RH
84 88 76 61 52 46 44 34 27 26 26 27 27 26 26 27 28 30 32 31 32 32 33 32 32 32 32 34 41 49 48 47 43 39 34 30 30 32 35 39 40 41 43
95 96 86 56 51 48 46 41 30 28 29 29 29 28 29 31 33 34 33 36 36 35 37 37 36 37 38 38 39 47 49 49 44 39 36 34 35 35 36 38 38 40 43
98 88 77 57 49 49 47 41 34 31 31 32 31 31 32 32 35 41 42 43 39 39 40 40 42 44 46 44 42 43 46 45 43 42 41 41 40 38 39 38 39 42 44
85 96 83 60 49 48 46 39 36 36 35 35 35 36 37 37 40 46 50 54 50 43 43 43 45 45 47 46 45 46 46 47 47 48 48 48 45 43 44 40 38 40 48
66 82 93 67 53 49 42 36 38 37 38 39 39 41 42 44 45 49 63 64 52 49 48 47 46 44 43 42 44 49 48 47 52 52 53 53 50 49 46 44 42 41 43
47 55 89 78 53 49 42 39 39 40 41 43 45 46 49 49 49 53 58 68 57 51 51 48 48 44 45 47 47 53 52 50 51 56 58 58 55 52 48 48 47 46 45
60 60 67 62 48 45 41 39 43 44 46 48 50 51 52 54 58 63 66 68 72 59 57 57 56 45 47 49 50 52 57 61 62 61 63 64 60 55 52 52 51 48 46
74 70 69 60 50 46 49 50 50 50 52 53 57 58 61 60 68 71 70 73 74 70 67 66 63 50 53 57 60 65 69 70 69 68 67 68 63 58 56 56 55 56 55
83 76 65 59 55 54 56 56 59 61 62 70 72 69 74 75 76 80 82 80 86 82 83 80 72 63 61 68 72 73 75 76 76 77 72 71 63 61 59 57 55 56 56
92 88 79 73 69 67 65 65 72 77 82 84 89 91 88 87 88 85 86 91 89 90 94 90 78 73 77 78 78 77 79 82 79 75 74 73 65 60 58 54 53 53 53
96 97 97 96 94 92 92 92 91 89 87 84 84 84 89 87 84 83 89 88 89 88 95 90 85 85 84 85 85 84 82 79 75 71 67 69 60 56 58 57 58 53 50
97 97 96 95 98 95 97 94 95 94 93 92 88 88 87 88 84 80 81 85 83 89 85 92 90 93 91 91 86 83 79 72 66 64 64 62 58 55 56 53 50 45 47
97 96 94 95 94 96 96 94 93 91 92 93 91 88 89 89 88 87 87 87 85 89 90 91 89 94 92 89 85 79 75 68 62 61 60 57 51 49 46 43 45 46 50
96 92 93 98 95 94 94 94 94 94 95 93 90 91 90 93 94 96 96 96 94 92 96 96 94 90 92 90 87 82 78 69 62 58 55 53 48 43 39 45 45 46 46
97 95 96 96 94 92 93 94 91 92 95 95 93 93 90 92 99 97 97 95 98 96 95 97 96 90 86 82 85 78 76 68 62 56 51 47 42 43 44 47 46 49 50
93 94 96 98 97 95 94 95 94 94 95 96 95 95 95 95 96 95 95 95 92 91 93 89 90 84 78 78 77 72 65 60 55 51 44 40 41 41 42 45 46 47 48
86 87 85 87 87 87 87 89 89 89 89 90 88 93 92 91 93 97 93 97 94 93 90 88 84 78 76 75 73 67 61 54 50 39 39 39 42 43 45 46 49 51 50
61 67 72 75 76 75 73 73 81 81 83 82 83 86 88 86 88 90 97 90 92 84 85 75 75 74 72 70 63 56 49 42 38 39 40 40 44 46 50 51 52 52 52
42 41 42 44 47 49 52 51 53 57 58 65 71 78 86 84 87 94 94 95 85 73 70 71 70 69 68 64 56 48 40 39 39 41 42 42 42 44 50 52 54 54 54
40 43 44 44 42 43 44 44 46 47 47 51 53 59 67 76 84 90 99 89 75 71 70 70 73 71 67 60 48 42 40 40 42 42 43 42 43 45 48 49 52 55 56
33 35 36 37 36 36 37 38 40 41 44 48 50 56 60 69 77 88 98 83 76 76 75 79 75 72 67 56 45 42 41 41 42 42 44 45 48 48 50 54 56 58 58
22 24 28 31 34 36 37 39 42 44 45 47 50 56 54 61 73 81 80 81 81 77 82 76 70 67 61 52 45 43 43 45 44 44 46 47 48 50 54 57 60 60 62
16 16 17 19 24 30 34 36 40 42 45 48 53 57 62 64 68 77 83 96 85 87 83 87 78 66 62 56 46 44 45 46 46 46 48 48 51 55 56 58 55 54 57
17 16 15 15 15 16 21 29 35 38 40 43 48 54 60 63 69 68 66 72 81 89 93 88 80 71 63 55 49 47 47 49 48 49 51 53 55 57 59 55 48 48 45
20 19 18 17 17 16 16 18 27 34 37 38 43 48 54 60 64 67 67 69 72 78 88 82 83 82 71 57 53 52 49 51 50 52 53 56 57 57 53 44 31 31 29
27 27 27 26 26 24 23 21 23 25 30 37 43 43 48 54 62 67 70 70 68 74 76 79 77 71 65 59 58 57 55 52 54 55 54 55 55 50 41 32 30 30 30

GFSMA_prec_cthk_093.txt.gz
RH
88 86 86 84 90 63 63 57 50 46 33 28 26 25 25 26 26 27 29 30 30 31 33 31 29 30 31 34 35 52 51 48 46 43 39 35 31 31 35 37 37 41 42
80 97 89 88 96 75 63 58 50 45 41 31 28 28 28 28 28 30 33 32 32 32 35 35 36 34 34 36 37 42 51 50 49 45 40 35 35 36 39 42 43 42 41
77 80 97 98 86 81 74 58 50 47 48 42 31 30 30 30 31 33 36 36 36 38 42 40 39 38 38 39 40 43 46 48 49 46 43 42 42 43 43 43 42 44 44
77 75 87 96 92 82 75 64 53 47 50 44 36 33 33 33 33 34 38 40 42 44 47 48 44 43 42 41 40 43 50 49 49 47 47 46 48 49 50 48 47 44 43
75 78 84 98 95 86 78 64 56 54 48 46 40 38 38 37 38 39 42 44 46 50 60 57 54 47 44 41 38 41 54 55 55 52 49 49 51 54 52 50 48 47 45
83 81 88 95 89 80 71 69 63 56 51 46 43 41 42 42 42 44 46 49 50 55 59 61 63 55 47 39 40 45 57 56 56 56 55 58 59 58 57 53 50 49 48
93 93 91 90 94 83 74 65 65 61 53 46 45 45 46 47 48 50 51 52 56 63 62 66 67 69 63 42 44 49 63 61 64 65 66 67 66 63 61 55 53 53 54
98 96 92 89 84 84 71 70 69 63 51 48 47 51 54 53 51 52 55 58 58 62 66 72 73 71 70 57 51 56 68 71 70 74 73 72 71 70 64 58 58 56 57
95 96 87 80 83 80 74 72 68 57 51 51 56 59 62 56 56 60 65 68 65 70 73 74 79 81 81 64 64 70 71 72 74 77 79 79 73 71 65 62 58 54 54
97 93 92 89 87 89 73 60 60 60 62 65 64 63 65 73 75 71 77 75 75 82 82 82 85 86 85 76 77 78 77 79 80 81 82 78 72 70 63 59 58 54 55
96 95 92 92 90 90 82 73 71 73 77 77 80 82 87 89 89 88 86 82 85 82 85 86 86 88 82 82 83 82 81 81 82 81 80 74 71 66 60 54 56 55 52
96 97 97 93 88 85 84 91 90 91 90 90 92 94 94 91 90 89 91 88 89 87 84 86 84 84 82 83 87 87 88 86 79 77 75 70 68 61 58 55 50 44 41
99 98 96 93 91 92 94 98 95 92 94 92 96 94 95 95 94 93 94 92 91 90 89 87 88 87 88 88 88 85 86 81 79 76 72 67 65 58 56 53 47 41 42
97 98 97 97 96 98 95 98 95 98 97 97 95 91 91 92 95 98 95 94 95 95 96 93 92 92 91 94 95 93 86 82 81 77 66 63 58 56 52 46 39 38 41
98 96 97 93 96 96 96 93 94 96 96 96 94 96 97 97 97 95 93 94 99 95 97 96 95 97 99 99 98 93 86 83 81 75 66 60 59 55 46 40 42 43 40
96 96 96 98 97 98 98 96 96 97 96 95 95 97 98 97 98 98 96 98 98 97 96 92 98 97 98 97 94 92 86 82 79 71 62 57 51 46 41 41 42 39 38
90 91 93 93 92 92 95 97 97 93 96 98 98 98 98 98 99 98 98 97 96 96 96 92 93 94 92 91 91 89 83 80 76 69 60 52 44 38 39 39 41 41 40
60 65 72 78 82 82 80 82 86 89 90 89 88 90 93 92 94 97 96 98 94 95 98 97 94 90 87 83 85 82 80 75 66 58 51 44 37 37 38 39 40 42 46
51 50 49 48 50 54 59 65 68 72 73 75 75 77 83 86 90 90 95 95 98 94 99 98 98 86 87 79 80 79 75 67 55 47 43 38 37 38 39 41 42 45 46
31 32 35 38 42 44 45 47 49 50 52 55 56 57 65 67 71 81 92 89 94 98 98 95 88 79 77 76 78 77 72 61 51 44 41 38 38 36 39 40 42 46 46
21 23 24 28 32 34 35 36 39 43 45 47 51 53 56 57 59 61 72 81 94 98 98 92 86 81 81 80 79 76 70 59 48 43 39 39 40 40 41 42 43 44 47
16 16 17 19 22 25 30 36 39 38 40 43 45 49 53 55 55 59 66 69 80 91 92 92 89 88 80 86 85 77 66 55 47 42 40 41 43 43 43 44 46 48 50
16 16 16 16 17 17 18 21 26 35 40 43 46 48 52 54 56 63 62 65 67 76 80 86 83 82 83 82 77 73 65 58 49 46 43 44 47 46 46 46 50 52 51
19 18 18 18 18 19 18 17 15 16 22 34 40 44 48 54 60 63 72 63 80 74 91 95 89 93 96 92 88 83 73 60 51 47 46 46 47 48 49 50 52 53 50
21 23 24 26 25 24 24 22 20 19 19 19 25 37 44 48 55 63 68 72 74 79 76 77 90 91 98 97 97 91 81 69 56 53 52 51 50 52 53 55 55 51 42
17 18 19 22 25 29 32 33 29 26 26 31 28 25 34 45 49 53 58 67 73 71 77 76 77 75 82 86 93 90 84 75 65 56 55 54 57 56 57 57 52 42 30

GFSMA_prec_cthk_096.txt.gz
RH
69 72 79 86 87 88 84 68 64 59 49 42 36 26 24 25 26 26 27 28 29 29 31 32 31 28 29 28 30 37 47 48 48 49 46 43 36 32 34 35 37 39 41
65 69 76 86 94 94 91 80 67 65 54 49 45 41 28 26 27 27 28 30 31 30 31 33 34 35 36 34 34 34 43 49 46 48 46 46 41 38 41 41 42 45 45
58 70 72 74 88 95 94 87 71 67 62 52 50 47 39 29 29 28 30 33 34 34 35 35 36 38 41 42 39 36 39 41 43 44 45 47 44 42 44 45 46 45 44
53 60 66 75 73 89 96 92 82 82 69 62 54 47 47 41 33 30 32 35 36 37 38 38 38 40 50 50 48 44 44 49 44 47 50 50 49 49 46 47 51 49 47
52 51 52 65 72 78 91 96 90 86 77 63 58 53 48 45 40 35 33 36 39 41 43 44 43 44 54 53 49 45 45 46 48 50 52 52 54 56 56 55 53 52 48
57 58 53 60 69 77 83 86 91 86 81 71 64 61 50 50 47 40 38 40 44 46 48 52 49 52 52 54 53 48 53 53 55 52 55 61 61 62 63 62 57 56 51
59 59 63 62 73 81 81 89 92 89 83 72 70 67 58 54 50 46 44 45 47 51 52 55 55 55 59 66 63 52 57 61 65 58 60 66 68 68 68 67 63 58 55
67 70 80 68 78 92 90 92 90 87 83 77 75 72 65 56 50 48 46 47 51 54 54 57 60 62 71 70 69 62 62 69 68 71 70 70 71 72 73 67 67 59 56
76 86 98 89 83 99 94 92 90 87 80 74 76 73 71 60 54 55 57 55 62 59 60 70 66 71 67 75 77 78 69 74 75 77 77 76 76 75 74 68 64 60 59
82 82 96 98 99 99 95 90 89 84 80 77 81 76 71 68 65 62 62 65 68 67 70 76 75 79 78 83 86 82 81 80 81 79 81 80 78 77 73 68 65 57 56
86 92 96 99 97 97 97 97 92 86 86 86 80 77 73 73 69 69 75 78 79 82 86 81 82 84 86 88 87 84 81 80 84 87 84 85 82 79 71 69 63 56 54
92 98 99 99 99 98 98 99 97 94 87 80 80 84 83 84 85 87 89 90 89 88 88 87 88 90 89 86 87 84 83 82 86 87 86 87 79 76 69 65 59 57 53
97 99 98 98 97 98 96 96 97 95 92 90 89 88 91 95 97 92 95 95 93 92 91 92 92 91 91 90 90 88 88 86 90 88 86 81 78 74 67 62 57 52 44
95 99 98 98 99 99 99 98 96 95 96 97 95 94 97 97 97 97 96 98 94 95 92 95 93 93 92 97 95 96 94 95 93 91 88 83 76 70 64 59 57 53 46
97 97 98 98 98 97 95 94 92 93 96 98 99 98 98 98 97 95 97 97 98 97 93 91 90 96 97 97 98 98 99 98 97 93 90 86 79 71 65 60 51 44 39
97 95 95 96 99 97 97 98 98 98 99 96 96 98 97 96 92 96 98 97 97 97 95 96 94 97 96 97 98 98 99 97 96 93 90 87 77 67 58 53 49 41 39
84 87 89 91 94 96 96 94 96 97 98 97 98 97 97 97 98 99 98 97 97 98 97 95 97 97 96 95 97 98 96 96 96 92 87 82 73 64 57 46 39 37 36
60 60 60 64 71 78 84 87 87 87 94 96 97 96 98 99 96 96 97 97 98 97 98 98 96 98 97 95 98 98 96 92 91 87 83 76 65 53 45 38 37 36 35
35 37 41 43 46 49 53 60 66 69 69 76 82 85 87 89 88 92 91 93 97 98 99 98 98 97 97 99 96 96 91 89 88 83 75 67 56 47 41 37 36 36 38
18 19 20 22 25 29 32 34 37 40 44 49 54 59 62 67 73 78 79 83 87 91 94 97 95 98 98 98 97 92 91 91 86 80 70 61 50 44 38 37 36 39 40
13 13 14 15 15 16 17 20 26 32 35 37 42 46 51 55 59 62 67 73 74 84 89 92 92 97 97 98 95 94 94 87 86 80 70 59 51 45 40 38 36 41 40
15 15 15 14 14 14 14 14 14 16 18 26 36 42 45 48 50 52 63 67 74 69 74 80 88 93 95 92 94 95 89 90 87 83 78 62 50 44 41 40 40 43 43
18 18 18 18 18 18 17 17 16 15 15 14 17 26 35 45 53 55 57 61 62 61 78 72 81 84 86 93 94 95 87 89 85 77 68 56 49 45 44 42 44 44 45
15 15 15 15 16 17 18 18 18 19 19 19 18 19 18 28 41 50 60 64 69 66 76 80 77 79 97 87 96 87 91 93 92 89 76 65 55 50 47 45 46 46 47
9 9 9 10 10 10 10 11 13 16 20 22 24 24 23 26 28 42 49 56 64 71 84 79 84 78 77 75 87 93 97 94 97 92 87 73 62 55 51 49 50 50 51
10 10 10 10 10 9 9 10 10 11 12 14 21 27 33 34 38 35 45 54 57 68 75 87 82 87 98 95 99 98 97 97 97 94 90 84 73 66 58 53 53 53 53

GFSMA_prec_cthk_099.txt.gz
RH
71 71 73 77 75 78 79 84 81 66 60 55 52 47 37 31 30 27 26 27 27 28 29 31 31 28 28 27 29 33 41 45 44 42 41 39 36 35 38 39 40 42 41
69 66 64 71 75 75 79 84 90 86 69 64 57 53 48 41 33 30 29 28 30 32 31 34 42 36 34 33 31 33 38 45 47 43 42 39 35 37 40 41 41 42 44
59 58 62 61 65 73 78 83 93 95 85 70 61 60 54 49 46 34 32 31 31 32 33 33 35 41 41 38 36 35 37 46 45 48 47 43 40 41 42 45 46 44 45
48 57 54 59 58 61 78 80 88 90 97 81 74 70 59 54 51 49 39 34 34 36 36 36 36 35 39 39 39 39 42 51 52 48 49 49 43 43 46 50 53 53 51
42 49 54 54 56 58 63 71 77 87 91 88 82 74 69 63 55 53 50 41 38 40 39 40 41 38 39 42 43 45 43 47 52 54 52 55 54 54 56 55 58 58 57
45 47 50 54 55 54 54 59 61 71 85 85 86 83 74 74 67 57 55 49 43 42 44 45 46 46 46 49 50 52 49 46 52 63 60 59 62 60 61 60 62 63 60
49 50 50 52 53 54 53 55 57 64 70 89 88 82 84 76 69 63 66 58 50 47 49 50 52 53 53 53 54 56 60 52 54 63 63 63 66 68 68 66 67 66 62
51 54 54 56 56 59 63 66 64 69 75 82 84 91 91 80 69 68 66 61 56 52 55 55 57 59 60 60 63 65 67 62 59 66 67 72 75 75 75 74 74 68 61
52 56 61 63 62 67 81 74 73 73 82 86 85 88 85 78 80 73 72 66 63 61 56 60 65 67 69 71 69 69 72 72 71 75 79 80 80 80 78 77 73 68 60
53 57 63 68 72 79 86 89 92 91 91 92 93 87 87 88 84 76 70 68 66 64 66 69 71 76 81 80 75 79 81 81 85 82 81 79 82 80 80 78 74 65 62
58 62 61 66 73 85 89 92 99 99 96 99 95 93 88 85 90 86 78 76 74 74 77 77 81 84 87 87 86 84 87 91 87 83 86 83 83 84 84 81 73 66 61
71 72 73 73 84 90 96 98 95 95 97 97 95 94 90 89 91 87 83 81 83 80 88 89 88 88 87 89 91 91 94 93 87 87 88 87 87 89 88 82 75 64 58
89 89 88 90 96 98 98 98 98 98 97 96 94 93 93 94 89 88 90 93 93 88 94 91 88 91 90 91 91 93 94 92 89 88 90 93 88 89 88 80 77 67 58
91 97 94 95 98 97 97 97 98 98 97 97 97 94 97 96 95 91 94 95 96 96 94 89 89 91 93 93 93 95 95 92 92 92 91 95 96 93 86 83 74 66 59
96 97 98 98 98 98 98 98 98 98 98 95 97 96 96 96 96 97 98 98 97 99 95 91 90 95 93 91 91 91 96 91 92 95 95 96 94 92 87 81 74 66 60
94 97 96 98 98 98 98 97 97 98 98 97 95 95 97 97 96 98 98 96 97 98 96 94 93 95 90 91 92 91 96 97 98 96 94 94 95 91 87 80 72 63 53
70 72 80 85 89 92 94 96 97 95 96 98 99 98 98 98 97 98 98 98 98 99 98 97 98 95 96 93 94 92 96 98 99 98 95 95 93 93 89 77 69 59 49
49 53 53 56 59 62 69 75 82 88 90 92 96 98 98 98 98 98 99 98 98 97 98 97 98 96 97 95 96 98 97 99 99 97 96 96 91 85 81 73 63 53 41
22 23 23 23 25 30 38 39 43 49 59 62 68 75 81 87 93 96 94 94 94 97 97 97 96 96 98 99 97 97 98 98 98 98 96 95 91 84 75 67 56 46 40
13 13 12 13 13 14 15 16 18 22 28 33 37 41 47 54 59 63 70 82 85 83 88 95 94 95 93 97 97 98 98 98 97 93 95 93 89 80 72 62 53 44 39
16 16 16 16 15 15 14 13 12 12 12 13 15 22 31 35 40 43 50 53 55 64 75 81 88 93 92 96 97 96 98 99 98 97 96 92 88 76 69 62 51 46 41
17 17 16 16 16 16 16 16 16 16 16 15 15 14 13 14 27 37 43 50 52 52 54 65 77 80 84 92 96 93 98 98 97 97 97 93 89 79 72 61 54 47 43
13 12 11 10 9 9 9 9 10 10 11 13 15 16 16 16 16 15 27 39 48 53 60 60 62 65 66 82 89 88 90 91 95 96 95 94 90 84 71 57 50 46 43
11 11 10 10 9 8 9 8 8 8 8 8 8 9 12 14 17 21 21 19 37 45 59 68 64 60 60 77 76 88 97 96 94 96 92 89 86 83 69 57 53 50 47
14 14 13 12 12 11 10 9 9 9 8 8 8 8 9 9 10 16 29 30 27 29 54 61 76 76 71 78 78 80 87 97 98 96 96 91 93 91 81 70 62 56 49
22 20 17 16 14 13 13 12 11 10 9 8 7 7 8 9 10 13 20 29 36 37 37 61 74 83 77 88 83 90 88 93 91 96 98 97 98 96 90 74 65 59 56

GFSMA_prec_cthk_102.txt.gz
RH
72 72 71 73 75 82 81 74 79 78 77 72 63 57 55 54 48 38 34 29 28 28 28 29 30 27 24 25 25 30 34 40 42 41 40 38 39 37 34 34 36 38 42
74 70 69 72 70 78 77 80 80 82 81 82 73 67 59 52 53 48 43 34 31 30 31 34 42 48 35 31 31 29 33 43 43 43 43 44 43 39 40 41 39 38 41
66 61 58 60 61 68 78 78 81 82 80 83 82 71 67 58 59 53 51 46 34 32 33 34 33 40 50 56 42 34 32 32 37 40 44 46 46 46 43 45 47 50 48
63 56 55 52 49 54 60 68 73 72 73 80 85 91 84 68 62 59 55 53 47 32 32 35 37 36 39 46 50 39 36 35 43 44 44 47 49 47 50 52 52 55 55
65 58 57 56 52 46 44 54 66 66 67 79 82 89 88 82 73 70 60 58 55 49 38 38 38 41 40 40 42 51 43 41 40 46 50 53 51 52 54 59 57 56 58
60 57 52 49 49 47 45 44 56 66 68 66 75 86 91 87 82 73 71 64 63 61 57 47 44 42 45 45 42 47 56 49 46 44 50 55 56 58 58 60 63 62 66
44 45 42 43 46 48 49 51 53 54 59 65 64 69 71 73 77 76 76 74 65 69 67 54 58 52 48 51 50 50 59 62 61 51 55 59 59 60 63 69 71 70 70
42 40 41 41 44 51 54 55 55 57 58 61 62 64 68 72 73 66 73 78 74 79 69 62 62 63 59 59 61 60 63 64 68 67 60 59 67 70 74 75 78 77 75
47 43 42 41 47 56 59 62 61 61 64 70 80 81 79 70 70 68 76 71 81 82 74 70 70 69 69 71 71 67 68 73 72 73 78 72 79 79 75 76 80 80 78
53 50 48 48 53 55 61 68 69 70 75 81 88 87 84 80 79 78 75 77 84 79 78 77 75 72 74 75 72 75 84 84 82 80 79 81 85 81 78 77 80 80 78
59 58 54 58 59 59 62 66 71 77 82 85 85 88 92 92 91 89 89 87 82 80 82 78 77 78 75 73 83 89 92 94 92 88 88 91 93 85 81 81 84 83 79
71 70 68 68 73 74 76 69 75 82 83 87 90 97 96 99 95 96 95 92 90 94 89 88 87 87 84 84 88 89 93 94 95 90 92 94 95 92 88 89 90 84 80
79 80 80 80 82 79 79 86 86 89 91 93 97 99 98 99 99 97 95 93 94 93 91 85 86 87 89 87 92 94 91 94 95 93 94 95 94 94 94 95 90 92 81
92 91 91 96 99 93 95 95 98 97 97 98 98 98 98 99 98 95 94 95 98 97 96 87 90 89 91 95 97 94 94 92 92 94 94 96 95 96 96 97 97 93 81
92 94 97 98 99 99 99 97 98 99 99 97 99 98 96 96 95 94 94 96 99 98 94 91 92 93 93 93 95 95 92 92 91 92 93 94 95 96 97 97 96 91 82
83 88 91 94 94 97 98 99 99 98 98 98 98 98 98 96 96 96 96 97 97 98 98 96 96 94 91 94 96 95 95 93 91 91 90 93 97 96 95 96 94 90 84
65 65 71 74 79 83 90 92 94 96 97 97 98 98 98 98 98 98 97 96 98 97 97 96 95 95 97 99 98 98 94 93 91 93 93 95 95 94 97 95 95 88 82
44 41 43 47 50 56 58 62 65 69 76 87 93 94 95 97 98 98 97 98 99 99 99 98 97 98 94 97 98 98 95 95 93 93 95 97 97 97 97 95 93 91 77
14 14 15 16 18 18 18 19 22 31 35 42 49 56 68 81 86 92 96 98 98 98 98 92 88 92 94 96 97 96 97 97 97 96 98 99 98 96 97 98 92 81 72
16 16 16 15 15 15 15 15 15 14 14 14 16 21 29 40 47 53 58 62 68 75 90 89 89 91 95 92 94 91 93 95 97 97 97 98 95 96 94 92 88 79 69
15 14 13 13 13 13 13 13 14 14 14 15 16 16 15 15 14 18 28 37 42 46 50 53 56 58 66 79 92 95 92 98 98 93 98 99 97 98 96 92 85 77 68
13 12 12 11 11 11 11 10 10 9 9 9 11 12 14 16 16 16 16 16 23 35 43 51 52 49 53 54 67 72 87 93 97 96 98 98 97 96 97 89 86 79 66
13 13 13 13 13 14 14 13 12 11 11 10 9 8 8 8 9 12 15 17 17 18 27 37 46 52 52 51 61 62 69 78 86 92 95 98 98 95 98 94 87 78 69
16 17 19 20 20 19 18 18 17 16 15 13 12 12 13 12 11 10 10 13 14 17 20 26 32 44 51 60 59 66 66 68 70 78 81 93 92 93 97 98 95 85 73
19 20 21 21 23 23 24 22 21 20 18 17 18 17 16 13 13 12 12 19 19 19 14 21 28 31 38 55 69 69 74 68 73 75 84 83 91 94 98 94 90 82 72
32 32 33 30 28 26 24 23 22 21 24 25 25 24 23 19 14 13 16 21 20 20 19 15 17 28 36 42 66 71 76 72 79 79 70 81 91 98 95 92 91 87 77

GFSMA_prec_cthk_105.txt.gz
RH
77 73 77 80 84 78 79 83 85 81 78 77 74 66 62 60 56 54 52 45 35 27 26 24 28 25 23 23 23 23 28 32 38 40 40 39 37 35 36 38 39 39 39
66 71 69 75 72 81 84 79 78 83 82 85 82 78 71 62 64 60 55 53 47 40 31 29 28 36 46 35 26 28 26 30 41 43 42 40 39 39 39 42 45 42 43
59 60 70 66 73 69 68 71 84 83 82 87 89 87 81 72 63 62 62 59 53 49 46 39 32 30 35 56 55 47 37 35 35 34 39 41 41 40 42 47 48 48 49
62 61 60 60 56 68 63 60 58 65 78 83 82 88 87 82 73 68 63 70 68 59 53 53 47 36 33 36 58 58 55 48 37 37 41 41 42 44 45 49 50 52 53
61 62 58 57 58 64 63 59 55 60 59 64 70 79 80 75 82 81 78 75 70 63 63 58 54 50 43 37 36 45 47 55 50 40 38 44 47 48 52 53 53 53 57
49 54 56 55 58 63 67 57 55 53 54 49 50 62 74 74 78 85 78 76 75 81 71 62 60 56 57 47 44 39 43 51 58 56 50 45 51 55 56 53 54 58 65
49 49 49 53 51 48 53 60 60 56 52 49 50 53 64 74 71 72 74 85 72 81 71 67 66 63 58 63 56 49 44 47 54 61 71 58 58 64 60 55 61 68 73
45 45 43 41 46 47 44 44 48 53 54 55 62 62 61 58 64 64 62 63 61 65 65 62 69 67 64 70 67 61 62 58 54 62 66 75 68 66 66 67 72 75 73
47 42 39 40 40 47 46 42 45 52 61 65 67 68 68 64 61 58 61 67 67 63 64 60 68 72 73 76 70 69 67 69 69 70 80 84 81 74 74 77 78 77 76
49 46 42 40 40 43 47 47 50 59 62 72 81 74 73 73 69 76 81 77 77 73 74 62 64 72 75 80 78 77 78 80 86 84 82 84 84 88 84 84 83 81 79
49 44 47 49 50 53 54 58 63 68 70 78 79 80 78 81 81 82 80 78 83 81 84 78 78 76 82 84 80 81 81 80 91 92 94 95 93 94 95 93 90 86 82
51 57 61 61 65 66 63 71 75 78 79 75 76 77 82 81 88 87 87 89 87 91 93 88 87 88 88 90 86 89 89 89 95 94 92 96 96 97 97 97 94 92 85
68 74 80 76 77 77 77 78 79 84 85 83 82 83 87 88 90 93 95 96 95 97 97 92 91 91 89 86 89 89 89 91 91 91 93 93 94 96 98 98 97 94 92
87 87 82 94 88 87 89 91 92 93 91 92 97 98 98 99 99 97 99 100 99 97 95 93 92 90 89 89 88 91 92 95 94 94 94 95 92 95 97 98 98 98 94
86 90 85 83 89 88 96 98 99 99 97 95 98 98 99 99 99 99 98 99 99 98 97 93 92 92 93 93 92 91 90 90 91 95 95 95 91 94 97 99 99 98 96
79 73 73 75 81 92 92 95 96 97 96 98 98 98 99 98 98 98 98 98 99 98 97 95 93 96 95 95 94 93 91 94 93 92 94 94 94 93 96 98 98 98 98
58 59 60 57 61 67 69 78 85 93 92 93 95 98 98 98 98 98 98 99 98 98 97 94 97 96 95 97 96 95 96 95 96 96 94 94 93 94 96 99 97 99 99
34 32 33 40 40 40 49 50 52 54 64 66 71 78 88 92 94 96 97 98 98 96 98 98 97 97 96 98 94 96 97 96 96 95 94 94 93 95 96 98 98 97 98
14 14 14 14 14 19 14 20 21 23 19 23 29 37 41 49 68 75 85 93 95 97 97 97 97 96 97 93 92 94 95 93 95 95 92 92 92 93 94 97 96 96 96
14 13 13 13 12 12 12 11 11 11 12 12 13 14 15 16 22 29 37 58 66 74 87 92 95 92 93 93 96 89 90 94 97 95 90 84 88 92 93 92 96 96 93
14 13 12 12 11 11 12 10 10 10 10 11 10 10 11 12 13 15 15 17 25 36 45 56 60 62 60 65 75 80 83 84 87 89 89 92 90 89 93 92 90 88 87
13 13 13 13 13 13 13 13 13 13 12 12 12 12 11 10 10 10 11 13 15 16 18 25 31 37 44 46 49 50 54 60 72 79 84 88 92 89 92 91 92 91 88
19 20 21 21 21 21 19 19 20 20 21 21 20 18 17 17 16 17 14 11 11 13 15 19 26 27 30 37 47 53 50 55 62 67 74 84 83 83 86 90 93 92 93
29 29 29 29 29 29 28 25 24 23 23 23 26 27 29 27 23 21 17 15 13 13 15 17 18 22 26 30 33 38 47 53 55 61 65 69 79 82 86 87 89 93 95
33 33 34 35 34 33 31 31 31 29 29 29 32 32 32 32 32 30 23 20 18 16 17 21 22 22 20 21 30 37 42 49 53 60 63 65 69 75 85 88 88 90 91
35 36 36 35 34 34 34 34 32 30 32 34 34 34 34 37 36 34 32 31 30 27 26 20 17 16 15 15 18 25 41 47 49 54 65 71 68 72 82 85 82 93 97

GFSMA_prec_cthk_108.txt.gz
RH
67 61 74 69 70 83 79 82 81 83 83 82 80 78 70 69 63 57 57 58 54 49 40 33 30 31 27 22 20 21 23 25 32 35 38 37 36 35 32 34 34 36 41
56 55 53 66 69 79 81 81 82 83 84 83 83 86 89 81 77 72 68 61 61 57 51 46 43 37 38 39 37 25 23 24 27 35 41 41 40 37 36 35 36 39 43
55 50 47 50 54 59 67 76 74 79 84 92 85 80 84 88 86 80 76 71 69 62 62 54 53 48 44 43 48 47 43 36 33 35 33 35 39 39 38 38 39 42 48
56 52 50 51 55 56 53 52 58 61 66 73 71 81 84 87 94 89 85 74 66 62 62 62 64 56 51 50 46 55 63 63 62 46 41 37 39 39 39 41 42 47 52
56 50 53 56 55 55 55 53 50 54 56 59 68 62 72 83 85 89 88 85 74 63 63 66 72 68 58 54 54 48 52 65 63 60 51 44 41 43 44 45 48 52 52
58 56 54 53 53 51 50 52 53 51 52 52 57 60 56 59 62 66 73 74 78 73 68 65 71 74 73 65 59 59 54 44 60 64 65 56 47 45 50 52 54 55 55
69 66 55 55 54 50 48 44 43 42 43 42 53 64 59 55 51 47 50 62 71 74 78 65 58 75 79 73 62 59 62 55 52 57 60 67 66 61 57 63 64 67 62
70 71 62 54 50 46 42 40 38 37 39 44 44 52 63 66 59 56 54 56 65 71 72 68 64 58 58 60 57 54 57 65 62 65 67 65 71 73 64 66 69 68 66
74 77 66 59 49 46 41 39 41 39 37 41 46 55 63 68 65 60 59 57 57 61 65 66 63 62 68 57 68 59 58 60 68 74 76 76 75 77 73 74 73 77 73
77 74 65 53 49 47 43 44 45 44 52 49 53 59 69 70 73 73 71 65 65 64 65 74 81 78 73 67 69 64 63 63 70 73 81 87 86 87 88 87 86 82 80
84 82 63 55 50 46 44 48 49 51 54 62 63 68 78 78 82 88 83 76 75 71 71 73 76 76 77 72 70 69 71 68 74 76 80 90 95 96 97 96 92 89 87
76 72 72 62 58 51 57 56 57 57 61 63 69 77 82 85 85 85 81 82 86 81 90 86 78 77 84 84 84 81 82 84 78 81 85 85 95 97 96 98 96 95 93
79 76 70 69 62 62 71 75 71 68 73 75 81 82 86 89 87 84 80 83 97 88 89 84 83 90 93 93 93 91 90 90 87 85 87 94 92 94 94 95 98 98 99
64 64 66 69 78 81 82 93 93 82 83 88 83 92 92 90 87 96 96 98 97 98 95 88 91 97 97 94 95 94 92 92 93 89 91 90 90 92 93 94 98 99 98
87 85 86 85 80 78 74 87 93 89 97 94 94 97 93 92 94 98 98 99 99 98 96 96 97 97 97 97 96 94 93 95 93 90 89 90 90 92 94 92 95 97 98
73 71 72 71 68 67 65 68 77 87 93 97 97 96 98 98 96 97 99 99 99 99 96 94 94 96 96 95 95 95 94 94 92 89 89 88 89 90 90 91 94 96 98
63 58 53 50 47 48 50 51 52 61 66 76 90 94 90 92 96 96 97 98 98 98 97 96 95 97 96 98 97 96 96 95 96 94 93 92 92 93 93 93 95 96 97
17 16 14 13 11 11 19 25 32 28 37 41 52 55 62 66 78 89 90 93 95 96 98 98 98 99 98 98 98 97 99 98 97 97 96 96 95 96 95 95 95 97 97
14 13 13 13 13 12 13 12 12 13 16 18 22 22 22 20 29 41 57 61 73 87 91 95 97 98 98 99 98 98 99 97 95 96 96 96 95 94 91 92 93 97 97
14 15 14 14 14 14 14 12 12 11 11 10 10 12 10 11 11 11 13 16 21 42 49 76 88 92 93 96 99 98 98 97 96 94 91 92 94 91 81 82 89 94 95
16 16 16 16 15 15 16 16 15 15 14 13 12 12 12 11 11 11 11 11 11 13 16 21 50 62 70 82 91 92 90 86 85 86 82 84 91 89 86 79 83 88 92
29 28 28 26 24 21 20 20 19 19 19 19 19 19 19 18 19 18 15 14 13 14 14 14 16 24 38 50 58 67 68 65 65 68 70 79 83 83 81 81 87 88 89
31 31 32 33 33 34 34 35 34 32 31 29 26 23 20 20 22 26 27 23 19 18 18 19 18 18 21 23 26 29 43 51 48 45 46 52 64 74 77 79 84 87 86
29 29 29 30 31 31 32 33 38 36 35 34 34 35 37 37 35 34 31 26 23 21 22 24 28 26 22 17 19 23 26 33 36 38 42 47 50 64 75 75 79 82 86
33 34 35 36 35 32 31 31 34 32 30 27 28 31 31 33 36 40 44 36 31 28 29 30 30 29 28 24 18 16 15 20 25 34 37 43 50 54 65 70 82 83 83
34 32 31 32 32 32 31 31 34 36 35 33 31 30 28 30 34 41 43 44 40 36 34 31 29 28 27 23 20 21 25 24 26 28 30 38 43 54 54 56 69 79 82

GFSMA_prec_cthk_111.txt.gz
RH
55 55 58 59 68 69 69 70 72 79 80 81 79 79 79 77 73 69 64 61 62 59 55 54 46 39 35 32 24 21 20 23 27 31 32 35 35 33 31 29 30 32 34
48 51 52 53 66 70 69 71 75 76 79 84 86 86 86 86 83 85 83 74 70 70 65 62 59 52 48 47 44 36 27 23 22 27 30 36 38 37 34 32 31 33 36
50 49 55 55 58 53 56 61 73 69 78 83 84 84 94 91 89 88 85 86 82 75 73 69 64 59 55 54 48 48 53 47 35 31 31 36 34 37 37 35 33 35 37
58 63 53 54 54 53 52 52 53 57 54 55 66 70 69 73 80 90 91 91 96 87 81 73 63 55 51 57 62 60 52 58 63 65 61 58 46 38 38 38 36 38 40
64 71 65 63 61 54 54 53 54 52 49 52 56 54 56 61 64 73 78 89 93 89 87 83 73 63 58 61 68 69 61 55 63 74 72 66 61 52 46 44 41 42 43
70 74 76 68 70 68 58 56 53 51 49 48 48 47 48 46 48 55 63 69 74 78 80 76 73 76 70 62 66 66 71 66 61 64 69 71 65 59 51 52 53 52 50
72 80 82 79 78 73 70 65 56 52 49 48 47 40 37 37 41 46 51 59 65 62 65 66 65 67 72 71 64 60 71 72 65 65 60 55 65 68 65 59 56 58 62
73 85 87 88 88 84 79 73 57 46 44 41 41 39 36 33 31 32 39 50 57 63 60 56 55 64 69 79 78 59 65 72 64 66 65 52 56 65 71 76 70 63 69
79 98 97 95 92 87 82 69 60 50 43 39 41 45 48 41 40 40 41 43 56 60 63 65 62 60 60 69 71 71 66 58 55 55 60 61 65 64 69 80 80 72 71
85 88 90 89 85 83 74 65 62 55 49 40 40 41 46 52 57 51 49 50 58 64 66 67 66 67 64 62 65 67 74 71 70 68 66 74 64 69 82 83 84 82 75
95 95 92 86 88 83 74 71 65 56 48 45 47 47 50 57 57 63 55 59 69 68 75 80 78 74 76 71 67 83 86 78 75 70 70 74 67 69 90 89 92 90 87
98 98 98 95 88 85 81 75 69 60 55 52 58 56 63 67 65 67 67 68 74 75 79 82 83 85 83 81 79 76 79 82 75 76 75 78 74 78 84 87 97 96 95
80 80 81 80 76 72 70 66 67 66 62 66 74 74 70 71 77 84 77 76 81 81 85 82 80 80 88 90 92 90 86 86 84 81 88 83 80 84 81 85 90 98 99
71 68 69 68 66 63 56 56 52 64 73 77 84 88 87 85 86 87 92 91 98 94 85 83 91 92 90 93 96 86 88 91 92 93 96 92 90 92 85 87 87 92 95
71 79 87 84 85 81 79 81 74 67 64 71 87 93 90 97 97 95 90 97 98 91 88 96 92 95 97 98 96 92 95 97 97 97 97 93 95 94 93 89 90 94 95
73 76 73 69 63 62 59 57 56 53 55 53 58 74 87 96 97 97 92 96 97 88 97 97 99 99 98 98 99 99 98 99 97 97 97 95 93 94 93 91 89 95 92
33 29 24 30 26 17 15 14 12 19 24 38 34 38 57 76 88 90 94 96 97 97 99 96 99 99 98 97 97 95 98 97 97 97 96 96 96 96 92 90 91 91 89
14 13 13 13 13 13 13 13 13 13 12 12 21 27 29 40 46 54 53 65 84 91 95 96 96 95 98 97 96 98 98 99 98 97 98 99 98 96 95 94 92 91 91
16 15 15 15 15 14 15 14 14 14 13 13 12 12 13 19 19 26 31 32 34 56 70 79 82 91 94 96 97 98 98 98 99 99 99 98 98 97 97 97 96 95 96
28 28 28 28 28 28 26 22 18 16 15 15 14 14 14 15 14 13 16 16 14 17 22 36 40 47 73 88 95 95 95 98 98 98 98 99 99 98 97 97 96 95 95
26 26 27 27 27 27 28 30 33 35 32 29 24 20 20 21 20 21 21 18 16 13 12 13 15 17 25 44 63 83 93 95 95 97 98 98 97 95 95 96 95 92 88
25 28 28 29 29 29 29 30 30 32 33 33 35 33 33 32 28 25 24 25 25 23 18 16 19 17 14 18 23 43 58 74 85 92 95 92 91 90 89 94 92 90 84
29 30 29 29 30 30 31 30 29 30 31 31 29 27 31 34 38 40 41 37 31 27 23 26 29 26 23 21 18 16 26 39 53 71 80 77 74 75 81 85 92 90 87
31 31 31 30 29 28 28 27 28 30 30 30 29 27 27 27 29 32 38 43 45 44 40 32 29 30 32 32 29 24 18 17 22 29 48 63 64 59 60 63 72 83 86
32 30 29 28 27 26 27 28 31 32 33 33 34 33 32 31 29 34 39 42 37 33 37 41 41 40 34 29 28 29 24 22 20 14 14 26 30 35 44 49 54 62 73
30 28 28 27 26 27 29 32 37 36 36 36 35 34 34 37 38 40 43 43 43 39 36 32 33 36 37 38 35 32 28 31 32 31 21 23 23 27 28 29 45 54 62

GFSMA_prec_cthk_114.txt.gz
RH
47 53 58 61 65 64 62 64 70 71 73 71 71 74 79 78 79 78 71 66 65 63 60 59 57 55 50 44 40 36 28 24 24 26 30 31 33 32 31 28 27 28 29
42 45 49 51 52 53 56 63 70 68 80 83 88 82 82 85 86 87 85 83 81 79 74 70 69 67 62 55 54 51 47 40 30 26 28 33 35 36 35 32 30 29 30
42 51 50 49 51 49 51 57 65 63 66 74 88 90 91 91 90 94 92 91 92 88 87 83 77 75 71 67 61 61 57 58 53 46 36 33 37 41 40 37 33 30 31
48 50 58 56 56 56 55 56 57 54 53 52 54 62 69 75 79 80 85 88 93 95 92 92 90 87 78 70 63 56 59 60 61 55 63 53 54 52 49 48 44 38 34
38 57 58 64 71 74 74 69 58 54 53 53 51 48 49 51 57 64 64 69 72 79 86 91 90 90 88 81 73 60 59 64 73 69 64 69 72 66 60 58 55 50 46
32 56 65 71 79 78 83 85 83 80 67 57 51 46 43 42 43 44 45 46 47 51 64 71 80 85 86 87 79 69 66 59 67 72 70 65 74 78 73 67 60 59 55
34 42 64 82 84 92 90 88 84 80 75 70 62 49 42 40 38 37 36 35 36 40 46 52 59 64 71 75 76 76 75 66 64 67 70 66 67 67 72 71 65 53 59
40 47 52 66 83 98 93 92 88 86 81 77 73 67 53 39 32 31 30 29 27 28 31 38 50 57 60 62 65 64 70 70 67 65 59 69 69 65 69 72 64 65 61
49 52 77 78 75 88 98 98 93 89 83 80 80 77 61 47 36 31 27 29 34 36 35 36 42 51 57 61 63 60 60 72 76 72 69 68 72 64 62 64 61 64 73
70 73 77 97 96 95 95 98 93 92 87 82 77 75 70 61 52 41 34 33 36 40 45 43 41 50 59 64 64 63 60 62 75 74 72 65 65 60 63 65 66 64 69
86 84 80 82 93 95 97 94 96 94 89 84 77 72 67 60 56 59 46 42 42 45 48 49 50 51 59 73 75 70 70 69 69 74 73 76 70 70 73 70 77 80 72
95 95 90 81 84 87 88 90 91 89 88 81 76 77 71 71 67 68 63 52 57 57 54 52 52 58 66 74 79 81 80 82 78 76 74 81 83 81 81 73 77 82 83
83 81 82 83 77 73 74 72 66 63 62 61 64 65 71 77 78 75 79 64 60 55 64 67 62 71 80 86 84 88 87 91 84 84 76 85 83 80 86 83 83 81 84
66 66 68 70 70 67 67 63 60 60 57 53 50 52 57 79 87 84 80 85 72 66 73 78 76 89 90 91 89 90 87 90 88 93 91 92 90 90 92 91 94 84 90
72 71 72 75 76 74 71 69 68 68 65 70 69 63 59 51 67 89 96 95 88 85 87 90 93 98 98 97 95 92 95 96 94 94 95 95 89 94 93 94 94 96 96
31 36 39 36 38 39 40 43 36 28 26 31 25 26 28 47 40 46 71 97 94 97 96 97 95 96 97 98 93 97 99 98 96 96 98 95 95 96 93 95 96 96 95
14 13 13 13 12 13 13 13 13 14 14 13 13 13 14 15 33 33 32 51 75 86 92 95 98 97 96 94 95 97 98 98 99 98 99 97 97 96 96 97 96 96 97
24 23 22 21 21 20 19 19 18 17 16 15 14 14 14 14 14 16 22 26 40 51 63 63 75 93 95 94 96 97 96 97 98 98 97 96 98 97 97 97 97 97 97
25 25 25 26 26 27 28 28 29 30 30 29 27 24 20 18 17 16 17 18 21 30 37 46 48 53 81 88 89 95 97 98 98 98 98 99 99 99 97 97 98 96 96
24 24 24 25 27 27 27 27 28 28 27 27 28 28 30 31 32 29 27 25 26 22 19 18 25 35 46 63 74 78 90 96 98 98 98 99 98 98 98 98 98 98 98
24 26 28 28 28 27 27 28 29 30 32 31 30 29 28 29 31 34 39 39 36 28 25 23 18 15 23 35 50 56 61 72 92 97 97 97 98 98 99 99 99 99 98
28 30 28 27 26 26 25 24 23 23 24 25 25 25 24 24 25 28 31 32 39 44 44 36 26 28 25 22 20 24 29 34 59 73 89 95 98 97 98 97 98 99 98
31 29 28 27 24 22 22 22 22 24 24 24 24 25 25 24 23 23 24 27 31 34 37 45 46 38 31 30 30 25 20 23 23 36 50 65 81 94 96 96 96 98 98
30 29 28 24 23 22 21 21 23 25 25 27 28 29 29 29 30 33 32 30 30 31 31 31 33 39 44 39 35 31 28 24 17 12 19 36 48 61 82 91 89 94 98
32 31 28 24 23 21 23 24 27 27 29 29 28 25 23 21 21 26 28 30 31 30 30 32 35 35 34 39 44 42 33 29 26 20 13 22 20 32 45 68 75 84 86
32 31 27 24 22 24 24 25 26 29 28 28 28 28 26 28 30 31 33 33 31 27 26 30 37 38 37 36 37 40 44 43 38 35 36 35 25 28 31 39 51 63 84

GFSMA_prec_cthk_117.txt.gz
RH
35 41 45 48 52 57 62 70 67 68 65 71 67 69 71 71 72 72 76 77 68 65 63 61 60 65 61 56 52 43 40 36 30 27 27 31 32 30 31 29 28 27 27
29 33 37 43 50 51 54 61 63 62 63 67 73 76 76 87 88 90 87 86 83 81 81 78 73 73 74 71 64 60 54 51 50 43 36 30 32 35 36 35 33 30 29
24 28 35 41 44 48 49 52 57 56 59 67 65 72 71 82 90 92 93 95 95 93 92 92 90 88 84 80 78 72 68 61 60 59 58 49 40 37 39 40 39 36 34
15 25 31 41 47 57 56 52 52 54 62 76 75 65 59 60 67 78 82 82 83 84 89 88 93 94 93 91 85 82 77 70 63 59 57 58 55 48 44 51 51 49 46
19 19 28 34 53 57 67 70 66 70 63 72 71 62 56 49 47 45 53 62 69 71 71 71 76 82 89 94 93 93 85 80 77 68 63 61 66 61 67 68 60 55 55
24 24 26 35 38 60 68 78 82 85 88 87 77 69 57 54 50 44 42 41 45 47 52 56 57 58 65 77 81 90 89 86 81 73 66 67 63 67 68 76 76 64 60
36 31 33 33 41 64 72 84 87 89 91 93 93 89 80 72 57 47 42 40 40 43 44 42 42 43 46 49 54 64 76 84 87 79 79 69 66 65 69 64 74 80 72
45 46 41 44 44 51 61 81 86 88 98 96 94 89 80 71 65 62 59 51 41 38 35 30 27 28 27 30 38 49 57 64 73 79 83 79 67 65 67 67 62 67 70
53 55 55 56 58 59 59 73 89 98 91 98 96 94 87 80 75 68 67 62 56 41 32 28 26 27 30 31 31 34 42 50 61 68 70 79 76 76 71 67 67 64 67
76 74 70 64 63 74 82 75 74 88 89 94 96 97 96 91 85 70 71 68 61 51 41 40 37 34 35 39 38 39 42 48 54 60 66 69 79 75 70 78 77 73 68
83 84 80 83 80 75 86 99 94 88 93 92 95 93 94 94 89 79 68 63 60 64 58 55 51 47 44 46 47 45 44 49 57 61 66 71 73 76 84 80 83 78 73
74 76 83 82 84 78 70 76 76 85 79 81 81 87 87 86 76 71 68 61 57 56 57 61 60 55 55 58 53 48 49 50 57 67 72 77 77 76 79 75 80 80 83
63 65 67 69 76 80 78 71 68 67 68 67 66 66 61 56 59 60 63 62 59 57 60 61 73 73 68 67 66 64 60 64 61 68 77 83 84 83 80 84 84 86 93
72 71 68 72 67 68 67 63 58 55 60 59 56 56 58 61 57 56 51 45 47 59 65 70 74 75 74 70 70 72 70 71 72 77 86 90 95 92 90 84 80 96 94
17 18 22 26 34 39 44 50 47 44 46 45 38 33 31 34 34 33 29 35 46 52 53 68 77 81 82 82 77 82 78 84 83 91 93 93 95 93 92 94 86 91 91
19 17 16 15 14 14 13 13 13 13 13 13 13 12 13 14 18 14 14 14 19 32 48 43 71 85 87 93 96 91 93 99 96 97 97 97 95 95 91 97 97 97 93
25 24 24 25 26 26 26 26 25 25 24 23 21 19 18 16 16 16 16 17 17 18 26 30 31 59 76 85 94 94 94 98 98 98 95 94 94 98 96 98 94 99 94
22 23 22 21 21 21 22 23 23 23 23 23 23 23 23 23 24 25 27 29 27 22 24 20 17 22 44 62 70 87 96 96 96 99 95 98 96 98 99 98 98 97 96
24 24 23 23 25 26 26 26 26 25 25 25 25 25 25 26 26 27 28 29 30 33 35 30 21 18 16 32 44 58 72 93 95 96 98 99 98 97 99 99 99 98 96
25 23 25 27 28 27 26 25 25 25 25 24 23 23 23 23 24 25 27 29 30 33 35 36 38 30 21 19 26 33 44 68 85 88 97 98 99 98 99 99 98 98 99
25 27 30 30 28 26 25 25 25 24 23 23 23 22 22 21 21 21 22 25 28 32 33 34 35 37 40 30 24 24 29 40 56 78 82 91 97 97 98 99 98 99 98
29 32 31 30 28 28 27 26 25 24 22 21 21 21 21 22 21 21 22 24 31 31 31 32 32 33 34 38 40 31 26 30 38 45 57 62 76 91 95 97 97 99 99
33 34 34 32 28 26 26 25 24 22 21 20 21 21 21 22 23 23 23 25 25 25 28 30 30 29 30 32 35 42 40 31 30 30 37 47 41 55 78 90 95 97 98
37 38 36 32 28 28 26 24 24 22 22 23 24 25 26 24 23 23 25 24 22 22 24 25 27 28 29 29 33 37 40 42 34 26 33 34 27 31 47 65 78 91 98
40 40 35 32 30 28 26 25 23 23 23 26 27 27 28 29 29 33 32 32 32 31 30 29 28 28 28 32 34 34 34 36 41 37 27 38 34 33 28 39 51 67 87
41 38 35 34 31 29 27 25 23 23 27 27 29 33 35 35 38 38 39 43 41 39 37 33 31 30 29 28 28 32 37 39 37 37 43 39 35 35 26 22 38 52 66